[[{"header":{"parameterUnit":"m.s-1","parameterCategory":1,"la1":31.0,"la2":29.5877,"lo1":-88.7671,"lo2":-86.6584,"dy":0.0162,"dx":0.0185,"nx":115,"ny":88,"refTime":"2024-07-20T00:00:00:Z","depth":0,"parameterNumber":2,"parameterNumberName":"U-component_of_WINDS"},"data":[0.0,0.0,0.0,0.0,0.0,0.0,0.0,0.0,0.0,0.0,0.0,0.0,0.0,0.0,0.0,0.0,0.0,0.0,0.0,0.0,0.0,0.0,0.0,0.0,0.0,0.0,0.0,0.0,0.0,0.0,0.0,0.0,0.0,0.0,0.0,0.0,0.0,0.0,0.0,0.0,0.0,0.0,0.0,0.0,0.0,0.0,0.0,0.0,0.0,0.0,0.0,0.0,0.0,0.0,0.0,0.0,0.0,0.0,0.0,0.0,0.0,0.0,0.0,0.0,0.0,0.0,0.0,0.0,0.0,0.0,0.0,0.0,0.0,0.0,0.0,0.0,0.0,0.0,0.0,0.0,0.0,0.0,0.0,0.0,0.0,0.0,0.0,0.0,0.0,0.0,0.0,0.0,0.0,0.0,0.0,0.0,0.0,0.0,0.0,0.0,0.0,0.0,0.0,0.0,0.0,0.0,0.0,0.0,0.0,0.0,0.0,0.0,0.0,0.0,0.0,0.0,0.0,0.0,0.0,0.0,0.0,0.0,0.0,0.0,0.0,0.0,0.0,0.0,0.0,0.0,0.0,0.0,0.0,0.0,0.0,0.0,0.0,0.0,0.0,0.0,0.0,0.0,0.0,0.0,0.0,0.0,0.0,0.0,0.0,0.0,0.0,0.0,0.0,0.0,0.0,0.0,0.0,0.0,0.0,0.0,0.0,0.0,0.0,0.0,0.0,0.0,0.0,0.0,0.0,0.0,0.0,0.0,0.0,0.0,0.0,0.0,0.0,0.0,0.0,0.0,0.0,0.0,0.0,0.0,0.0,0.0,0.0,0.0,0.0,0.0,0.0,0.0,0.0,0.0,0.0,0.0,0.0,0.0,0.0,0.0,0.0,0.0,0.0,0.0,0.0,0.0,0.0,0.0,0.0,0.0,0.0,0.0,0.0,0.0,0.0,0.0,0.0,0.0,0.0,0.0,0.0,0.0,0.0,0.0,0.0,0.0,0.0,0.0,0.0,0.0,0.0,0.0,0.0,0.0,0.0,0.0,0.0,0.0,0.0,0.0,0.0,0.0,0.0,0.0,0.0,0.0,0.0,0.0,0.0,0.0,0.0,0.0,0.0,0.0,0.0,0.0,0.0,0.0,0.0,0.0,0.0,0.0,0.0,0.0,0.0,0.0,0.0,0.0,0.0,0.0,0.0,0.0,0.0,0.0,0.0,0.0,0.0,0.0,0.0,0.0,0.0,0.0,0.0,0.0,0.0,0.0,0.0,0.0,0.0,0.0,0.0,0.0,0.0,0.0,0.0,0.0,0.0,0.0,0.0,0.0,0.0,0.0,0.0,0.0,0.0,0.0,0.0,0.0,0.0,0.0,0.0,0.0,0.0,0.0,0.0,0.0,0.0,0.0,0.0,0.0,0.0,0.0,0.0,0.0,0.0,0.0,0.0,0.0,0.0,0.0,0.0,0.0,0.0,0.0,0.0,0.0,0.0,0.0,0.0,0.0,0.0,0.0,0.0,0.0,0.0,0.0,0.0,0.0,0.0,0.0,0.0,0.0,0.0,0.0,0.0,0.0,0.0,0.0,0.0,0.0,0.0,0.0,0.0,0.0,0.0,0.0,0.0,0.0,0.0,0.0,0.0,0.0,0.0,0.0,0.0,0.0,0.0,0.0,0.0,0.0,0.0,0.0,0.0,0.0,0.0,0.0,0.0,0.0,0.0,0.0,0.0,0.0,0.0,0.0,0.0,0.0,0.0,0.0,0.0,0.0,0.0,0.0,0.0,0.0,0.0,0.0,0.0,0.0,0.0,0.0,0.0,0.0,0.0,0.0,0.0,0.0,0.0,0.0,0.0,0.0,0.0,0.0,0.0,0.0,0.0,0.0,0.0,0.0,0.0,0.0,0.0,0.0,0.0,0.0,0.0,0.0,0.0,0.0,0.0,0.0,0.0,0.0,0.0,0.0,0.0,0.0,0.0,0.0,0.0,0.0,0.0,0.0,0.0,0.0,0.0,0.0,0.0,0.0,0.0,0.0,0.0,0.0,0.0,0.0,0.0,0.0,0.0,0.0,0.0,0.0,0.0,0.0,0.0,0.0,0.0,0.0,0.0,0.0,0.0,0.0,0.0,0.0,0.0,0.0,0.0,0.0,0.0,0.0,0.0,0.0,0.0,0.0,0.0,0.0,0.0,0.0,0.0,0.0,0.0,0.0,0.0,0.0,0.0,0.0,0.0,0.0,0.0,0.0,0.0,0.0,0.0,0.0,0.0,0.0,0.0,0.0,0.0,0.0,0.0,0.0,0.0,0.0,0.0,0.0,0.0,0.0,0.0,0.0,0.0,0.0,0.0,0.0,0.0,0.0,0.0,0.0,0.0,0.0,0.0,0.0,0.0,0.0,0.0,0.0,0.0,0.0,0.0,0.0,0.0,0.0,0.0,0.0,0.0,0.0,0.0,0.0,0.0,0.0,0.0,0.0,0.0,0.0,0.0,0.0,0.0,0.0,0.0,0.0,0.0,0.0,0.0,0.0,0.0,0.0,0.0,0.0,0.0,0.0,0.0,0.0,0.0,0.0,0.0,0.0,0.0,0.0,0.0,0.0,0.0,0.0,0.0,0.0,0.0,0.0,0.0,0.0,0.0,0.0,0.0,0.0,0.0,0.0,0.0,0.0,0.0,0.0,0.0,0.0,0.0,0.0,0.0,0.0,0.0,0.0,0.0,0.0,0.0,0.0,0.0,0.0,0.0,0.0,0.0,0.0,0.0,0.0,0.0,0.0,0.0,0.0,0.0,0.0,0.0,0.0,0.0,0.0,0.0,0.0,0.0,0.0,0.0,0.0,0.0,0.0,0.0,0.0,0.0,0.0,0.0,0.0,0.0,0.0,0.0,0.0,0.0,0.0,0.0,0.0,0.0,0.0,0.0,0.0,0.0,0.0,0.0,0.0,0.0,0.0,0.0,0.0,0.0,0.0,0.0,0.0,0.0,0.0,0.0,0.0,0.0,0.0,0.0,0.0,0.0,0.0,0.0,0.0,0.0,0.0,0.0,0.0,0.0,0.0,0.0,0.0,0.0,0.0,0.0,0.0,0.0,0.0,0.0,0.0,0.0,0.0,0.0,0.0,0.0,0.0,0.0,0.0,0.0,0.0,0.0,0.0,0.0,0.0,0.0,0.0,0.0,0.0,0.0,0.0,0.0,0.0,0.0,0.0,0.0,0.0,0.0,0.0,0.0,0.0,0.0,0.0,0.0,0.0,0.0,0.0,0.0,0.0,0.0,0.0,0.0,0.0,0.0,0.0,0.0,0.0,0.0,0.0,0.0,0.0,0.0,0.0,0.0,0.0,0.0,0.0,0.0,0.0,0.0,0.0,0.0,0.0,0.0,0.0,0.0,0.0,0.0,0.0,0.0,0.0,0.0,0.0,0.0,0.0,0.0,0.0,0.0,0.0,0.0,0.0,0.0,0.0,0.0,0.0,0.0,0.0,0.0,0.0,0.0,0.0,0.0,0.0,0.0,0.0,0.0,0.0,0.0,0.0,0.0,0.0,0.0,0.0,0.0,0.0,0.0,0.0,0.0,0.0,0.0,0.0,0.0,0.0,0.0,0.0,0.0,0.0,0.0,0.0,0.0,0.0,0.0,0.0,0.0,0.0,0.0,0.0,0.0,0.0,0.0,0.0,0.0,0.0,0.0,0.0,0.0,0.0,0.0,0.0,0.0,0.0,0.0,0.0,0.0,0.0,0.0,0.0,0.0,0.0,0.0,0.0,0.0,0.0,0.0,0.0,0.0,0.0,0.0,0.0,0.0,0.0,0.0,0.0,0.0,0.0,0.0,0.0,0.0,0.0,0.0,0.0,0.0,0.0,0.0,0.0,0.0,0.0,0.0,0.0,0.0,0.0,0.0,0.0,0.0,0.0,0.0,0.0,0.0,0.0,0.0,0.0,0.0,0.0,0.0,0.0,0.0,0.0,0.0,0.0,0.0,0.0,0.0,0.0,0.0,0.0,0.0,0.0,0.0,0.0,0.0,0.0,0.0,0.0,0.0,0.0,0.0,0.0,0.0,0.0,0.0,0.0,0.0,0.0,0.0,0.0,0.0,0.0,0.0,0.0,0.0,0.0,0.0,0.0,0.0,0.0,0.0,0.0,0.0,0.0,0.0,0.0,0.0,0.0,0.0,0.0,0.0,0.0,0.0,0.0,0.0,0.0,0.0,0.0,0.0,0.0,0.0,0.0,0.0,0.0,0.0,0.0,0.0,0.0,0.0,0.0,-2.057,0.0,0.0,0.0,0.0,0.0,0.0,0.0,0.0,0.0,0.0,0.0,0.0,0.0,0.0,0.0,0.0,0.0,0.0,0.0,0.0,0.0,0.0,0.0,0.0,0.0,0.0,0.0,0.0,0.0,0.0,0.0,0.0,0.0,0.0,0.0,0.0,0.0,0.0,0.0,0.0,0.0,0.0,0.0,0.0,0.0,0.0,0.0,0.0,0.0,0.0,0.0,0.0,0.0,0.0,0.0,0.0,0.0,0.0,0.0,0.0,0.0,0.0,0.0,0.0,0.0,0.0,0.0,0.0,0.0,0.0,0.0,0.0,0.0,0.0,0.0,0.0,0.0,0.0,0.0,0.0,0.0,0.0,0.0,0.0,0.0,0.0,0.0,0.0,0.0,0.0,0.0,0.0,0.0,0.0,0.0,0.0,0.0,0.0,0.0,0.0,0.0,0.0,0.0,0.0,0.0,0.0,0.0,0.0,0.0,0.0,-2.3749,-2.2451,-2.279,-2.2189,-2.0548,0.0,0.0,0.0,0.0,0.0,0.0,0.0,0.0,0.0,0.0,0.0,0.0,0.0,0.0,0.0,0.0,0.0,0.0,0.0,0.0,0.0,0.0,0.0,0.0,0.0,0.0,0.0,0.0,0.0,0.0,0.0,0.0,0.0,0.0,0.0,0.0,0.0,0.0,0.0,0.0,0.0,0.0,0.0,0.0,0.0,0.0,0.0,0.0,0.0,0.0,0.0,0.0,0.0,0.0,0.0,0.0,0.0,0.0,0.0,0.0,0.0,0.0,0.0,0.0,0.0,0.0,0.0,0.0,0.0,0.0,0.0,0.0,0.0,0.0,0.0,0.0,0.0,0.0,0.0,0.0,0.0,0.0,0.0,0.0,0.0,0.0,0.0,0.0,0.0,0.0,0.0,0.0,0.0,0.0,0.0,0.0,0.0,0.0,0.0,0.0,0.0,0.0,0.0,0.0,0.0,0.0,0.0,0.0,0.0,0.0,0.0,0.0,-2.2386,-2.1975,-2.0493,0.0,0.0,0.0,0.0,0.0,0.0,0.0,0.0,0.0,0.0,0.0,0.0,0.0,0.0,0.0,0.0,0.0,0.0,0.0,0.0,0.0,0.0,0.0,0.0,0.0,0.0,0.0,0.0,0.0,0.0,0.0,0.0,0.0,0.0,0.0,0.0,0.0,0.0,0.0,0.0,0.0,0.0,0.0,0.0,0.0,0.0,0.0,0.0,0.0,0.0,0.0,0.0,0.0,0.0,0.0,0.0,0.0,0.0,0.0,0.0,0.0,0.0,0.0,0.0,0.0,0.0,0.0,0.0,0.0,0.0,0.0,0.0,0.0,0.0,0.0,0.0,0.0,0.0,0.0,0.0,0.0,0.0,0.0,0.0,0.0,0.0,0.0,0.0,0.0,0.0,0.0,0.0,0.0,0.0,0.0,0.0,0.0,0.0,0.0,0.0,0.0,0.0,0.0,0.0,0.0,0.0,0.0,0.0,0.0,0.0,-2.1938,-2.1726,-2.1782,0.0,-2.0493,0.0,0.0,0.0,0.0,0.0,0.0,0.0,0.0,0.0,0.0,0.0,0.0,0.0,0.0,0.0,0.0,0.0,0.0,0.0,0.0,0.0,0.0,0.0,0.0,0.0,0.0,0.0,0.0,0.0,0.0,0.0,0.0,0.0,0.0,0.0,0.0,0.0,0.0,0.0,0.0,0.0,0.0,0.0,0.0,0.0,0.0,0.0,0.0,0.0,0.0,0.0,0.0,0.0,0.0,0.0,0.0,0.0,0.0,0.0,0.0,0.0,0.0,0.0,0.0,0.0,0.0,0.0,0.0,0.0,0.0,0.0,0.0,0.0,0.0,0.0,0.0,0.0,0.0,0.0,0.0,0.0,0.0,0.0,0.0,0.0,0.0,0.0,0.0,0.0,0.0,0.0,0.0,0.0,0.0,0.0,0.0,0.0,0.0,0.0,0.0,0.0,0.0,0.0,0.0,0.0,0.0,0.0,0.0,0.0,0.0,-2.1535,-2.1005,-2.0906,-2.0721,0.0,0.0,0.0,0.0,0.0,0.0,0.0,0.0,0.0,0.0,0.0,0.0,0.0,0.0,0.0,0.0,0.0,0.0,0.0,0.0,0.0,0.0,0.0,0.0,0.0,0.0,0.0,0.0,0.0,0.0,0.0,0.0,0.0,0.0,0.0,0.0,0.0,0.0,0.0,0.0,0.0,0.0,0.0,0.0,0.0,0.0,0.0,0.0,0.0,0.0,0.0,0.0,0.0,0.0,0.0,0.0,0.0,0.0,0.0,0.0,0.0,0.0,0.0,0.0,0.0,0.0,0.0,0.0,0.0,0.0,0.0,0.0,0.0,0.0,0.0,0.0,0.0,0.0,0.0,0.0,0.0,0.0,0.0,0.0,0.0,0.0,0.0,0.0,0.0,0.0,0.0,0.0,0.0,0.0,0.0,0.0,0.0,0.0,0.0,0.0,0.0,0.0,0.0,0.0,0.0,0.0,0.0,0.0,0.0,0.0,-2.1112,-2.113,-2.0517,-2.0379,-2.0328,-2.037,0.0,0.0,0.0,0.0,0.0,0.0,0.0,0.0,0.0,0.0,0.0,0.0,0.0,0.0,0.0,0.0,0.0,0.0,0.0,0.0,0.0,0.0,0.0,0.0,0.0,0.0,0.0,0.0,0.0,0.0,0.0,0.0,0.0,0.0,0.0,0.0,0.0,0.0,0.0,0.0,0.0,0.0,0.0,0.0,0.0,0.0,0.0,0.0,0.0,0.0,0.0,0.0,0.0,0.0,0.0,0.0,0.0,0.0,0.0,0.0,0.0,0.0,0.0,0.0,0.0,0.0,0.0,0.0,0.0,0.0,0.0,0.0,0.0,0.0,0.0,0.0,0.0,0.0,0.0,0.0,0.0,0.0,0.0,0.0,0.0,0.0,0.0,0.0,0.0,0.0,0.0,0.0,0.0,0.0,0.0,0.0,0.0,0.0,0.0,0.0,0.0,0.0,0.0,0.0,0.0,0.0,0.0,0.0,-2.0507,-2.0555,-2.0517,-2.0434,-2.0331,-2.0299,0.0,0.0,0.0,0.0,0.0,0.0,0.0,0.0,0.0,0.0,0.0,0.0,0.0,0.0,0.0,0.0,0.0,0.0,0.0,0.0,0.0,0.0,0.0,0.0,0.0,0.0,0.0,0.0,0.0,0.0,0.0,0.0,0.0,0.0,0.0,0.0,0.0,0.0,0.0,0.0,0.0,0.0,0.0,0.0,0.0,0.0,0.0,0.0,0.0,0.0,0.0,0.0,0.0,0.0,0.0,0.0,0.0,0.0,0.0,0.0,0.0,0.0,0.0,0.0,0.0,0.0,0.0,0.0,0.0,0.0,0.0,0.0,0.0,0.0,0.0,0.0,0.0,0.0,0.0,0.0,0.0,0.0,0.0,0.0,0.0,0.0,0.0,0.0,0.0,0.0,0.0,0.0,0.0,0.0,0.0,0.0,0.0,0.0,0.0,0.0,0.0,0.0,0.0,0.0,0.0,0.0,0.0,0.0,0.0,-2.0502,-2.051,-2.0705,-2.1127,-2.0601,-2.0303,0.0,0.0,0.0,0.0,0.0,0.0,0.0,0.0,0.0,0.0,0.0,0.0,0.0,0.0,0.0,0.0,0.0,0.0,0.0,0.0,0.0,0.0,0.0,0.0,0.0,0.0,0.0,0.0,0.0,0.0,0.0,0.0,0.0,0.0,0.0,0.0,0.0,0.0,0.0,0.0,0.0,0.0,0.0,0.0,0.0,0.0,0.0,0.0,0.0,0.0,0.0,0.0,0.0,0.0,0.0,0.0,0.0,0.0,0.0,0.0,0.0,0.0,0.0,0.0,0.0,0.0,0.0,0.0,0.0,0.0,0.0,0.0,0.0,0.0,0.0,0.0,0.0,0.0,0.0,0.0,0.0,0.0,0.0,0.0,0.0,0.0,0.0,0.0,0.0,0.0,0.0,0.0,0.0,0.0,0.0,0.0,0.0,0.0,0.0,0.0,0.0,0.0,0.0,0.0,0.0,0.0,0.0,0.0,0.0,-2.0895,0.0,-2.1124,-2.1585,-2.1053,-2.0566,0.0,0.0,0.0,0.0,0.0,0.0,0.0,0.0,0.0,0.0,0.0,0.0,0.0,0.0,0.0,0.0,0.0,0.0,0.0,0.0,0.0,0.0,0.0,0.0,0.0,0.0,0.0,0.0,0.0,0.0,0.0,0.0,0.0,0.0,0.0,0.0,0.0,0.0,0.0,0.0,0.0,0.0,0.0,0.0,0.0,0.0,0.0,0.0,0.0,0.0,0.0,0.0,0.0,0.0,0.0,0.0,0.0,0.0,0.0,0.0,0.0,0.0,0.0,0.0,0.0,0.0,0.0,0.0,0.0,0.0,0.0,0.0,0.0,0.0,0.0,0.0,0.0,0.0,0.0,0.0,0.0,0.0,0.0,0.0,0.0,0.0,0.0,0.0,0.0,0.0,0.0,0.0,0.0,0.0,0.0,0.0,0.0,0.0,0.0,0.0,0.0,0.0,0.0,0.0,0.0,0.0,0.0,0.0,-2.0807,-2.1757,-2.1747,-2.1727,-2.1719,-2.1624,-2.1136,0.0,0.0,0.0,0.0,0.0,0.0,0.0,0.0,0.0,0.0,0.0,0.0,0.0,0.0,0.0,0.0,0.0,0.0,0.0,0.0,0.0,0.0,0.0,0.0,0.0,0.0,0.0,0.0,0.0,0.0,0.0,0.0,0.0,0.0,0.0,0.0,0.0,0.0,0.0,0.0,0.0,0.0,0.0,0.0,0.0,0.0,0.0,0.0,0.0,0.0,0.0,0.0,0.0,0.0,0.0,0.0,0.0,0.0,0.0,0.0,0.0,0.0,0.0,0.0,0.0,0.0,0.0,0.0,0.0,0.0,0.0,0.0,0.0,0.0,0.0,0.0,0.0,0.0,0.0,0.0,0.0,0.0,0.0,0.0,0.0,0.0,0.0,0.0,0.0,0.0,0.0,0.0,0.0,0.0,0.0,0.0,0.0,0.0,0.0,0.0,0.0,0.0,0.0,0.0,0.0,0.0,0.0,0.0,0.0,-2.2597,-2.2606,-2.2598,-2.2577,-2.1947,-2.1167,0.0,0.0,0.0,0.0,0.0,0.0,0.0,0.0,0.0,0.0,0.0,0.0,0.0,0.0,0.0,0.0,0.0,0.0,0.0,0.0,0.0,0.0,0.0,0.0,0.0,0.0,0.0,0.0,0.0,0.0,0.0,0.0,0.0,0.0,0.0,0.0,0.0,0.0,0.0,0.0,0.0,0.0,0.0,0.0,0.0,0.0,0.0,0.0,0.0,0.0,0.0,0.0,0.0,0.0,0.0,0.0,0.0,0.0,0.0,0.0,0.0,0.0,0.0,0.0,0.0,0.0,0.0,0.0,0.0,0.0,0.0,0.0,0.0,0.0,0.0,0.0,0.0,0.0,0.0,0.0,0.0,0.0,0.0,0.0,0.0,0.0,0.0,0.0,0.0,0.0,0.0,0.0,0.0,0.0,0.0,0.0,0.0,0.0,0.0,0.0,0.0,0.0,0.0,0.0,0.0,0.0,0.0,0.0,0.0,-2.3403,-2.3474,-2.3488,-2.3442,-2.2538,-2.1629,-2.078,0.0,0.0,0.0,0.0,0.0,0.0,0.0,0.0,0.0,0.0,0.0,0.0,0.0,0.0,0.0,0.0,0.0,0.0,0.0,0.0,0.0,0.0,0.0,0.0,0.0,0.0,0.0,0.0,0.0,0.0,0.0,0.0,0.0,0.0,0.0,0.0,0.0,0.0,0.0,0.0,0.0,0.0,0.0,0.0,0.0,0.0,0.0,0.0,0.0,0.0,0.0,0.0,0.0,0.0,0.0,0.0,0.0,0.0,0.0,0.0,0.0,0.0,0.0,0.0,0.0,0.0,0.0,0.0,0.0,0.0,0.0,0.0,0.0,0.0,0.0,0.0,0.0,0.0,0.0,0.0,0.0,0.0,0.0,0.0,0.0,0.0,0.0,0.0,0.0,0.0,0.0,0.0,0.0,0.0,0.0,0.0,0.0,0.0,0.0,0.0,0.0,0.0,0.0,0.0,0.0,0.0,0.0,0.0,-2.4265,-2.4336,-2.4315,-2.4194,-2.3341,-2.2457,0.0,0.0,0.0,0.0,0.0,0.0,0.0,0.0,0.0,0.0,0.0,0.0,0.0,0.0,0.0,0.0,0.0,0.0,0.0,0.0,0.0,0.0,0.0,0.0,0.0,0.0,0.0,0.0,0.0,0.0,0.0,0.0,0.0,0.0,0.0,0.0,0.0,0.0,0.0,0.0,0.0,0.0,0.0,0.0,0.0,0.0,0.0,0.0,0.0,0.0,0.0,0.0,0.0,0.0,0.0,0.0,0.0,0.0,0.0,0.0,0.0,0.0,0.0,0.0,0.0,0.0,0.0,0.0,0.0,0.0,0.0,0.0,0.0,0.0,0.0,0.0,0.0,0.0,0.0,0.0,0.0,0.0,0.0,0.0,0.0,0.0,0.0,0.0,0.0,0.0,0.0,0.0,0.0,0.0,0.0,0.0,0.0,0.0,0.0,0.0,0.0,0.0,0.0,0.0,0.0,0.0,0.0,0.0,0.0,-2.5106,-2.5223,-2.493,-2.4302,-2.3977,-2.3114,0.0,0.0,0.0,0.0,0.0,0.0,0.0,0.0,0.0,0.0,0.0,0.0,0.0,0.0,0.0,0.0,0.0,0.0,0.0,0.0,0.0,0.0,0.0,0.0,0.0,0.0,0.0,0.0,0.0,0.0,0.0,0.0,0.0,0.0,0.0,0.0,0.0,0.0,0.0,0.0,0.0,0.0,0.0,0.0,0.0,0.0,0.0,0.0,0.0,0.0,0.0,0.0,0.0,0.0,0.0,0.0,0.0,0.0,0.0,0.0,0.0,0.0,0.0,0.0,0.0,0.0,0.0,0.0,0.0,0.0,0.0,0.0,0.0,0.0,0.0,0.0,0.0,0.0,0.0,0.0,0.0,0.0,0.0,0.0,0.0,0.0,0.0,0.0,0.0,0.0,0.0,0.0,0.0,0.0,0.0,0.0,0.0,0.0,0.0,0.0,0.0,0.0,0.0,0.0,0.0,0.0,0.0,0.0,-2.4322,-2.5425,-2.5546,-2.5351,-2.4836,-2.4411,-2.3554,0.0,0.0,0.0,0.0,0.0,0.0,0.0,0.0,0.0,0.0,0.0,0.0,0.0,0.0,0.0,0.0,0.0,0.0,0.0,0.0,0.0,0.0,0.0,0.0,0.0,0.0,0.0,0.0,0.0,0.0,0.0,0.0,0.0,0.0,0.0,0.0,0.0,0.0,0.0,0.0,0.0,0.0,0.0,0.0,0.0,0.0,0.0,0.0,0.0,0.0,0.0,0.0,0.0,0.0,0.0,0.0,0.0,0.0,0.0,0.0,0.0,0.0,0.0,0.0,0.0,0.0,0.0,0.0,0.0,0.0,0.0,0.0,0.0,0.0,0.0,0.0,0.0,0.0,0.0,0.0,0.0,0.0,0.0,0.0,0.0,0.0,0.0,0.0,0.0,0.0,0.0,0.0,0.0,0.0,0.0,0.0,0.0,0.0,0.0,0.0,0.0,0.0,0.0,0.0,0.0,0.0,0.0,0.0,-2.4403,-2.536,-2.552,-2.5596,-2.5575,-2.4783,-2.3934,0.0,0.0,0.0,0.0,0.0,0.0,0.0,0.0,0.0,0.0,0.0,0.0,0.0,0.0,0.0,0.0,0.0,0.0,0.0,0.0,0.0,0.0,0.0,0.0,0.0,0.0,0.0,0.0,0.0,0.0,0.0,0.0,0.0,0.0,0.0,0.0,0.0,0.0,0.0,0.0,0.0,0.0,0.0,0.0,0.0,0.0,0.0,0.0,0.0,0.0,0.0,0.0,0.0,0.0,0.0,0.0,0.0,0.0,0.0,0.0,0.0,0.0,0.0,0.0,0.0,0.0,0.0,0.0,0.0,0.0,0.0,0.0,0.0,0.0,0.0,0.0,0.0,0.0,0.0,0.0,0.0,0.0,0.0,0.0,0.0,0.0,0.0,0.0,0.0,0.0,0.0,0.0,0.0,0.0,0.0,0.0,0.0,0.0,0.0,0.0,0.0,0.0,0.0,0.0,0.0,0.0,0.0,0.0,-2.4862,-2.5305,-2.5443,-2.5549,-2.5605,-2.54,-2.4891,0.0,0.0,0.0,0.0,0.0,0.0,0.0,0.0,0.0,0.0,0.0,0.0,0.0,0.0,0.0,0.0,0.0,0.0,0.0,0.0,0.0,0.0,0.0,0.0,0.0,0.0,0.0,0.0,0.0,0.0,0.0,0.0,0.0,0.0,0.0,0.0,0.0,0.0,0.0,0.0,0.0,0.0,0.0,0.0,0.0,0.0,0.0,0.0,-1.9722,0.0,0.0,0.0,0.0,0.0,0.0,0.0,0.0,0.0,0.0,0.0,0.0,0.0,0.0,0.0,0.0,0.0,0.0,0.0,0.0,0.0,0.0,0.0,0.0,0.0,0.0,0.0,0.0,0.0,0.0,0.0,0.0,0.0,0.0,0.0,0.0,0.0,0.0,0.0,0.0,0.0,0.0,0.0,0.0,0.0,0.0,0.0,0.0,0.0,0.0,0.0,0.0,0.0,0.0,0.0,0.0,0.0,0.0,0.0,-2.5418,-2.5726,-2.6243,-2.6403,-2.6143,-2.6191,-2.5609,0.0,0.0,0.0,0.0,0.0,0.0,0.0,0.0,0.0,0.0,0.0,0.0,0.0,0.0,0.0,0.0,0.0,0.0,0.0,0.0,0.0,0.0,0.0,0.0,0.0,0.0,0.0,0.0,0.0,0.0,0.0,0.0,0.0,0.0,0.0,0.0,0.0,0.0,0.0,0.0,0.0,0.0,0.0,0.0,0.0,0.0,0.0,0.0,0.0,0.0,0.0,0.0,0.0,0.0,0.0,0.0,0.0,0.0,0.0,0.0,0.0,0.0,0.0,0.0,0.0,0.0,0.0,0.0,0.0,0.0,0.0,0.0,0.0,0.0,0.0,0.0,0.0,0.0,0.0,0.0,0.0,0.0,0.0,0.0,0.0,0.0,0.0,0.0,0.0,0.0,0.0,0.0,0.0,0.0,0.0,0.0,0.0,0.0,0.0,0.0,0.0,0.0,0.0,0.0,0.0,0.0,0.0,-2.4879,-2.5893,-2.6332,-2.7191,-2.7374,-2.6853,-2.6848,-2.6132,-2.4578,0.0,0.0,0.0,0.0,0.0,0.0,0.0,0.0,0.0,0.0,0.0,0.0,0.0,0.0,0.0,0.0,0.0,0.0,0.0,0.0,0.0,0.0,0.0,0.0,0.0,0.0,0.0,0.0,0.0,0.0,0.0,0.0,0.0,0.0,0.0,0.0,0.0,0.0,-1.1053,-1.3019,0.0,0.0,0.0,0.0,0.0,0.0,0.0,0.0,-1.9969,0.0,0.0,0.0,0.0,0.0,0.0,0.0,0.0,0.0,0.0,0.0,0.0,0.0,0.0,0.0,0.0,0.0,0.0,0.0,0.0,0.0,0.0,0.0,0.0,0.0,0.0,0.0,0.0,0.0,0.0,0.0,0.0,0.0,0.0,0.0,0.0,0.0,0.0,0.0,0.0,0.0,0.0,0.0,0.0,0.0,0.0,0.0,0.0,0.0,0.0,0.0,0.0,0.0,0.0,0.0,0.0,-2.4008,-2.5033,-2.5958,-2.6843,-2.7176,-2.7396,-2.7427,-2.6977,-2.6314,-2.5389,0.0,0.0,0.0,0.0,0.0,0.0,0.0,0.0,0.0,0.0,0.0,0.0,0.0,0.0,0.0,0.0,0.0,0.0,0.0,0.0,0.0,0.0,0.0,0.0,0.0,0.0,0.0,0.0,0.0,0.0,0.0,0.0,0.0,0.0,0.0,0.0,0.0,0.0,0.0,-1.4492,-1.5875,0.0,0.0,0.0,0.0,0.0,0.0,0.0,0.0,-1.9347,0.0,0.0,0.0,0.0,0.0,0.0,0.0,0.0,0.0,0.0,0.0,0.0,0.0,0.0,0.0,0.0,0.0,0.0,0.0,0.0,0.0,0.0,0.0,0.0,0.0,0.0,0.0,0.0,0.0,0.0,0.0,0.0,0.0,0.0,0.0,0.0,0.0,0.0,0.0,0.0,0.0,0.0,0.0,0.0,0.0,0.0,0.0,0.0,0.0,0.0,0.0,0.0,0.0,0.0,0.0,-2.4584,-2.5385,-2.6237,-2.7187,-2.7809,-2.8091,-2.7965,-2.7414,-2.6624,0.0,0.0,0.0,0.0,0.0,0.0,0.0,0.0,0.0,0.0,0.0,0.0,0.0,0.0,0.0,0.0,0.0,0.0,0.0,0.0,0.0,0.0,0.0,0.0,0.0,0.0,0.0,0.0,0.0,0.0,0.0,0.0,0.0,0.0,0.0,0.0,0.0,0.0,0.0,0.0,-1.5982,-1.7109,-1.8078,0.0,0.0,0.0,0.0,0.0,0.0,-1.9236,-1.9199,0.0,0.0,0.0,0.0,0.0,0.0,0.0,0.0,0.0,0.0,0.0,0.0,0.0,0.0,0.0,0.0,0.0,0.0,0.0,0.0,0.0,0.0,0.0,0.0,0.0,0.0,0.0,0.0,0.0,0.0,0.0,0.0,0.0,0.0,0.0,0.0,0.0,0.0,0.0,0.0,0.0,0.0,0.0,0.0,0.0,0.0,0.0,0.0,0.0,0.0,0.0,0.0,0.0,0.0,0.0,-2.5208,-2.5847,-2.665,-2.77,-2.8536,-2.8872,-2.8614,-2.783,-2.686,0.0,0.0,0.0,0.0,0.0,0.0,0.0,0.0,0.0,0.0,0.0,0.0,0.0,0.0,0.0,0.0,0.0,0.0,0.0,0.0,0.0,0.0,0.0,0.0,0.0,0.0,0.0,0.0,0.0,0.0,0.0,0.0,0.0,0.0,0.0,0.0,0.0,0.0,0.0,0.0,0.0,-1.8147,-1.8616,-1.9091,0.0,0.0,0.0,0.0,-1.9157,-1.9157,0.0,0.0,0.0,0.0,0.0,0.0,0.0,0.0,0.0,0.0,0.0,0.0,0.0,0.0,0.0,0.0,0.0,0.0,0.0,0.0,0.0,0.0,0.0,0.0,0.0,0.0,0.0,0.0,0.0,0.0,0.0,0.0,0.0,0.0,0.0,0.0,0.0,0.0,0.0,0.0,0.0,0.0,0.0,0.0,0.0,0.0,0.0,0.0,0.0,0.0,0.0,0.0,0.0,0.0,0.0,0.0,-2.5793,-2.636,-2.7331,-2.8737,-2.9108,-2.9406,-2.9694,-2.7988,-2.6837,0.0,0.0,0.0,0.0,0.0,0.0,0.0,0.0,0.0,0.0,0.0,0.0,0.0,0.0,0.0,0.0,0.0,0.0,0.0,0.0,0.0,0.0,0.0,0.0,0.0,0.0,0.0,0.0,0.0,0.0,0.0,0.0,0.0,0.0,0.0,0.0,0.0,0.0,0.0,0.0,0.0,-1.8635,-1.8988,-1.925,-1.9413,0.0,0.0,-1.9302,-1.912,-1.9291,0.0,0.0,0.0,0.0,0.0,0.0,0.0,0.0,0.0,0.0,0.0,0.0,0.0,0.0,0.0,0.0,0.0,0.0,0.0,0.0,0.0,0.0,0.0,0.0,0.0,0.0,0.0,0.0,0.0,0.0,0.0,0.0,0.0,0.0,0.0,0.0,0.0,0.0,0.0,0.0,0.0,0.0,0.0,0.0,0.0,0.0,0.0,0.0,0.0,0.0,0.0,0.0,0.0,0.0,0.0,-2.3368,-2.5815,-2.6651,-2.7542,-2.8573,-2.9104,-2.9392,-2.9431,-2.7969,-2.7073,0.0,0.0,0.0,0.0,0.0,0.0,0.0,0.0,0.0,0.0,0.0,0.0,0.0,0.0,0.0,0.0,0.0,0.0,0.0,0.0,0.0,0.0,0.0,0.0,0.0,0.0,0.0,0.0,0.0,0.0,0.0,0.0,0.0,0.0,0.0,0.0,0.0,0.0,0.0,0.0,0.0,0.0,-1.9609,-1.984,0.0,0.0,0.0,-2.047,-2.046,0.0,0.0,0.0,0.0,0.0,0.0,0.0,0.0,0.0,0.0,0.0,0.0,0.0,0.0,0.0,0.0,0.0,0.0,0.0,0.0,0.0,0.0,0.0,0.0,0.0,0.0,0.0,0.0,0.0,0.0,0.0,0.0,0.0,0.0,0.0,0.0,0.0,0.0,0.0,0.0,0.0,0.0,0.0,0.0,0.0,0.0,0.0,0.0,0.0,0.0,0.0,0.0,0.0,0.0,0.0,0.0,0.0,-2.5717,-2.6902,-2.7804,-2.8442,-2.9161,-2.9418,-2.914,-2.8031,0.0,0.0,0.0,0.0,0.0,0.0,0.0,0.0,0.0,0.0,0.0,0.0,0.0,0.0,0.0,0.0,0.0,0.0,0.0,0.0,0.0,0.0,0.0,0.0,0.0,0.0,0.0,-0.4341,0.0,0.0,0.0,0.0,0.0,0.0,0.0,0.0,0.0,0.0,0.0,0.0,0.0,0.0,-1.979,-2.0347,-2.0597,-2.0877,0.0,0.0,-2.1655,-2.1752,-2.1876,-2.2207,0.0,0.0,0.0,0.0,0.0,0.0,0.0,0.0,0.0,0.0,0.0,0.0,0.0,0.0,0.0,0.0,0.0,0.0,0.0,0.0,0.0,0.0,0.0,0.0,0.0,0.0,0.0,0.0,0.0,0.0,0.0,0.0,0.0,0.0,0.0,0.0,0.0,0.0,0.0,0.0,0.0,0.0,0.0,0.0,0.0,0.0,0.0,0.0,0.0,0.0,0.0,0.0,0.0,0.0,-2.3542,-2.5597,-2.7222,-2.8288,-2.8856,-2.9583,-2.9733,-2.9282,-2.8218,-2.7248,0.0,0.0,0.0,0.0,0.0,0.0,0.0,0.0,0.0,0.0,0.0,0.0,0.0,0.0,0.0,0.0,0.0,0.0,0.0,0.0,0.0,0.0,0.0,0.0,0.0,0.0,0.0,0.0,0.0,0.0,0.0,0.0,0.0,0.0,0.0,0.0,0.0,0.0,0.0,0.0,0.0,-2.063,-2.1226,-2.1486,-2.161,0.0,-2.1933,-2.2243,-2.2493,-2.3165,-2.3909,-2.4698,0.0,0.0,0.0,0.0,0.0,0.0,0.0,0.0,0.0,0.0,0.0,0.0,0.0,0.0,0.0,0.0,0.0,0.0,0.0,0.0,0.0,0.0,0.0,0.0,0.0,0.0,0.0,0.0,0.0,0.0,0.0,0.0,0.0,0.0,0.0,0.0,0.0,0.0,0.0,0.0,0.0,0.0,0.0,0.0,0.0,0.0,0.0,0.0,0.0,0.0,0.0,0.0,0.0,-2.3962,-2.5601,-2.766,-2.8745,-2.8811,-2.978,-2.9856,-2.8944,-2.8252,-2.7198,0.0,0.0,0.0,0.0,0.0,0.0,0.0,0.0,0.0,0.0,0.0,0.0,0.0,0.0,0.0,0.0,0.0,0.0,0.0,0.0,0.0,0.0,0.0,0.0,0.0,0.0,0.0,0.0,-0.6747,-0.8631,-1.1178,0.0,0.0,0.0,0.0,0.0,0.0,0.0,0.0,0.0,0.0,-2.1372,-2.2096,-2.2359,0.0,0.0,-2.3665,-2.4068,-2.4505,-2.4863,-2.5375,-2.6165,-2.6515,0.0,0.0,0.0,0.0,0.0,0.0,0.0,0.0,0.0,0.0,0.0,0.0,0.0,0.0,0.0,0.0,0.0,0.0,0.0,0.0,0.0,0.0,0.0,0.0,0.0,0.0,0.0,0.0,0.0,0.0,0.0,0.0,0.0,0.0,0.0,0.0,0.0,0.0,0.0,0.0,0.0,0.0,0.0,0.0,0.0,0.0,0.0,0.0,0.0,0.0,0.0,0.0,-2.4456,-2.5513,-2.7887,-2.8944,-2.8645,-2.9825,-2.9954,-2.8903,-2.8376,-2.7383,0.0,0.0,0.0,0.0,0.0,0.0,0.0,0.0,0.0,0.0,0.0,0.0,0.0,0.0,0.0,0.0,0.0,0.0,0.0,0.0,0.0,0.0,0.0,0.0,0.0,0.0,0.0,0.0,-0.8084,-1.0449,-1.3247,0.0,0.0,0.0,0.0,0.0,0.0,0.0,0.0,0.0,0.0,-2.2142,-2.2966,-2.3346,-2.3804,-2.4532,-2.5102,-2.564,-2.6147,-2.6449,-2.6857,-2.7614,0.0,0.0,0.0,0.0,0.0,0.0,0.0,0.0,0.0,0.0,0.0,0.0,0.0,0.0,0.0,0.0,0.0,0.0,0.0,0.0,0.0,0.0,0.0,0.0,0.0,0.0,0.0,-1.7328,0.0,0.0,-1.6853,0.0,0.0,0.0,0.0,0.0,0.0,0.0,0.0,0.0,0.0,0.0,0.0,0.0,0.0,0.0,0.0,0.0,0.0,0.0,0.0,0.0,0.0,-2.4882,-2.5347,-2.7788,-2.8872,-2.8458,-2.9703,-3.0017,-2.9202,-2.8674,-2.7785,-2.6455,0.0,0.0,0.0,0.0,0.0,0.0,0.0,0.0,0.0,0.0,0.0,0.0,0.0,0.0,0.0,0.0,0.0,0.0,0.0,0.0,0.0,0.0,0.0,0.0,0.0,0.0,-0.744,-1.0476,-1.3112,0.0,0.0,0.0,0.0,0.0,0.0,0.0,0.0,0.0,-2.1844,-2.2401,-2.2996,-2.3876,-2.4431,-2.495,-2.5378,-2.6033,-2.6674,-2.7144,-2.7816,-2.8464,0.0,0.0,0.0,0.0,0.0,0.0,0.0,0.0,0.0,0.0,0.0,0.0,0.0,0.0,0.0,0.0,0.0,0.0,0.0,0.0,0.0,0.0,0.0,0.0,0.0,0.0,0.0,-1.9566,-1.9323,0.0,0.0,0.0,0.0,0.0,0.0,0.0,0.0,0.0,0.0,0.0,-2.0498,-2.0679,0.0,0.0,0.0,0.0,0.0,0.0,0.0,0.0,0.0,0.0,0.0,0.0,-2.4797,-2.5317,-2.7739,-2.8835,-2.8422,-2.9605,-2.985,-2.9025,-2.8825,-2.7758,-2.5682,0.0,0.0,0.0,0.0,0.0,0.0,0.0,0.0,0.0,0.0,0.0,0.0,0.0,0.0,0.0,0.0,0.0,0.0,0.0,0.0,0.0,0.0,0.0,0.0,0.0,-0.7408,0.0,0.0,0.0,0.0,0.0,0.0,0.0,0.0,0.0,0.0,-2.0862,-2.1528,-2.2047,-2.3236,-2.4327,-2.516,-2.6095,-2.6971,0.0,0.0,0.0,0.0,0.0,0.0,0.0,0.0,0.0,0.0,0.0,0.0,0.0,0.0,-3.1636,-3.1678,-3.1699,-3.1699,-3.1699,0.0,0.0,0.0,0.0,0.0,0.0,0.0,0.0,0.0,0.0,0.0,0.0,0.0,0.0,-2.017,-2.0184,-2.0448,0.0,0.0,0.0,0.0,0.0,0.0,0.0,0.0,-2.1263,-2.1273,-2.1201,-2.1377,-2.1609,-2.1876,-2.1895,-2.2154,0.0,0.0,0.0,0.0,0.0,0.0,0.0,0.0,-2.5019,-2.5519,-2.7725,-2.8723,-2.8392,-2.9518,-2.9826,-2.9205,-2.8839,-2.7506,-2.5057,-2.2678,-2.0433,0.0,0.0,0.0,0.0,0.0,0.0,0.0,0.0,0.0,0.0,0.0,0.0,0.0,0.0,0.0,0.0,0.0,0.0,0.0,0.0,0.0,0.0,0.0,-1.0416,0.0,0.0,0.0,0.0,0.0,0.0,0.0,0.0,0.0,-2.0693,-2.151,-2.2292,-2.2731,-2.4179,-2.5487,-2.6345,0.0,0.0,0.0,0.0,0.0,0.0,0.0,-3.1856,-3.2231,-3.2521,-3.2845,-3.3339,-3.3495,-3.365,-3.3988,0.0,0.0,-3.3472,-3.339,-3.3394,-3.3393,-3.3393,-3.3392,-3.3388,-3.3378,-3.3384,0.0,0.0,0.0,0.0,-2.0824,0.0,0.0,0.0,-2.0512,-2.0362,0.0,-2.0221,0.0,0.0,0.0,0.0,-2.1452,-2.1448,0.0,0.0,-2.1842,-2.2002,-2.2066,-2.2661,-2.3376,-2.4093,-2.4062,-2.445,-2.5059,-2.2541,-2.1279,0.0,0.0,0.0,0.0,0.0,-2.5585,-2.5925,-2.7739,-2.8536,-2.825,-2.9389,-2.9902,-2.9665,-2.8716,-2.7072,-2.4725,-2.3873,-2.1776,-1.8199,-1.6718,0.0,0.0,0.0,0.0,0.0,0.0,0.0,0.0,0.0,0.0,0.0,0.0,0.0,0.0,0.0,0.0,0.0,0.0,0.0,0.0,-1.2,0.0,0.0,0.0,0.0,0.0,0.0,0.0,0.0,0.0,-2.1806,-2.1172,-2.2381,-2.3488,-2.3885,0.0,0.0,0.0,0.0,-2.9089,-2.9907,-3.0537,-3.1056,-3.1464,-3.1896,-3.2317,-3.2558,0.0,0.0,-3.4071,-3.4231,-3.4513,-3.5405,-3.56,-3.5245,-3.3757,-3.3569,-3.3551,-3.356,-3.3659,-3.3562,-3.3561,-3.3861,-3.3821,-2.0877,0.0,0.0,0.0,0.0,-2.1866,-2.1958,-2.1935,-2.1663,-2.1601,-2.1593,-2.1363,0.0,0.0,0.0,0.0,0.0,0.0,-2.4298,-2.4254,-2.4352,-2.4283,-2.4133,-2.4299,-2.4439,-2.4548,-2.4533,-2.4663,-2.489,-2.4133,-2.3929,-2.4291,0.0,0.0,0.0,0.0,-2.5788,-2.587,-2.7613,-2.8436,-2.8198,-2.9384,-2.9858,-2.9563,-2.8637,-2.7595,-2.6442,-2.4454,-2.2468,-2.0521,-1.765,0.0,0.0,0.0,0.0,0.0,0.0,0.0,0.0,0.0,0.0,0.0,0.0,0.0,0.0,0.0,0.0,0.0,0.0,0.0,-1.2752,-1.4445,-1.5942,0.0,0.0,0.0,0.0,0.0,0.0,0.0,0.0,0.0,-2.3228,-2.3745,-2.4365,0.0,0.0,-2.7749,-2.8722,-3.0063,-3.1255,-3.1983,-3.2678,0.0,-3.3566,-3.3884,-3.4159,-3.4338,-3.4456,-3.4634,-3.481,-3.4914,-3.5062,-3.5309,-3.5913,-3.6269,-3.5945,-3.547,-3.5223,-3.5282,-3.5744,-3.6157,-3.6205,-3.6627,-3.7002,-2.1614,-2.1735,-2.1515,-2.155,-2.1798,-2.1979,-2.2229,-2.2431,-2.2193,-2.2216,-2.241,-2.2247,-2.2311,-2.2564,-2.3519,0.0,0.0,0.0,-2.5388,-2.5423,-2.5296,-2.516,-2.5005,-2.4932,-2.5122,-2.5513,-2.5531,-2.5836,-2.6415,-2.6415,-2.6544,-2.6711,0.0,-2.5253,-2.5443,-2.5649,-2.5823,-2.6017,-2.7509,-2.824,-2.8096,-2.9215,-2.9659,-2.9344,-2.8658,-2.7775,-2.6632,-2.4724,-2.2776,-2.0801,-1.7972,-1.5463,0.0,0.0,0.0,0.0,0.0,0.0,0.0,0.0,0.0,0.0,0.0,-0.7207,-0.8585,0.0,0.0,0.0,-1.3086,-1.4666,-1.6362,-1.756,0.0,0.0,0.0,0.0,0.0,0.0,0.0,-2.3816,-2.444,-2.4837,-2.4948,-2.5465,-2.5894,-2.6021,-2.7525,-2.8984,-3.0015,0.0,-3.2478,-3.323,-3.3826,-3.4305,-3.4607,-3.484,-3.5001,-3.5107,-3.5185,-3.5176,-3.5044,-3.5089,-3.5249,-3.5552,-3.6123,-3.6731,-3.7211,-3.7011,-3.6865,-3.6974,-3.7412,-3.7756,-3.7804,-3.819,-3.8484,-2.2137,-2.2063,-2.1406,-2.1328,-2.1648,-2.1704,-2.1929,-2.2251,-2.2205,-2.2351,-2.2599,-2.2755,-2.2992,-2.3376,-2.4033,0.0,-2.4994,-2.5094,-2.5259,-2.5422,-2.532,-2.5235,-2.522,-2.5109,-2.5686,-2.6928,-2.6945,-2.7604,-2.8783,-2.8851,-2.8794,-2.8598,-2.6266,-2.5355,-2.5856,-2.5646,-2.5798,-2.6343,-2.7451,-2.8041,-2.8034,-2.8978,-2.9328,-2.9019,-2.8646,-2.7578,-2.5721,-2.467,-2.2765,-1.9809,-1.7885,-1.574,-1.3268,0.0,0.0,0.0,0.0,0.0,0.0,0.0,0.0,0.0,0.0,0.0,0.0,0.0,0.0,0.0,-1.6645,0.0,-1.9734,-2.0934,0.0,0.0,0.0,-2.4028,-2.4526,-2.4629,-2.4782,-2.5126,0.0,0.0,-2.6347,-2.7344,-2.7832,-2.7324,-2.8719,-3.0161,-3.1221,-3.2176,-3.3033,-3.3705,-3.4213,-3.4607,-3.4851,-3.502,-3.511,-3.5155,-3.5107,-3.5027,-3.4889,-3.486,-3.5201,-3.5892,-3.6301,-3.6815,-3.7808,-3.8218,-3.8456,-3.8653,-3.8649,-3.8632,-3.8687,-3.8779,-3.8857,-2.1578,-2.1589,-2.1419,-2.1652,-2.2224,-2.2476,-2.2637,-2.2701,-2.2348,-2.2362,-2.2551,-2.2156,-2.2612,-2.3719,-2.428,-2.5027,-2.5916,-2.6215,-2.6442,-2.6623,-2.7188,-2.7331,-2.7165,-2.7656,-2.8007,-2.8164,-2.8163,-2.833,-2.8647,-2.8624,-2.8529,-2.8365,-2.7736,-2.7206,-2.6878,-2.67,-2.6636,-2.6697,-2.7843,-2.8678,-2.9095,-2.9184,-2.8869,-2.818,-2.7667,-2.6633,-2.5057,-2.3561,-2.1958,-2.0189,-1.797,-1.5734,-1.3516,-1.1839,0.0,0.0,0.0,0.0,0.0,0.0,0.0,0.0,0.0,-1.0315,-1.2109,0.0,-1.587,0.0,-1.9543,-2.1223,-2.1835,-2.2578,0.0,0.0,-2.4187,-2.4751,-2.5441,-2.5689,-2.622,-2.7291,-2.724,-2.7414,-2.8167,-2.8592,-2.8963,-2.9383,-3.0079,-3.0892,-3.1846,-3.2782,-3.3556,-3.4043,-3.4516,-3.4879,-3.5037,-3.5115,-3.5162,-3.5056,-3.4936,-3.4821,-3.4636,-3.4636,-3.4932,-3.5752,-3.664,-3.7573,-3.8623,-3.9489,-4.0109,-4.0311,-3.9923,-3.9496,-3.9528,-3.9994,-4.0448,-2.1608,-2.1457,-2.1444,-2.1507,-2.1636,-2.218,-2.2495,-2.2566,-2.2364,-2.2433,-2.2665,-2.2812,-2.3585,-2.4746,-2.533,-2.6028,-2.6841,-2.7263,-2.7601,-2.7878,-2.8286,-2.8386,-2.8296,-2.8627,-2.8831,-2.8957,-2.8957,-2.9065,-2.9301,-2.9277,-2.9176,-2.9054,-2.8661,-2.8241,-2.7773,-2.7486,-2.7248,-2.7118,-2.8019,-2.8788,-2.938,-2.9206,-2.8794,-2.8232,-2.7662,-2.6527,-2.4815,-2.3339,-2.1733,-1.991,-1.7858,-1.5977,-1.4301,-1.2643,-1.1226,0.0,0.0,0.0,0.0,0.0,0.0,0.0,0.0,0.0,0.0,0.0,-1.8342,-2.0594,-2.2519,-2.3865,-2.4532,-2.5229,-2.5803,-2.6189,-2.6533,-2.6886,-2.7342,-2.7647,-2.8121,-2.8906,-2.899,-2.92,-2.9915,-3.0331,-3.0825,-3.1667,-3.2244,-3.2592,-3.2621,-3.327,-3.3931,-3.4349,-3.4744,-3.5027,-3.5185,-3.5218,-3.5176,-3.4982,-3.485,-3.467,-3.4461,-3.4715,-3.5219,-3.6065,-3.7126,-3.8238,-3.9316,-4.0069,-4.0667,-4.0786,-4.062,-4.0383,-4.0372,-4.0764,-4.1079,-2.1845,-2.1524,-2.155,-2.1251,-2.0807,-2.1542,-2.1963,-2.2179,-2.2344,-2.2596,-2.2951,-2.3978,-2.4946,-2.584,-2.6437,-2.7004,-2.7545,-2.8027,-2.8455,-2.8829,-2.8876,-2.8945,-2.8964,-2.8896,-2.9121,-2.9621,-2.9637,-2.9935,-3.0451,-3.0467,-3.0381,-3.0255,-2.9448,-2.8957,-2.8746,-2.8184,-2.7835,-2.7726,-2.8217,-2.8752,-2.9266,-2.9137,-2.8873,-2.8449,-2.7917,-2.6684,-2.4687,-2.3444,-2.1786,-1.9578,-1.7932,-1.6542,-1.5346,-1.3781,-1.2616,0.0,-1.1161,0.0,0.0,0.0,0.0,0.0,0.0,0.0,0.0,-1.8285,-2.0833,-2.4055,-2.5342,-2.6398,-2.727,-2.8024,-2.8567,-2.8944,-2.9153,-2.9332,-2.9468,-2.9696,-2.9936,-3.0201,-3.05,-3.0895,-3.1525,-3.2087,-3.2735,-3.3536,-3.4259,-3.4424,-3.3764,-3.4082,-3.4659,-3.4994,-3.5286,-3.5709,-3.572,-3.5575,-3.5378,-3.5126,-3.4826,-3.4591,-3.4335,-3.4878,-3.5664,-3.6545,-3.7573,-3.8686,-3.978,-4.0241,-4.0552,-4.0762,-4.0855,-4.0929,-4.1,-4.1028,-4.1055,-2.1733,-2.1659,-2.1769,-2.1759,-2.1684,-2.1927,-2.2009,-2.1992,-2.2328,-2.2964,-2.3801,-2.432,-2.4839,-2.5364,-2.5963,-2.6548,-2.7142,-2.7668,-2.807,-2.8467,-2.917,-2.9438,-2.935,-2.9892,-3.041,-3.0909,-3.0942,-3.1281,-3.1925,-3.1844,-3.1798,-3.1759,-3.0823,-3.028,-3.0165,0.0,0.0,0.0,-2.8914,-2.9018,-2.9144,-2.8944,-2.8467,-2.7651,-2.701,0.0,-2.4226,-2.3041,-2.1799,-2.041,-1.9206,0.0,0.0,0.0,0.0,0.0,0.0,0.0,0.0,0.0,0.0,0.0,-1.749,-1.792,-1.8081,-2.1743,-2.4847,-2.651,-2.7636,-2.8416,-2.8768,-2.9024,-2.9277,-2.9453,-2.9604,-2.9738,-2.9883,-3.0031,-3.0492,-3.1425,-3.1287,-3.1554,-3.2692,-3.2947,-3.3288,-3.4159,-3.4783,-3.5339,-3.5738,-3.6029,-3.6468,-3.6879,-3.7076,-3.731,-3.734,-3.6617,-3.6045,-3.5766,-3.501,-3.4479,-3.4333,-3.487,-3.5621,-3.6501,-3.7555,-3.8674,-3.9699,-4.022,-4.0526,-4.0674,-4.0819,-4.0932,-4.1013,-4.1023,-4.0968,-2.194,-2.1892,-2.1977,-2.187,0.0,-2.1924,-2.2143,-2.2362,-2.255,-2.3262,-2.4321,-2.4657,-2.5221,-2.5979,-2.6542,-2.7163,-2.7778,-2.8377,-2.8863,-2.9268,-2.9736,-2.9963,-2.9959,-3.0535,-3.0931,-3.1197,-3.1505,-3.1824,-3.215,-3.2097,-3.2089,-3.2106,-3.153,-3.1219,-3.1188,-3.0702,-2.9989,-2.9114,-2.9167,-2.9183,-2.9098,-2.8912,-2.8568,-2.7991,-2.7278,0.0,0.0,0.0,0.0,0.0,0.0,0.0,0.0,0.0,0.0,-1.7048,-1.6949,-1.7053,-1.74,-1.7656,-1.8339,-1.9509,-2.1355,-2.2287,-2.1878,-2.4627,-2.6874,-2.8115,-2.916,-2.9807,-2.9988,-3.0328,-3.0621,-3.0772,-3.0964,-3.1097,-3.1221,-3.1531,-3.1972,-3.2541,-3.2704,-3.3096,-3.3977,-3.4325,-3.4772,-3.5568,-3.6203,-3.6812,-3.747,-3.7268,-3.7162,-3.7622,-3.78,-3.7865,-3.7761,-3.7373,-3.6834,-3.6516,-3.6009,-3.5547,-3.5314,-3.5896,-3.6588,-3.7119,-3.8011,-3.8996,-3.9615,-4.011,-4.0397,-4.0518,-4.063,-4.0705,-4.0751,-4.0835,-4.0849,-2.2165,-2.2149,-2.2238,-2.2122,-2.1838,-2.2135,-2.2613,-2.3155,-2.3145,0.0,0.0,-2.5029,-2.5721,-2.6721,-2.7276,-2.7864,-2.8511,-2.9159,-2.9694,-3.0124,-3.0146,-3.0253,-3.0396,-3.0702,-3.0953,-3.1206,-3.1697,-3.2054,-3.2336,-3.2336,-3.236,-3.2344,-3.2119,-3.1927,-3.179,-3.1654,-3.0927,-2.9634,-2.9663,-2.964,-2.9461,-2.9242,-2.9014,-2.8768,-2.7976,-2.7003,-2.5897,-2.4785,-2.3714,-2.282,-2.1999,-2.1457,-2.116,-2.1054,-2.0998,-2.0921,-2.0921,-2.1031,-2.1308,-2.1418,-2.1791,-2.2506,-2.4861,-2.6187,-2.5967,-2.7155,-2.8341,-2.9409,-3.0355,-3.0968,-3.1091,-3.1561,-3.1923,-3.2122,-3.2373,-3.2465,-3.259,-3.2985,-3.3298,-3.3591,-3.396,-3.4513,-3.4965,-3.5453,-3.6156,-3.6919,-3.7417,-3.8209,-3.8785,-3.8331,-3.7979,-3.8406,-3.8564,-3.841,-3.8231,-3.7956,-3.7696,-3.7355,-3.6987,-3.6712,-3.6661,-3.7047,-3.7492,-3.7589,-3.854,-3.9199,-3.9604,-3.9929,-4.0196,-4.0302,-4.0386,-4.0415,-4.0419,-4.0514,-4.0557,-2.2101,-2.239,-2.2784,-2.3047,-2.3162,-2.3498,-2.3974,-2.4486,-2.4406,-2.4731,-2.5398,-2.5672,-2.6092,-2.6721,-2.7316,-2.7934,-2.8535,-2.9082,-2.9515,-2.9853,-2.9995,-2.9979,-2.9897,-2.9911,-3.047,-3.1486,-3.1622,-3.2345,-3.3521,-3.3618,-3.3684,-3.3687,-3.3087,-3.2369,-3.1694,-3.1606,-3.1486,-3.1246,-3.127,-3.1166,-3.0882,-3.0314,-2.9831,-2.945,-2.859,-2.7705,-2.6913,-2.6287,-2.5866,-2.5698,-2.5253,-2.4936,-2.4851,-2.4887,-2.4874,-2.4585,-2.4572,-2.4873,-2.5549,-2.5631,-2.6189,-2.7385,-2.834,-2.8636,-2.8166,-2.9337,-3.0295,-3.0746,-3.157,-3.2204,-3.2326,-3.2403,-3.2535,-3.2734,-3.2816,-3.2908,-3.3107,-3.324,-3.3503,-3.3949,-3.4275,-3.4715,-3.5247,-3.5727,-3.6287,-3.6993,-3.7614,-3.8305,-3.9199,-3.9675,-3.9824,-4.0008,-4.0051,-3.9989,-3.966,-3.907,-3.8523,-3.8195,-3.7387,-3.6864,-3.6722,-3.7194,-3.7625,-3.77,-3.8563,-3.9203,-3.9483,-3.9796,-3.9989,-4.0042,-4.0101,-4.011,-4.0053,-4.0005,-3.9995,-2.1932,-2.242,-2.2818,-2.321,-2.3552,-2.4028,-2.452,-2.5033,-2.5132,-2.5425,-2.5825,-2.6015,-2.6472,-2.7089,-2.7524,-2.8024,-2.8566,-2.9006,-2.9357,-2.9611,-2.9643,-2.9627,-2.9659,-2.9779,-3.0442,-3.1445,-3.1826,-3.2602,-3.3691,-3.3848,-3.3924,-3.3984,-3.3693,-3.3329,-3.3014,-3.2957,-3.2892,-3.2842,-3.2088,-3.1606,-3.1412,-3.111,-3.0839,-3.0579,-2.9946,-2.9412,-2.9002,-2.8495,-2.8162,-2.8099,-2.7751,-2.7527,-2.7498,-2.7638,-2.7675,-2.7619,-2.7619,-2.7846,-2.8259,-2.8318,-2.8735,-2.9773,-3.0262,-3.0603,-3.0824,-3.0949,-3.125,-3.182,-3.2381,-3.2718,-3.2757,-3.2742,-3.28,-3.2885,-3.3032,-3.315,-3.3309,-3.3581,-3.3848,-3.4176,-3.4497,-3.4906,-3.5333,-3.581,-3.6329,-3.6939,-3.7737,-3.8659,-3.9433,-3.9873,-4.0215,-4.0353,-4.0407,-4.0325,-4.0196,-3.9744,-3.9266,-3.8999,-3.8445,-3.7997,-3.7849,-3.8074,-3.814,-3.8284,-3.8738,-3.9105,-3.9298,-3.9533,-3.967,-3.9721,-3.9679,-3.9656,-3.9621,-3.9531,-3.9585,-2.1651,-2.2316,-2.2726,-2.3271,-2.391,-2.4436,-2.4921,-2.5384,-2.5715,-2.6056,-2.6326,-2.639,-2.6826,-2.7437,-2.774,-2.8113,-2.8549,-2.8842,-2.9082,-2.9289,-2.9175,-2.9175,-2.9275,-2.9564,-3.0256,-3.1225,-3.1776,-3.2584,-3.3588,-3.3797,-3.3899,-3.3949,-3.405,-3.4101,-3.4101,-3.4101,-3.405,-3.3885,-3.2853,-3.2233,-3.2087,-3.1983,-3.1838,-3.1644,-3.1173,-3.087,-3.0663,-3.0248,-3.0022,-3.0031,-2.9798,-2.9735,-2.9886,-3.0036,-3.0228,-3.0392,-3.0449,-3.046,-3.0582,-3.0586,-3.0857,-3.1443,-3.1747,-3.2178,-3.2786,-3.2335,-3.2135,-3.2741,-3.2958,-3.3085,-3.3096,-3.3096,-3.3085,-3.3085,-3.3256,-3.3398,-3.3477,-3.3822,-3.4176,-3.4349,-3.4667,-3.5024,-3.5379,-3.5788,-3.635,-3.7057,-3.7993,-3.8824,-3.9338,-3.9762,-4.0108,-4.0281,-4.0353,-4.0335,-4.0205,-4.001,-3.9766,-3.9551,-3.9229,-3.8925,-3.881,-3.874,-3.8735,-3.8737,-3.8855,-3.9007,-3.9115,-3.9237,-3.9311,-3.9318,-3.9221,-3.9146,-3.9146,-3.9165,-3.9251,-2.1178,-2.1982,-2.269,-2.3586,-2.4717,-2.5032,-2.5453,-2.5894,-2.6258,-2.6669,-2.7037,-2.693,-2.7137,-2.756,-2.784,-2.8152,-2.842,-2.8518,-2.8622,-2.8756,-2.8646,-2.8598,-2.8598,-2.8683,-2.947,-3.0742,-3.1061,-3.2054,-3.361,-3.371,-3.3848,-3.405,-3.4101,-3.4101,-3.4101,-3.4101,-3.4101,-3.4075,-3.3946,-3.3756,-3.3496,-3.3035,-3.2648,-3.2392,-3.1746,-3.1218,-3.1099,-3.0779,-3.0938,-3.1341,-3.1387,-3.1623,-3.218,-3.2477,-3.2707,-3.2898,-3.2924,-3.2956,-3.294,-3.2956,-3.2929,-3.3077,-3.3166,-3.3287,-3.3435,-3.3449,-3.3417,-3.3461,-3.3555,-3.3565,-3.3633,-3.3591,-3.3565,-3.3539,-3.3607,-3.3694,-3.3797,-3.4016,-3.4201,-3.4448,-3.4715,-3.5041,-3.5356,-3.5761,-3.6392,-3.7247,-3.7928,-3.8573,-3.9146,-3.9556,-3.9933,-4.0157,-4.0272,-4.028,-4.0187,-4.0029,-3.9804,-3.9532,-3.9272,-3.9073,-3.8921,-3.881,-3.8704,-3.8762,-3.8833,-3.8925,-3.8921,-3.8993,-3.897,-3.8851,-3.8748,-3.8676,-3.8691,-3.8815,-3.9013,-2.2009,-2.2837,-2.3682,-2.4848,-2.6122,-2.6675,-2.6849,-2.6897,-2.7302,-2.752,-2.7529,-2.7458,-2.761,-2.7965,-2.8063,-2.8162,-2.8259,-2.8204,-2.8149,-2.8076,-2.7889,-2.7824,-2.7913,-2.7984,-2.8859,-3.0392,-3.0658,-3.1648,-3.3124,-3.3581,-3.3822,-3.4075,-3.4101,-3.4101,-3.4101,-3.4101,-3.4101,-3.4101,-3.4101,-3.4034,-3.3917,-3.3742,-3.3571,-3.3423,-3.3149,-3.2948,-3.2848,-3.2773,-3.2866,-3.3061,-3.3103,-3.3204,-3.3449,-3.3601,-3.3694,-3.3745,-3.3694,-3.3633,-3.3555,-3.3555,-3.3529,-3.3555,-3.3581,-3.3658,-3.3736,-3.3771,-3.3822,-3.3848,-3.3761,-3.3694,-3.3694,-3.3694,-3.3694,-3.3694,-3.3787,-3.3848,-3.3899,-3.4117,-3.43,-3.4472,-3.4739,-3.4994,-3.5258,-3.5783,-3.6512,-3.7302,-3.7912,-3.8423,-3.8905,-3.9338,-3.9705,-3.9956,-4.0089,-4.0148,-4.0158,-4.0038,-3.9804,-3.9539,-3.9272,-3.9059,-3.8921,-3.8795,-3.8704,-3.8716,-3.8747,-3.8747,-3.8683,-3.8634,-3.8585,-3.8428,-3.8316,-3.8269,-3.83,-3.8588,-3.8902,-2.2526,-2.3447,-2.4576,-2.5847,-2.7097,-2.7675,-2.7826,-2.7777,-2.8215,-2.8248,-2.795,-2.7986,-2.7966,-2.7949,-2.8024,-2.8048,-2.7934,-2.769,-2.7449,-2.7221,-2.699,-2.6938,-2.7067,-2.7251,-2.8284,-2.9855,-3.0402,-3.1493,-3.3114,-3.3581,-3.3873,-3.4075,-3.4101,-3.4101,-3.4101,-3.4101,-3.4101,-3.4101,-3.4101,-3.4101,-3.4101,-3.4101,-3.4101,-3.4101,-3.4101,-3.4101,-3.4101,-3.4101,-3.4101,-3.4101,-3.4101,-3.4101,-3.4101,-3.4101,-3.4101,-3.4101,-3.4,-3.3924,-3.3822,-3.3797,-3.3822,-3.3848,-3.3848,-3.3848,-3.3975,-3.3975,-3.4,-3.405,-3.3924,-3.3838,-3.3797,-3.3822,-3.3813,-3.3838,-3.3899,-3.3949,-3.3924,-3.4126,-3.4325,-3.4399,-3.4594,-3.4899,-3.5182,-3.5778,-3.6489,-3.7132,-3.7721,-3.8232,-3.8655,-3.9105,-3.9489,-3.9739,-3.9859,-3.9986,-4.0098,-3.9986,-3.977,-3.9545,-3.9259,-3.9059,-3.8906,-3.8795,-3.8658,-3.8655,-3.8624,-3.853,-3.8382,-3.8302,-3.8203,-3.8035,-3.7966,-3.8019,-3.8204,-3.8525,-3.8884,-2.2228,-2.3416,-2.5052,-2.6281,-2.7067,-2.76,-2.7909,-2.8226,-2.8789,-2.8766,-2.8322,-2.8427,-2.8121,-2.7382,-2.7604,-2.761,-2.7297,-2.6872,-2.6465,-2.6038,-2.5905,-2.5877,-2.5903,-2.6481,-2.7745,-2.9522,-3.0158,-3.1477,-3.3543,-3.3813,-3.3965,-3.4101,-3.4075,-3.4101,-3.4101,-3.4101,-3.4101,-3.4101,-3.4101,-3.4101,-3.4101,-3.4101,-3.4101,-3.4101,-3.4101,-3.4101,-3.4101,-3.4101,-3.4101,-3.4101,-3.4101,-3.4101,-3.4101,-3.4101,-3.4101,-3.4101,-3.4075,-3.4101,-3.4075,-3.4075,-3.4126,-3.4226,-3.4151,-3.4151,-3.4267,-3.4176,-3.4126,-3.4101,-3.4075,-3.4075,-3.405,-3.4025,-3.405,-3.405,-3.4075,-3.4025,-3.3924,-3.4101,-3.4201,-3.4201,-3.4374,-3.4732,-3.5222,-3.5689,-3.6241,-3.6838,-3.7394,-3.7914,-3.8394,-3.8855,-3.9205,-3.9464,-3.9635,-3.9792,-3.9943,-3.987,-3.9682,-3.9439,-3.9224,-3.9064,-3.8921,-3.8792,-3.867,-3.8544,-3.8481,-3.8352,-3.8103,-3.7932,-3.781,-3.7721,-3.7739,-3.7827,-3.8171,-3.8551,-3.8933,-2.378,-2.5351,-2.6568,-2.7496,-2.8191,-2.8808,-2.896,-2.8797,-2.9247,-2.9096,-2.8638,-2.8401,-2.7885,-2.7221,-2.6716,-2.6407,-2.6174,-2.5645,-2.5107,-2.4587,-2.4513,-2.4584,-2.4714,-2.5481,-2.6939,-2.8754,-2.9666,-3.1191,-3.3245,-3.3581,-3.3745,-3.3949,-3.3975,-3.4,-3.4075,-3.4101,-3.4101,-3.4101,-3.4101,-3.4101,-3.4075,-3.4101,-3.4101,-3.4101,-3.4101,-3.4101,-3.4101,-3.4101,-3.4101,-3.4101,-3.4101,-3.4101,-3.4101,-3.4101,-3.4101,-3.4101,-3.4101,-3.4151,-3.4226,-3.4226,-3.4275,-3.4399,-3.4374,-3.4374,-3.4399,-3.4374,-3.4325,-3.425,-3.4226,-3.4201,-3.4126,-3.4101,-3.4101,-3.4075,-3.4025,-3.3949,-3.3899,-3.3924,-3.3924,-3.4,-3.4242,-3.457,-3.5041,-3.5441,-3.5893,-3.6533,-3.7054,-3.7578,-3.8085,-3.8538,-3.8898,-3.9178,-3.9363,-3.9489,-3.9587,-3.9658,-3.9575,-3.9356,-3.9147,-3.8993,-3.8866,-3.878,-3.8655,-3.8512,-3.8417,-3.8188,-3.7932,-3.7577,-3.7466,-3.7429,-3.7449,-3.7827,-3.817,-3.8624,-3.9059,-2.4969,-2.6414,-2.7276,-2.8072,-2.8785,-2.9279,-2.9352,-2.9199,-2.9529,-2.9275,-2.8641,-2.8191,-2.7476,-2.6497,-2.5518,-2.4696,-2.4236,-2.4005,-2.3592,-2.2957,-2.2965,-2.3127,-2.3551,-2.4556,-2.617,-2.8225,-2.9871,-3.1563,-3.3087,-3.3398,-3.3565,-3.3822,-3.3822,-3.3873,-3.3949,-3.3975,-3.3975,-3.3975,-3.3949,-3.3975,-3.3975,-3.3958,-3.4,-3.4025,-3.4025,-3.405,-3.4101,-3.4101,-3.4101,-3.4101,-3.4101,-3.4101,-3.4101,-3.4101,-3.4101,-3.4101,-3.4101,-3.4176,-3.4275,-3.43,-3.4374,-3.4546,-3.4521,-3.4513,-3.4546,-3.4521,-3.4448,-3.4399,-3.4374,-3.43,-3.4201,-3.4176,-3.4126,-3.405,-3.3949,-3.3848,-3.3771,-3.371,-3.371,-3.3787,-3.3949,-3.43,-3.4756,-3.5071,-3.556,-3.6216,-3.6701,-3.7226,-3.7809,-3.8234,-3.86,-3.8927,-3.9137,-3.9245,-3.9324,-3.9401,-3.9414,-3.9224,-3.9106,-3.8968,-3.8837,-3.875,-3.8624,-3.8496,-3.8285,-3.8053,-3.7721,-3.7318,-3.7185,-3.7127,-3.7431,-3.7827,-3.8281,-3.8778,-3.9208,-2.5534,-2.6449,-2.7066,-2.7802,-2.8509,-2.8753,-2.9012,-2.9226,-2.9552,-2.9108,-2.8283,-2.7903,-2.6765,-2.5249,-2.4099,-2.2777,-2.1655,-2.191,-2.1842,-2.1264,-2.1264,-2.1569,-2.2113,-2.3613,-2.5588,-2.7892,-3.0693,-3.2431,-3.3187,-3.3256,-3.3424,-3.3642,-3.3684,-3.371,-3.371,-3.3745,-3.372,-3.372,-3.3745,-3.372,-3.3694,-3.372,-3.3813,-3.3873,-3.3899,-3.3975,-3.4075,-3.4101,-3.4101,-3.4101,-3.4101,-3.4101,-3.4101,-3.4101,-3.4101,-3.4101,-3.4101,-3.4151,-3.43,-3.4325,-3.4448,-3.4618,-3.4611,-3.4611,-3.4683,-3.4594,-3.4521,-3.4497,-3.4497,-3.4431,-3.4325,-3.4275,-3.4159,-3.3949,-3.3899,-3.3771,-3.3565,-3.3503,-3.3503,-3.3545,-3.3633,-3.3873,-3.425,-3.4618,-3.5125,-3.5754,-3.6312,-3.6878,-3.7541,-3.7983,-3.8366,-3.8713,-3.895,-3.9073,-3.9115,-3.9175,-3.9142,-3.912,-3.905,-3.8954,-3.8837,-3.8735,-3.8578,-3.8417,-3.8052,-3.7792,-3.7393,-3.705,-3.7089,-3.7127,-3.7486,-3.7879,-3.8423,-3.8919,-3.9377,-2.5791,-2.6449,-2.7053,-2.7503,-2.7888,-2.8287,-2.8514,-2.8597,-2.8739,-2.8424,-2.7843,-2.7137,-2.5824,-2.4169,-2.2764,-2.1136,-1.9485,-1.9083,-1.9006,-1.933,-1.9454,-1.9901,-2.0765,-2.2353,-2.5011,-2.8255,-3.0644,-3.2035,-3.2617,-3.2893,-3.3176,-3.3372,-3.3424,-3.3529,-3.3684,-3.3694,-3.3694,-3.3694,-3.3694,-3.3694,-3.3694,-3.3694,-3.372,-3.3745,-3.3771,-3.3822,-3.3949,-3.405,-3.4101,-3.4101,-3.4101,-3.4101,-3.4101,-3.4101,-3.4101,-3.4101,-3.4101,-3.4201,-3.4399,-3.4448,-3.4546,-3.478,-3.4787,-3.4804,-3.4828,-3.4804,-3.4732,-3.4643,-3.4618,-3.4546,-3.4349,-3.43,-3.4176,-3.3924,-3.3806,-3.3658,-3.3372,-3.3203,-3.315,-3.3203,-3.3256,-3.345,-3.3822,-3.4176,-3.465,-3.5322,-3.5885,-3.6519,-3.715,-3.7685,-3.8103,-3.8462,-3.8695,-3.895,-3.9036,-3.912,-3.9147,-3.912,-3.9036,-3.8954,-3.8837,-3.8701,-3.8546,-3.8254,-3.788,-3.7504,-3.7106,-3.693,-3.6952,-3.7186,-3.7505,-3.8013,-3.8594,-3.9073,-3.952,-2.5908,-2.6414,-2.6884,-2.7201,-2.7436,-2.7809,-2.7908,-2.7894,-2.7829,-2.7451,-2.6693,-2.581,-2.4437,-2.2689,-2.1112,-1.9447,-1.7798,-1.6792,-1.6584,-1.7169,-1.7926,-1.8621,-1.9836,-2.2298,-2.5122,-2.8246,-3.0233,-3.145,-3.2203,-3.2566,-3.2854,-3.3096,-3.315,-3.3229,-3.3414,-3.3398,-3.3424,-3.3477,-3.3477,-3.3503,-3.3555,-3.3555,-3.3581,-3.3633,-3.3633,-3.371,-3.3822,-3.3949,-3.405,-3.4075,-3.4101,-3.4101,-3.4101,-3.4101,-3.4101,-3.4101,-3.4101,-3.4226,-3.4431,-3.4497,-3.4618,-3.4851,-3.4899,-3.4899,-3.4899,-3.4899,-3.4851,-3.4804,-3.478,-3.4683,-3.4423,-3.4374,-3.4226,-3.3864,-3.3694,-3.3435,-3.3081,-3.2827,-3.2718,-3.2757,-3.2812,-3.3011,-3.3314,-3.3694,-3.4143,-3.4793,-3.5442,-3.6143,-3.6801,-3.7394,-3.7844,-3.8269,-3.8637,-3.8833,-3.8979,-3.9064,-3.9147,-3.9106,-3.905,-3.8954,-3.8837,-3.8719,-3.858,-3.8122,-3.7739,-3.7337,-3.695,-3.6871,-3.6891,-3.7207,-3.7542,-3.8079,-3.8621,-3.9168,-3.9691,-2.5955,-2.6414,-2.6611,-2.693,-2.7235,-2.7281,-2.7255,-2.7162,-2.696,-2.6274,-2.5157,-2.4207,-2.2737,-2.0929,-1.9344,-1.7799,-1.6325,-1.5385,-1.4939,-1.5335,-1.6392,-1.7786,-1.9541,-2.2719,-2.5536,-2.7881,-2.9468,-3.0734,-3.1779,-3.2176,-3.2523,-3.2843,-3.2854,-3.2912,-3.2978,-3.2924,-3.3032,-3.3123,-3.3112,-3.3176,-3.3293,-3.3309,-3.3346,-3.3477,-3.3503,-3.3555,-3.3684,-3.3822,-3.3975,-3.4075,-3.4101,-3.4101,-3.4101,-3.4101,-3.4101,-3.4101,-3.4101,-3.425,-3.4448,-3.4521,-3.4635,-3.4875,-3.4899,-3.4899,-3.4899,-3.4899,-3.4899,-3.4899,-3.4899,-3.478,-3.4546,-3.4472,-3.4226,-3.3771,-3.3471,-3.3102,-3.2535,-3.2425,-3.2358,-3.2274,-3.233,-3.2508,-3.2803,-3.3193,-3.3697,-3.4325,-3.5005,-3.5742,-3.6501,-3.7113,-3.7667,-3.8118,-3.8544,-3.8803,-3.8964,-3.9166,-3.9234,-3.9221,-3.9138,-3.8964,-3.8777,-3.8624,-3.8354,-3.7916,-3.7558,-3.7164,-3.693,-3.6831,-3.6913,-3.7243,-3.7649,-3.8145,-3.873,-3.9354,-4.009,-2.6211,-2.6487,-2.6611,-2.6748,-2.6863,-2.685,-2.6782,-2.6552,-2.6151,-2.5276,-2.4097,-2.2955,-2.1359,-1.9437,-1.7874,-1.6456,-1.5248,-1.4379,-1.4143,-1.4386,-1.5164,-1.7232,-1.964,-2.2218,-2.4786,-2.705,-2.8684,-3.0104,-3.119,-3.168,-3.2092,-3.2523,-3.2523,-3.2664,-3.2843,-3.2885,-3.2912,-3.2951,-3.2951,-3.2989,-3.3123,-3.315,-3.3214,-3.3319,-3.3361,-3.344,-3.3555,-3.3771,-3.3975,-3.4075,-3.4101,-3.4101,-3.4101,-3.4101,-3.4101,-3.4101,-3.4201,-3.4341,-3.4472,-3.4594,-3.4732,-3.4875,-3.4899,-3.4899,-3.4899,-3.4899,-3.4899,-3.4899,-3.4899,-3.4787,-3.457,-3.4472,-3.4151,-3.3513,-3.3102,-3.2753,-3.2453,-3.2219,-3.2094,-3.2081,-3.2094,-3.2247,-3.248,-3.2803,-3.3256,-3.3926,-3.4649,-3.5397,-3.6151,-3.6882,-3.745,-3.8,-3.8449,-3.8743,-3.9011,-3.9207,-3.9333,-3.9315,-3.9207,-3.9021,-3.8728,-3.8417,-3.8002,-3.7521,-3.7279,-3.695,-3.6849,-3.6768,-3.7011,-3.73,-3.7773,-3.8298,-3.9112,-3.9833,-4.0582,-2.6383,-2.6602,-2.6624,-2.6624,-2.6636,-2.6533,-2.6349,-2.5978,-2.537,-2.4301,-2.2999,-2.1683,-1.9945,-1.7914,-1.6486,-1.5262,-1.4188,-1.3646,-1.3646,-1.411,-1.5282,-1.7289,-1.9736,-2.1823,-2.3978,-2.6214,-2.7893,-2.932,-3.048,-3.119,-3.1724,-3.2035,-3.2191,-3.2345,-3.2471,-3.2582,-3.2636,-3.2676,-3.2746,-3.2854,-3.2989,-3.3032,-3.3096,-3.3176,-3.3245,-3.3309,-3.3503,-3.371,-3.3899,-3.405,-3.4101,-3.4101,-3.4101,-3.4101,-3.4101,-3.4101,-3.4226,-3.4349,-3.4497,-3.4618,-3.4756,-3.4875,-3.4899,-3.4899,-3.4899,-3.4899,-3.4899,-3.4899,-3.4899,-3.4787,-3.4594,-3.4399,-3.3949,-3.3382,-3.2834,-3.2453,-3.2259,-3.2053,-3.1868,-3.1826,-3.1855,-3.1983,-3.215,-3.2453,-3.2911,-3.3543,-3.4276,-3.5081,-3.589,-3.6586,-3.7283,-3.7844,-3.8382,-3.8728,-3.9021,-3.9261,-3.9399,-3.9399,-3.9175,-3.8989,-3.8634,-3.8254,-3.7845,-3.7411,-3.7087,-3.6851,-3.6829,-3.6888,-3.7108,-3.7468,-3.7913,-3.8483,-3.9239,-4.027,-4.1036,-2.6649,-2.676,-2.6602,-2.6521,-2.6499,-2.6292,-2.598,-2.5418,-2.4683,-2.3452,-2.1903,-2.043,-1.8744,-1.6624,-1.5553,-1.4314,-1.3483,-1.3355,-1.3652,-1.4482,-1.5876,-1.7857,-1.9575,-2.1384,-2.3402,-2.546,-2.7046,-2.8547,-2.9782,-3.0733,-3.1336,-3.161,-3.184,-3.1953,-3.2066,-3.215,-3.2231,-3.2413,-3.2496,-3.2648,-3.28,-3.287,-3.2935,-3.3112,-3.3165,-3.3282,-3.3477,-3.3658,-3.3822,-3.4059,-3.4075,-3.4101,-3.4101,-3.4101,-3.4126,-3.4151,-3.4275,-3.4399,-3.4521,-3.4667,-3.4763,-3.4875,-3.4899,-3.4899,-3.4899,-3.4899,-3.4899,-3.4899,-3.4899,-3.4811,-3.4618,-3.4226,-3.3771,-3.3303,-3.2753,-3.233,-3.2038,-3.187,-3.1698,-3.1539,-3.1655,-3.1771,-3.1898,-3.215,-3.2574,-3.3177,-3.3935,-3.4769,-3.5604,-3.6361,-3.7076,-3.7756,-3.8267,-3.8725,-3.9021,-3.9301,-3.9412,-3.9451,-3.9147,-3.8888,-3.8525,-3.8136,-3.7757,-3.7411,-3.7087,-3.6968,-3.6968,-3.7085,-3.7298,-3.7613,-3.8068,-3.8593,-3.9225,-4.0504,-4.1467,-2.7567,-2.7167,-2.6977,-2.6807,-2.6611,-2.6302,-2.5804,-2.5087,-2.4166,-2.2883,-2.1229,-1.9748,-1.8132,-1.6394,-1.5269,-1.4321,-1.373,-1.3688,-1.4068,-1.5228,-1.6706,-1.8109,-1.9532,-2.1143,-2.294,-2.4886,-2.6578,-2.7992,-2.916,-3.0086,-3.0732,-3.1146,-3.1437,-3.1682,-3.1768,-3.1925,-3.2122,-3.2234,-3.2274,-3.2413,-3.2621,-3.2676,-3.2784,-3.3043,-3.3176,-3.3335,-3.3477,-3.3633,-3.3787,-3.3924,-3.4025,-3.4075,-3.4101,-3.4101,-3.4151,-3.425,-3.4374,-3.4497,-3.4643,-3.4763,-3.4859,-3.4899,-3.4923,-3.4899,-3.4899,-3.4923,-3.4923,-3.4899,-3.4899,-3.4828,-3.457,-3.4176,-3.3745,-3.3303,-3.2769,-3.2302,-3.2025,-3.1786,-3.1628,-3.1584,-3.1614,-3.1656,-3.1829,-3.219,-3.2576,-3.2958,-3.3662,-3.4464,-3.5322,-3.6199,-3.6884,-3.7632,-3.8216,-3.8676,-3.896,-3.9271,-3.9517,-3.9642,-3.9394,-3.932,-3.8933,-3.8409,-3.8205,-3.7698,-3.7087,-3.7066,-3.7163,-3.7297,-3.7503,-3.7862,-3.8347,-3.9056,-3.9884,-4.0996,-4.1863,-2.8352,-2.7902,-2.7385,-2.6964,-2.6679,-2.6324,-2.5721,-2.4898,-2.3911,-2.2521,-2.0884,-1.9316,-1.7738,-1.6221,-1.5193,-1.444,-1.4272,-1.4601,-1.5345,-1.6453,-1.7715,-1.8917,-2.009,-2.1458,-2.3073,-2.4625,-2.6168,-2.7531,-2.8698,-2.9594,-3.0328,-3.0792,-3.1058,-3.1307,-3.1509,-3.1682,-3.1824,-3.2025,-3.215,-3.2274,-3.2401,-3.2496,-3.266,-3.2962,-3.3123,-3.3282,-3.3414,-3.3529,-3.3668,-3.3797,-3.3949,-3.405,-3.4101,-3.4101,-3.4176,-3.43,-3.4423,-3.4546,-3.4691,-3.4828,-3.4899,-3.4899,-3.4947,-3.4994,-3.5018,-3.5058,-3.5105,-3.5105,-3.5081,-3.4947,-3.4618,-3.425,-3.3822,-3.3303,-3.2769,-3.2453,-3.2405,-3.2178,-3.1974,-3.2034,-3.2332,-3.2497,-3.2645,-3.2711,-3.3148,-3.3768,-3.4091,-3.4895,-3.5546,-3.6353,-3.6796,-3.7451,-3.8132,-3.8615,-3.8902,-3.9245,-3.9632,-3.981,-3.9895,-4.0,-4.0015,-3.9415,-3.8834,-3.8238,-3.7656,-3.7372,-3.7448,-3.7576,-3.8026,-3.8594,-3.9219,-3.981,-4.0592,-4.1651,-4.2342,-2.9193,-2.8777,-2.793,-2.7245,-2.676,-2.6405,-2.5756,-2.4909,-2.379,-2.2397,-2.073,-1.9079,-1.7658,-1.6296,-1.536,-1.481,-1.5095,-1.5827,-1.6813,-1.7747,-1.8908,-1.9972,-2.1096,-2.2312,-2.3463,-2.4552,-2.5973,-2.7278,-2.8325,-2.9247,-2.9901,-3.0387,-3.0687,-3.0925,-3.1161,-3.1365,-3.1567,-3.1754,-3.1953,-3.2107,-3.2219,-3.233,-3.2523,-3.2854,-3.3058,-3.3176,-3.3335,-3.345,-3.3555,-3.371,-3.3838,-3.3965,-3.405,-3.4101,-3.4176,-3.4325,-3.4431,-3.457,-3.4739,-3.4875,-3.4947,-3.4923,-3.5041,-3.5128,-3.5152,-3.5198,-3.5261,-3.5245,-3.5222,-3.5065,-3.4732,-3.4325,-3.3873,-3.3377,-3.2831,-3.2744,-3.2875,-3.284,-3.2886,-3.2721,-3.2901,-3.3111,-3.3321,-3.3487,-3.4056,-3.4541,-3.4845,-3.5286,-3.5997,-3.6519,-3.7018,-3.7481,-3.8144,-3.8652,-3.8946,-3.9668,-4.0005,-4.0276,-4.0411,-4.073,-4.0941,-4.0492,-3.981,-3.8923,-3.8384,-3.8205,-3.8259,-3.86,-3.9047,-3.9541,-3.9995,-4.0544,-4.1366,-4.2318,-4.2837,-3.0733,-2.9555,-2.8973,-2.8116,-2.7206,-2.6598,-2.5826,-2.4898,-2.3801,-2.2446,-2.0932,-1.9286,-1.7917,-1.6829,-1.594,-1.5801,-1.6329,-1.722,-1.8109,-1.9058,-2.0168,-2.1221,-2.2021,-2.3069,-2.4107,-2.4992,-2.6102,-2.7136,-2.798,-2.8853,-2.9498,-2.9837,-3.031,-3.0642,-3.0791,-3.1014,-3.1292,-3.1509,-3.1638,-3.1838,-3.2107,-3.2247,-3.2456,-3.2843,-3.3032,-3.3165,-3.3309,-3.3424,-3.3565,-3.371,-3.3822,-3.3949,-3.405,-3.4075,-3.4226,-3.4399,-3.4472,-3.4594,-3.4811,-3.497,-3.5065,-3.5105,-3.5198,-3.5251,-3.5268,-3.5291,-3.5354,-3.5308,-3.5222,-3.5034,-3.4732,-3.4349,-3.3873,-3.3441,-3.3236,-3.313,-3.3179,-3.3502,-3.383,-3.3574,-3.3589,-3.3695,-3.3967,-3.4242,-3.4622,-3.5067,-3.5426,-3.5974,-3.6704,-3.7074,-3.7397,-3.7824,-3.8258,-3.8661,-3.8989,-3.9914,-4.0573,-4.0909,-4.1176,-4.1576,-4.1657,-4.1452,-4.0854,-4.042,-3.9839,-3.9517,-3.9606,-3.9694,-3.9872,-4.0206,-4.0718,-4.1229,-4.2084,-4.29,-4.323,-3.1567,-3.0353,-2.947,-2.8418,-2.732,-2.6667,-2.5861,-2.4909,-2.379,-2.2483,-2.0981,-1.9502,-1.8287,-1.7359,-1.6558,-1.6722,-1.7561,-1.8439,-1.9353,-2.0333,-2.1336,-2.222,-2.2894,-2.3888,-2.4612,-2.5441,-2.6346,-2.7162,-2.7822,-2.856,-2.9135,-2.9588,-2.9974,-3.0189,-3.0447,-3.0702,-3.0999,-3.1204,-3.1422,-3.1638,-3.1981,-3.2122,-3.2456,-3.2773,-3.2978,-3.3112,-3.3282,-3.3361,-3.345,-3.3607,-3.372,-3.3864,-3.3975,-3.4101,-3.4226,-3.4448,-3.4497,-3.4643,-3.4923,-3.5065,-3.5111,-3.5222,-3.5348,-3.54,-3.5406,-3.5452,-3.5519,-3.5446,-3.5291,-3.5105,-3.4828,-3.4374,-3.3873,-3.3456,-3.3391,-3.3422,-3.3605,-3.415,-3.431,-3.4397,-3.4562,-3.4668,-3.4715,-3.495,-3.5171,-3.5547,-3.5985,-3.6653,-3.7421,-3.754,-3.7719,-3.8236,-3.8671,-3.9175,-3.9649,-4.0504,-4.1264,-4.1609,-4.2043,-4.2445,-4.2763,-4.2725,-4.2761,-4.2591,-4.1946,-4.0982,-4.0555,-4.0513,-4.0693,-4.0928,-4.148,-4.2071,-4.2758,-4.3352,-4.3592,-3.2255,-3.1134,-2.9943,-2.8691,-2.7496,-2.6671,-2.5826,-2.4898,-2.3801,-2.2521,-2.1173,-1.9816,-1.8767,-1.7974,-1.7578,-1.7651,-1.8647,-1.952,-2.0537,-2.1538,-2.2408,-2.3202,-2.39,-2.4599,-2.5241,-2.5781,-2.6543,-2.7242,-2.7689,-2.8346,-2.8908,-2.9243,-2.9446,-2.9727,-3.0113,-3.0371,-3.0628,-3.094,-3.1263,-3.1524,-3.1826,-3.2081,-3.2401,-3.2816,-3.2885,-3.3005,-3.3203,-3.3293,-3.3372,-3.3503,-3.3633,-3.372,-3.3899,-3.4,-3.4201,-3.4423,-3.4521,-3.4739,-3.4994,-3.5198,-3.5251,-3.5383,-3.5637,-3.5756,-3.592,-3.6078,-3.6084,-3.5864,-3.5664,-3.5349,-3.4925,-3.4399,-3.397,-3.3699,-3.364,-3.3746,-3.4136,-3.4572,-3.497,-3.5145,-3.5444,-3.5417,-3.5254,-3.5465,-3.5628,-3.6106,-3.6558,-3.7406,-3.8025,-3.7784,-3.7987,-3.8601,-3.9155,-3.977,-4.0425,-4.1252,-4.1959,-4.2473,-4.302,-4.3511,-4.3922,-4.4213,-4.4126,-4.3824,-4.3256,-4.2338,-4.1833,-4.1442,-4.1719,-4.2029,-4.239,-4.277,-4.3223,-4.3459,-4.3652,-3.3041,-3.1881,-3.0726,-2.9495,-2.8126,-2.6791,-2.5769,-2.4909,-2.3801,-2.2718,-2.1614,-2.0401,-1.9441,-1.8825,-1.8585,-1.8926,-1.9747,-2.0576,-2.1548,-2.2617,-2.3471,-2.4166,-2.4802,-2.5465,-2.5758,-2.6119,-2.6658,-2.7113,-2.7503,-2.8164,-2.8587,-2.8798,-2.9149,-2.9477,-2.9777,-3.0048,-3.0325,-3.0642,-3.0984,-3.1409,-3.1868,-3.2137,-3.2345,-3.2621,-3.2816,-3.2978,-3.3123,-3.3214,-3.3346,-3.3477,-3.3503,-3.3642,-3.3848,-3.3899,-3.4126,-3.4399,-3.4618,-3.4804,-3.5105,-3.5314,-3.5536,-3.5785,-3.6214,-3.6564,-3.6808,-3.7083,-3.7168,-3.6671,-3.6427,-3.595,-3.528,-3.4554,-3.4227,-3.4205,-3.4265,-3.4434,-3.4759,-3.4888,-3.5267,-3.5372,-3.5507,-3.5522,-3.5449,-3.5769,-3.6086,-3.6631,-3.7219,-3.8064,-3.8669,-3.8557,-3.8531,-3.9186,-3.9948,-4.0586,-4.1268,-4.2084,-4.27,-4.3283,-4.3786,-4.439,-4.4606,-4.4783,-4.4764,-4.4416,-4.3936,-4.3492,-4.2887,-4.2651,-4.2836,-4.2883,-4.2921,-4.316,-4.3471,-4.3634,-4.3667,-3.2429,-3.1688,-3.0905,-2.9583,-2.804,-2.6909,-2.5849,-2.479,-2.3875,-2.2879,-2.1939,-2.0924,-2.0001,-1.9341,-1.9253,-1.9766,-2.0537,-2.1339,-2.2279,-2.3357,-2.4164,-2.4754,-2.5206,-2.5758,-2.6144,-2.6305,-2.6602,-2.6909,-2.7315,-2.7769,-2.8216,-2.8463,-2.8775,-2.9178,-2.96,-2.9771,-3.0213,-3.0702,-3.1115,-3.1482,-3.1883,-3.2066,-3.2247,-3.2578,-3.2788,-3.2951,-3.3112,-3.3229,-3.3293,-3.3398,-3.345,-3.3555,-3.3668,-3.3822,-3.405,-3.4333,-3.4683,-3.4923,-3.5182,-3.5412,-3.5814,-3.6305,-3.678,-3.7081,-3.75,-3.7827,-3.7943,-3.7466,-3.7184,-3.6718,-3.615,-3.5649,-3.5224,-3.5027,-3.4932,-3.4938,-3.5109,-3.5294,-3.5459,-3.5507,-3.5587,-3.5604,-3.5701,-3.599,-3.6352,-3.6814,-3.7515,-3.8377,-3.9218,-3.9756,-3.9758,-3.9914,-4.0739,-4.1517,-4.2208,-4.2954,-4.3521,-4.4035,-4.4272,-4.4757,-4.4981,-4.5103,-4.5026,-4.4931,-4.4562,-4.4151,-4.3772,-4.354,-4.3412,-4.3336,-4.3309,-4.3437,-4.3565,-4.3531,-4.3583,-3.1409,-3.1007,-3.0586,-2.948,-2.7919,-2.6867,-2.5756,-2.4725,-2.381,-2.2964,-2.2149,-2.13,-2.0401,-1.9814,-1.9981,-2.0547,-2.1278,-2.2067,-2.3086,-2.3996,-2.4735,-2.5278,-2.5729,-2.6175,-2.627,-2.627,-2.6568,-2.6807,-2.7011,-2.7369,-2.7789,-2.8183,-2.8608,-2.9021,-2.9528,-2.9979,-3.0443,-3.1135,-3.1204,-3.1482,-3.1855,-3.1968,-3.2178,-3.2484,-3.2746,-3.2951,-3.3058,-3.3229,-3.3293,-3.3319,-3.3372,-3.345,-3.3555,-3.3668,-3.3949,-3.4259,-3.4618,-3.5018,-3.5381,-3.5808,-3.6327,-3.695,-3.7684,-3.8185,-3.8612,-3.8639,-3.8421,-3.8251,-3.799,-3.7636,-3.7144,-3.6561,-3.6174,-3.5808,-3.5607,-3.5489,-3.5431,-3.5542,-3.5636,-3.5701,-3.575,-3.5846,-3.5958,-3.6227,-3.6585,-3.6981,-3.7761,-3.8712,-3.9563,-4.0441,-4.0709,-4.0727,-4.1265,-4.2121,-4.2915,-4.362,-4.4223,-4.4581,-4.4814,-4.5026,-4.517,-4.5213,-4.5192,-4.5091,-4.4986,-4.4707,-4.425,-4.4087,-4.3913,-4.3724,-4.3588,-4.351,-4.3549,-4.3513,-4.3496,-3.0177,-2.9795,-2.9627,-2.9149,-2.835,-2.6403,-2.537,-2.4725,-2.3598,-2.2885,-2.2289,-2.154,-2.0848,-2.0469,-2.0683,-2.132,-2.2103,-2.2942,-2.4046,-2.5097,-2.5865,-2.6118,-2.6369,-2.6439,-2.6502,-2.6452,-2.6589,-2.6692,-2.6833,-2.7139,-2.7455,-2.7842,-2.8452,-2.902,-2.9753,-3.0488,-3.0944,-3.1411,-3.1381,-3.1455,-3.1771,-3.194,-3.2094,-3.2318,-3.2664,-3.2912,-3.2924,-3.3176,-3.3319,-3.3319,-3.3293,-3.3346,-3.3424,-3.3529,-3.3771,-3.4134,-3.4546,-3.5027,-3.562,-3.6361,-3.7035,-3.7737,-3.8596,-3.9495,-3.9732,-4.0024,-3.9746,-3.9029,-3.8772,-3.8288,-3.7644,-3.699,-3.6939,-3.6654,-3.6403,-3.6146,-3.5968,-3.5747,-3.5831,-3.5894,-3.5958,-3.6068,-3.6305,-3.6569,-3.6952,-3.7356,-3.8448,-3.9389,-4.0035,-4.0805,-4.1245,-4.1504,-4.1885,-4.2581,-4.3457,-4.4023,-4.4258,-4.4527,-4.4796,-4.5014,-4.5233,-4.5265,-4.5277,-4.5224,-4.5114,-4.4943,-4.4783,-4.4472,-4.4185,-4.4005,-4.383,-4.3718,-4.3617,-4.36,-4.3566,-2.8924,-2.8493,-2.8091,-2.7879,-2.7784,-2.6558,-2.5459,-2.4555,-2.3867,-2.315,-2.2375,-2.1797,-2.131,-2.1111,-2.1478,-2.1942,-2.249,-2.357,-2.4659,-2.5578,-2.6233,-2.6614,-2.6746,-2.6868,-2.6839,-2.6587,-2.658,-2.6624,-2.6739,-2.71,-2.7567,-2.8027,-2.8523,-2.9334,-3.015,-3.1116,-3.1603,-3.1618,-3.1659,-3.1797,-3.1856,-3.1968,-3.2122,-3.2484,-3.28,-3.3043,-3.315,-3.3335,-3.3398,-3.3372,-3.3256,-3.3256,-3.3282,-3.3361,-3.3581,-3.3958,-3.4399,-3.5184,-3.6151,-3.6928,-3.7641,-3.8979,-3.9928,-4.0513,-4.0461,-4.0412,-4.0186,-3.9807,-3.9514,-3.9034,-3.8761,-3.8338,-3.8074,-3.7649,-3.7229,-3.6867,-3.6553,-3.629,-3.6085,-3.6148,-3.6226,-3.632,-3.6585,-3.6892,-3.7328,-3.7812,-3.8956,-4.0,-4.0625,-4.1209,-4.1672,-4.2062,-4.2414,-4.2751,-4.3575,-4.3923,-4.4199,-4.4458,-4.4732,-4.4955,-4.517,-4.5328,-4.5348,-4.5307,-4.5235,-4.5084,-4.4919,-4.47,-4.4458,-4.4199,-4.3974,-4.3818,-4.3753,-4.3701,-4.3684,-2.7851,-2.7366,-2.6805,-2.6787,-2.6936,-2.6348,-2.5537,-2.4731,-2.4354,-2.3706,-2.2816,-2.2541,-2.2118,-2.1919,-2.2215,-2.2732,-2.3247,-2.418,-2.5193,-2.6088,-2.6804,-2.7123,-2.725,-2.7293,-2.7304,-2.6851,-2.6738,-2.6845,-2.6952,-2.7306,-2.7908,-2.8408,-2.8794,-2.9662,-3.0583,-3.1668,-3.2193,-3.2153,-3.1982,-3.2154,-3.2172,-3.2157,-3.2206,-3.2578,-3.292,-3.3176,-3.3309,-3.3424,-3.3513,-3.3424,-3.3309,-3.315,-3.3165,-3.3245,-3.3414,-3.3771,-3.4365,-3.5286,-3.6466,-3.7825,-3.8753,-4.0082,-4.062,-4.0832,-4.068,-4.051,-4.0294,-4.0087,-3.9961,-3.9858,-3.9616,-3.9186,-3.8809,-3.8332,-3.7796,-3.7411,-3.704,-3.6754,-3.6523,-3.6414,-3.6538,-3.6662,-3.7163,-3.7533,-3.8153,-3.8657,-3.9543,-4.0518,-4.1206,-4.1747,-4.2215,-4.2568,-4.2868,-4.3194,-4.3545,-4.3761,-4.3968,-4.4244,-4.4527,-4.4833,-4.5038,-4.5213,-4.5359,-4.5348,-4.5297,-4.5203,-4.5095,-4.4948,-4.4655,-4.4345,-4.414,-4.3961,-4.3881,-4.3849,-4.3849,-2.6981,-2.6487,-2.6093,-2.603,-2.6168,-2.5524,-2.5304,-2.5245,-2.4897,-2.436,-2.3766,-2.3798,-2.3306,-2.2735,-2.2977,-2.346,-2.4069,-2.4862,-2.5864,-2.6932,-2.7513,-2.7861,-2.8024,-2.8051,-2.7808,-2.7417,-2.7304,-2.7304,-2.7304,-2.7614,-2.8286,-2.9173,-2.9704,-3.0286,-3.0811,-3.1785,-3.2633,-3.3148,-3.259,-3.2631,-3.258,-3.2571,-3.2598,-3.2687,-3.3091,-3.3372,-3.3466,-3.3633,-3.3668,-3.3529,-3.3319,-3.3176,-3.3027,-3.3043,-3.324,-3.3633,-3.4241,-3.5289,-3.6732,-3.892,-4.0234,-4.0838,-4.1111,-4.1001,-4.0752,-4.0558,-4.0395,-4.0188,-4.0096,-4.0037,-3.9875,-3.9668,-3.9362,-3.8969,-3.8439,-3.8014,-3.7637,-3.7238,-3.7028,-3.6907,-3.6937,-3.7071,-3.7663,-3.8266,-3.8957,-3.962,-4.0302,-4.1007,-4.1631,-4.2103,-4.2492,-4.267,-4.2956,-4.3105,-4.332,-4.3545,-4.3761,-4.4014,-4.4302,-4.4595,-4.487,-4.5068,-4.5192,-4.5317,-4.5359,-4.5279,-4.5288,-4.5256,-4.4941,-4.4636,-4.4312,-4.4124,-4.4067,-4.402,-4.4051,-2.6415,-2.5832,-2.5527,-2.5411,-2.5337,-2.5418,-2.545,-2.5282,-2.5081,-2.4787,-2.4442,-2.427,-2.3823,-2.3484,-2.3646,-2.4104,-2.4571,-2.5681,-2.6707,-2.7539,-2.8115,-2.837,-2.8521,-2.855,-2.8311,-2.7959,-2.7821,-2.7833,-2.7846,-2.8156,-2.8742,-2.9584,-3.0695,-3.1563,-3.2129,-3.2863,-3.3503,-3.3703,-3.3637,-3.3607,-3.3233,-3.3211,-3.3196,-3.3094,-3.3546,-3.3812,-3.3854,-3.405,-3.3918,-3.3712,-3.3461,-3.3096,-3.2912,-3.2874,-3.3009,-3.353,-3.4237,-3.6133,-3.8082,-4.0071,-4.0969,-4.1202,-4.1186,-4.1001,-4.0655,-4.0534,-4.0387,-4.0288,-4.0238,-4.0188,-4.013,-4.0104,-3.9858,-3.952,-3.9061,-3.8689,-3.8298,-3.787,-3.7565,-3.7478,-3.7462,-3.7653,-3.8116,-3.859,-3.9269,-3.9995,-4.0635,-4.1146,-4.1736,-4.2184,-4.257,-4.2609,-4.2765,-4.2919,-4.3087,-4.3214,-4.3389,-4.3627,-4.3949,-4.4312,-4.4576,-4.4827,-4.5061,-4.5194,-4.53,-4.538,-4.54,-4.539,-4.5199,-4.4927,-4.4656,-4.4426,-4.435,-4.4321,-4.4354,-2.6373,-2.5633,-2.5496,-2.5338,-2.5158,-2.5422,-2.5605,-2.575,-2.587,-2.5656,-2.5158,-2.4847,-2.4403,-2.4142,-2.423,-2.4639,-2.4993,-2.5978,-2.6958,-2.781,-2.8502,-2.8768,-2.8919,-2.9038,-2.885,-2.8536,-2.8386,-2.8386,-2.8496,-2.8935,-2.9599,-3.0501,-3.1585,-3.2379,-3.3052,-3.3642,-3.4167,-3.4369,-3.4551,-3.4562,-3.4351,-3.4307,-3.4258,-3.4344,-3.4579,-3.4807,-3.4762,-3.4626,-3.4422,-3.4082,-3.3588,-3.3173,-3.299,-3.3017,-3.3224,-3.3904,-3.5404,-3.7227,-3.9082,-4.0406,-4.1007,-4.1157,-4.1186,-4.0977,-4.068,-4.0583,-4.0461,-4.0379,-4.0404,-4.0453,-4.0453,-4.0453,-4.0296,-3.9927,-3.967,-3.9295,-3.8909,-3.8467,-3.8128,-3.8046,-3.7934,-3.8221,-3.846,-3.898,-3.9497,-4.0195,-4.089,-4.1363,-4.1819,-4.2225,-4.253,-4.253,-4.255,-4.265,-4.2729,-4.2825,-4.2995,-4.3231,-4.3559,-4.3899,-4.425,-4.4484,-4.4789,-4.5109,-4.527,-4.541,-4.5521,-4.5493,-4.5371,-4.5253,-4.5082,-4.4862,-4.468,-4.4646,-4.4646,-2.6704,-2.5979,-2.5895,-2.5759,-2.5569,-2.5706,-2.6144,-2.6899,-2.7284,-2.6783,-2.5833,-2.5785,-2.5274,-2.4667,-2.4798,-2.5168,-2.5619,-2.6299,-2.7121,-2.7862,-2.8593,-2.8993,-2.9369,-2.9564,-2.934,-2.9101,-2.8988,-2.9138,-2.9238,-2.9638,-3.0392,-3.1356,-3.2263,-3.308,-3.3707,-3.4356,-3.4798,-3.513,-3.5366,-3.543,-3.5412,-3.5433,-3.5352,-3.5443,-3.5674,-3.5892,-3.5857,-3.5639,-3.524,-3.4738,-3.4033,-3.3713,-3.3566,-3.3686,-3.419,-3.5228,-3.6896,-3.817,-3.9353,-4.0463,-4.0913,-4.1076,-4.1134,-4.0971,-4.0799,-4.0697,-4.0607,-4.0583,-4.0631,-4.0704,-4.0769,-4.071,-4.0669,-4.0434,-4.0195,-3.9868,-3.9497,-3.9098,-3.8756,-3.8539,-3.8375,-3.8488,-3.8683,-3.9115,-3.9497,-4.012,-4.0795,-4.1363,-4.1801,-4.224,-4.2465,-4.2389,-4.2389,-4.2371,-4.2414,-4.2416,-4.2536,-4.2733,-4.3014,-4.3352,-4.3733,-4.4184,-4.4559,-4.4903,-4.5232,-4.5447,-4.564,-4.568,-4.5613,-4.5482,-4.5352,-4.5178,-4.496,-4.4919,-4.4926,-2.7133,-2.6332,-2.6332,-2.6279,-2.6321,-2.6921,-2.7249,-2.7371,-2.747,-2.7042,-2.6286,-2.6162,-2.5585,-2.5025,-2.5406,-2.5766,-2.631,-2.6928,-2.7701,-2.8355,-2.8843,-2.9248,-2.9585,-2.9767,-2.9756,-2.977,-2.9758,-2.991,-3.0288,-3.0574,-3.1153,-3.216,-3.2889,-3.3624,-3.4375,-3.5136,-3.5494,-3.5834,-3.6045,-3.6241,-3.6317,-3.6276,-3.6222,-3.6258,-3.6432,-3.6598,-3.6442,-3.622,-3.584,-3.5325,-3.4885,-3.4501,-3.4002,-3.4212,-3.4723,-3.6049,-3.7313,-3.8434,-3.9531,-4.0349,-4.0817,-4.0935,-4.1059,-4.0959,-4.0817,-4.0776,-4.0823,-4.083,-4.0971,-4.1088,-4.1249,-4.1255,-4.1169,-4.1007,-4.0754,-4.0441,-4.0062,-3.9644,-3.9269,-3.8843,-3.8683,-3.856,-3.8738,-3.898,-3.9375,-4.002,-4.0635,-4.1232,-4.1758,-4.216,-4.2364,-4.2305,-4.2184,-4.2166,-4.2002,-4.1963,-4.2068,-4.2236,-4.2501,-4.2866,-4.3334,-4.3796,-4.429,-4.4787,-4.5274,-4.5588,-4.5812,-4.5793,-4.5764,-4.5704,-4.5571,-4.5419,-4.5279,-4.5216,-4.5181,-2.7474,-2.704,-2.694,-2.6981,-2.7232,-2.7606,-2.7763,-2.7659,-2.754,-2.7021,-2.6193,-2.5909,-2.5495,-2.5055,-2.5304,-2.5758,-2.6325,-2.7053,-2.7866,-2.8593,-2.9079,-2.9495,-2.9779,-2.9934,-3.0113,-3.0241,-3.0419,-3.0532,-3.1086,-3.1703,-3.2273,-3.2654,-3.3395,-3.4051,-3.4758,-3.5444,-3.6005,-3.6336,-3.66,-3.6883,-3.6975,-3.7033,-3.7014,-3.7019,-3.714,-3.714,-3.7037,-3.6869,-3.6403,-3.5932,-3.5543,-3.5021,-3.4813,-3.515,-3.5841,-3.7071,-3.7838,-3.8748,-3.9613,-4.0145,-4.0534,-4.0776,-4.0959,-4.0982,-4.0989,-4.0995,-4.1065,-4.114,-4.1368,-4.1569,-4.174,-4.1849,-4.1701,-4.1591,-4.1305,-4.1007,-4.058,-4.0129,-3.967,-3.9202,-3.892,-3.8672,-3.8711,-3.8925,-3.9259,-3.9817,-4.0392,-4.0943,-4.148,-4.1956,-4.2142,-4.2184,-4.2037,-4.1931,-4.174,-4.1569,-4.1613,-4.1744,-4.1941,-4.2322,-4.2885,-4.3537,-4.4109,-4.4754,-4.5399,-4.565,-4.5841,-4.5893,-4.588,-4.5819,-4.5769,-4.5648,-4.554,-4.5448,-4.541,-2.7702,-2.7686,-2.7556,-2.7634,-2.8017,-2.7759,-2.7736,-2.7829,-2.7447,-2.6732,-2.582,-2.5499,-2.5234,-2.4993,-2.5206,-2.5678,-2.6335,-2.7129,-2.7939,-2.8821,-2.9275,-2.9677,-2.996,-3.0152,-3.0432,-3.0622,-3.0874,-3.1161,-3.1776,-3.2381,-3.2917,-3.3129,-3.3791,-3.4486,-3.5085,-3.5671,-3.6195,-3.6554,-3.6892,-3.7191,-3.7592,-3.7857,-3.8078,-3.8294,-3.8358,-3.8342,-3.8184,-3.7753,-3.711,-3.646,-3.5946,-3.5445,-3.5746,-3.618,-3.7002,-3.77,-3.8277,-3.8918,-3.9506,-3.9995,-4.0362,-4.0607,-4.0823,-4.1088,-4.1209,-4.1323,-4.1396,-4.1622,-4.1878,-4.2151,-4.2315,-4.2333,-4.2234,-4.2044,-4.1766,-4.1373,-4.0913,-4.036,-3.9738,-3.9282,-3.8849,-3.8644,-3.8504,-3.8694,-3.8952,-3.9549,-4.012,-4.0642,-4.1151,-4.1679,-4.1913,-4.1998,-4.1866,-4.167,-4.1431,-4.1272,-4.1175,-4.1267,-4.1453,-4.1835,-4.2402,-4.3174,-4.3987,-4.4699,-4.5409,-4.5646,-4.5822,-4.588,-4.5918,-4.5893,-4.5854,-4.5859,-4.5788,-4.5668,-4.5593,-2.7603,-2.7348,-2.7284,-2.7348,-2.7462,-2.7541,-2.7335,-2.7029,-2.6907,-2.6491,-2.585,-2.5718,-2.5478,-2.5153,-2.5429,-2.5874,-2.6459,-2.7126,-2.7948,-2.8702,-2.9311,-2.9781,-3.0152,-3.0457,-3.0811,-3.1099,-3.1384,-3.185,-3.2453,-3.3129,-3.3667,-3.3874,-3.4399,-3.4935,-3.5379,-3.5926,-3.6274,-3.6662,-3.6907,-3.7255,-3.7612,-3.773,-3.7892,-3.802,-3.8062,-3.8062,-3.7908,-3.7642,-3.7311,-3.6938,-3.6608,-3.6412,-3.6414,-3.6752,-3.7221,-3.7841,-3.8444,-3.8996,-3.9468,-3.991,-4.0288,-4.0655,-4.0989,-4.1346,-4.1596,-4.1683,-4.186,-4.2154,-4.2418,-4.2692,-4.2863,-4.2825,-4.2729,-4.2474,-4.2187,-4.1723,-4.1214,-4.0507,-3.9816,-3.9319,-3.8832,-3.8572,-3.842,-3.846,-3.8722,-3.9179,-3.9765,-4.0302,-4.0819,-4.13,-4.1631,-4.1697,-4.1587,-4.1426,-4.1198,-4.1012,-4.0918,-4.0918,-4.1111,-4.149,-4.199,-4.3049,-4.4094,-4.4761,-4.5343,-4.5599,-4.5801,-4.588,-4.5912,-4.5893,-4.5925,-4.5906,-4.5899,-4.5814,-4.5749,-2.7629,-2.757,-2.7397,-2.7409,-2.7434,-2.7348,-2.7088,-2.6817,-2.657,-2.6258,-2.5877,-2.5778,-2.5583,-2.5298,-2.5617,-2.606,-2.6513,-2.7088,-2.7814,-2.8611,-2.9265,-2.9859,-3.0291,-3.0798,-3.1334,-3.174,-3.2381,-3.2917,-3.3269,-3.3805,-3.4312,-3.4448,-3.485,-3.5246,-3.5653,-3.5941,-3.6289,-3.6616,-3.677,-3.7044,-3.7375,-3.7464,-3.7537,-3.7655,-3.7669,-3.7639,-3.7551,-3.7373,-3.7224,-3.7028,-3.6722,-3.6814,-3.689,-3.7207,-3.7608,-3.8116,-3.8611,-3.911,-3.9468,-3.9884,-4.0288,-4.068,-4.1088,-4.1463,-4.2011,-4.2157,-4.2503,-4.2772,-4.2903,-4.3142,-4.3321,-4.3321,-4.316,-4.292,-4.2514,-4.2023,-4.1351,-4.0597,-3.9952,-3.9382,-3.8914,-3.85,-3.8319,-3.8119,-3.8444,-3.8882,-3.948,-4.002,-4.0507,-4.0971,-4.1272,-4.1431,-4.134,-4.1175,-4.0959,-4.0776,-4.068,-4.0728,-4.083,-4.1543,-4.2286,-4.3294,-4.4243,-4.4804,-4.5275,-4.5566,-4.5725,-4.5848,-4.5899,-4.5905,-4.5929,-4.5947,-4.5941,-4.5923,-4.5848,-2.7645,-2.7871,-2.7543,-2.7458,-2.7555,-2.7156,-2.692,-2.6868,-2.6447,-2.6144,-2.5994,-2.5854,-2.5594,-2.55,-2.556,-2.5958,-2.6418,-2.6917,-2.7655,-2.84,-2.9038,-2.9833,-3.0556,-3.1198,-3.1886,-3.2654,-3.3409,-3.3722,-3.3977,-3.4501,-3.4817,-3.4865,-3.5063,-3.5326,-3.5554,-3.5782,-3.6085,-3.6352,-3.6507,-3.6677,-3.6877,-3.7059,-3.7194,-3.7314,-3.7298,-3.7238,-3.7148,-3.7043,-3.6922,-3.6861,-3.6785,-3.6998,-3.7284,-3.7594,-3.8001,-3.8444,-3.8832,-3.9202,-3.9563,-3.9884,-4.0313,-4.071,-4.1186,-4.1687,-4.2241,-4.2697,-4.3069,-4.3318,-4.3457,-4.3577,-4.373,-4.3732,-4.3546,-4.3196,-4.2731,-4.219,-4.1418,-4.0669,-4.0087,-3.947,-3.898,-3.8528,-3.8234,-3.8004,-3.8189,-3.8634,-3.9152,-3.9705,-4.0229,-4.0621,-4.0971,-4.1134,-4.1175,-4.0965,-4.0793,-4.0697,-4.0607,-4.068,-4.0907,-4.1725,-4.2528,-4.3398,-4.4157,-4.4781,-4.5194,-4.5498,-4.5688,-4.5808,-4.5854,-4.5886,-4.5935,-4.5978,-4.5964,-4.5941,-4.5893,-2.7169,-2.6974,-2.687,-2.6813,-2.6744,-2.6631,-2.6581,-2.6568,-2.6493,-2.643,-2.6349,-2.6314,-2.6141,-2.5793,-2.584,-2.607,-2.6334,-2.677,-2.7426,-2.8185,-2.9007,-2.9842,-3.083,-3.18,-3.2596,-3.3444,-3.4216,-3.4587,-3.4687,-3.5067,-3.5326,-3.5326,-3.5341,-3.5522,-3.5653,-3.5799,-3.5894,-3.6085,-3.6163,-3.6273,-3.6398,-3.6616,-3.6892,-3.6907,-3.6831,-3.6739,-3.6662,-3.6631,-3.6585,-3.6647,-3.6816,-3.715,-3.7522,-3.7902,-3.8274,-3.8639,-3.904,-3.9309,-3.9625,-3.9935,-4.0362,-4.086,-4.1373,-4.1966,-4.2541,-4.3123,-4.3471,-4.3881,-4.3992,-4.4072,-4.417,-4.4033,-4.3807,-4.3231,-4.2732,-4.2092,-4.1373,-4.0819,-4.0262,-3.9601,-3.898,-3.8511,-3.8062,-3.7918,-3.7889,-3.8343,-3.8799,-3.9365,-3.9995,-4.0345,-4.071,-4.0894,-4.1012,-4.0965,-4.0864,-4.0769,-4.0697,-4.0752,-4.1024,-4.1807,-4.2603,-4.3367,-4.4084,-4.4695,-4.5118,-4.5456,-4.5621,-4.5786,-4.5828,-4.5867,-4.5949,-4.5997,-4.5989,-4.5947,-4.588]},{"header":{"parameterUnit":"m.s-1","parameterCategory":1,"la1":31.0,"la2":29.5877,"lo1":-88.7671,"lo2":-86.6584,"dy":0.0162,"dx":0.0185,"nx":115,"ny":88,"refTime":"2024-07-20T00:00:00:Z","depth":0,"parameterNumber":3,"parameterNumberName":"V-component_of_WINDS"},"data":[0.0,0.0,0.0,0.0,0.0,0.0,0.0,0.0,0.0,0.0,0.0,0.0,0.0,0.0,0.0,0.0,0.0,0.0,0.0,0.0,0.0,0.0,0.0,0.0,0.0,0.0,0.0,0.0,0.0,0.0,0.0,0.0,0.0,0.0,0.0,0.0,0.0,0.0,0.0,0.0,0.0,0.0,0.0,0.0,0.0,0.0,0.0,0.0,0.0,0.0,0.0,0.0,0.0,0.0,0.0,0.0,0.0,0.0,0.0,0.0,0.0,0.0,0.0,0.0,0.0,0.0,0.0,0.0,0.0,0.0,0.0,0.0,0.0,0.0,0.0,0.0,0.0,0.0,0.0,0.0,0.0,0.0,0.0,0.0,0.0,0.0,0.0,0.0,0.0,0.0,0.0,0.0,0.0,0.0,0.0,0.0,0.0,0.0,0.0,0.0,0.0,0.0,0.0,0.0,0.0,0.0,0.0,0.0,0.0,0.0,0.0,0.0,0.0,0.0,0.0,0.0,0.0,0.0,0.0,0.0,0.0,0.0,0.0,0.0,0.0,0.0,0.0,0.0,0.0,0.0,0.0,0.0,0.0,0.0,0.0,0.0,0.0,0.0,0.0,0.0,0.0,0.0,0.0,0.0,0.0,0.0,0.0,0.0,0.0,0.0,0.0,0.0,0.0,0.0,0.0,0.0,0.0,0.0,0.0,0.0,0.0,0.0,0.0,0.0,0.0,0.0,0.0,0.0,0.0,0.0,0.0,0.0,0.0,0.0,0.0,0.0,0.0,0.0,0.0,0.0,0.0,0.0,0.0,0.0,0.0,0.0,0.0,0.0,0.0,0.0,0.0,0.0,0.0,0.0,0.0,0.0,0.0,0.0,0.0,0.0,0.0,0.0,0.0,0.0,0.0,0.0,0.0,0.0,0.0,0.0,0.0,0.0,0.0,0.0,0.0,0.0,0.0,0.0,0.0,0.0,0.0,0.0,0.0,0.0,0.0,0.0,0.0,0.0,0.0,0.0,0.0,0.0,0.0,0.0,0.0,0.0,0.0,0.0,0.0,0.0,0.0,0.0,0.0,0.0,0.0,0.0,0.0,0.0,0.0,0.0,0.0,0.0,0.0,0.0,0.0,0.0,0.0,0.0,0.0,0.0,0.0,0.0,0.0,0.0,0.0,0.0,0.0,0.0,0.0,0.0,0.0,0.0,0.0,0.0,0.0,0.0,0.0,0.0,0.0,0.0,0.0,0.0,0.0,0.0,0.0,0.0,0.0,0.0,0.0,0.0,0.0,0.0,0.0,0.0,0.0,0.0,0.0,0.0,0.0,0.0,0.0,0.0,0.0,0.0,0.0,0.0,0.0,0.0,0.0,0.0,0.0,0.0,0.0,0.0,0.0,0.0,0.0,0.0,0.0,0.0,0.0,0.0,0.0,0.0,0.0,0.0,0.0,0.0,0.0,0.0,0.0,0.0,0.0,0.0,0.0,0.0,0.0,0.0,0.0,0.0,0.0,0.0,0.0,0.0,0.0,0.0,0.0,0.0,0.0,0.0,0.0,0.0,0.0,0.0,0.0,0.0,0.0,0.0,0.0,0.0,0.0,0.0,0.0,0.0,0.0,0.0,0.0,0.0,0.0,0.0,0.0,0.0,0.0,0.0,0.0,0.0,0.0,0.0,0.0,0.0,0.0,0.0,0.0,0.0,0.0,0.0,0.0,0.0,0.0,0.0,0.0,0.0,0.0,0.0,0.0,0.0,0.0,0.0,0.0,0.0,0.0,0.0,0.0,0.0,0.0,0.0,0.0,0.0,0.0,0.0,0.0,0.0,0.0,0.0,0.0,0.0,0.0,0.0,0.0,0.0,0.0,0.0,0.0,0.0,0.0,0.0,0.0,0.0,0.0,0.0,0.0,0.0,0.0,0.0,0.0,0.0,0.0,0.0,0.0,0.0,0.0,0.0,0.0,0.0,0.0,0.0,0.0,0.0,0.0,0.0,0.0,0.0,0.0,0.0,0.0,0.0,0.0,0.0,0.0,0.0,0.0,0.0,0.0,0.0,0.0,0.0,0.0,0.0,0.0,0.0,0.0,0.0,0.0,0.0,0.0,0.0,0.0,0.0,0.0,0.0,0.0,0.0,0.0,0.0,0.0,0.0,0.0,0.0,0.0,0.0,0.0,0.0,0.0,0.0,0.0,0.0,0.0,0.0,0.0,0.0,0.0,0.0,0.0,0.0,0.0,0.0,0.0,0.0,0.0,0.0,0.0,0.0,0.0,0.0,0.0,0.0,0.0,0.0,0.0,0.0,0.0,0.0,0.0,0.0,0.0,0.0,0.0,0.0,0.0,0.0,0.0,0.0,0.0,0.0,0.0,0.0,0.0,0.0,0.0,0.0,0.0,0.0,0.0,0.0,0.0,0.0,0.0,0.0,0.0,0.0,0.0,0.0,0.0,0.0,0.0,0.0,0.0,0.0,0.0,0.0,0.0,0.0,0.0,0.0,0.0,0.0,0.0,0.0,0.0,0.0,0.0,0.0,0.0,0.0,0.0,0.0,0.0,0.0,0.0,0.0,0.0,0.0,0.0,0.0,0.0,0.0,0.0,0.0,0.0,0.0,0.0,0.0,0.0,0.0,0.0,0.0,0.0,0.0,0.0,0.0,0.0,0.0,0.0,0.0,0.0,0.0,0.0,0.0,0.0,0.0,0.0,0.0,0.0,0.0,0.0,0.0,0.0,0.0,0.0,0.0,0.0,0.0,0.0,0.0,0.0,0.0,0.0,0.0,0.0,0.0,0.0,0.0,0.0,0.0,0.0,0.0,0.0,0.0,0.0,0.0,0.0,0.0,0.0,0.0,0.0,0.0,0.0,0.0,0.0,0.0,0.0,0.0,0.0,0.0,0.0,0.0,0.0,0.0,0.0,0.0,0.0,0.0,0.0,0.0,0.0,0.0,0.0,0.0,0.0,0.0,0.0,0.0,0.0,0.0,0.0,0.0,0.0,0.0,0.0,0.0,0.0,0.0,0.0,0.0,0.0,0.0,0.0,0.0,0.0,0.0,0.0,0.0,0.0,0.0,0.0,0.0,0.0,0.0,0.0,0.0,0.0,0.0,0.0,0.0,0.0,0.0,0.0,0.0,0.0,0.0,0.0,0.0,0.0,0.0,0.0,0.0,0.0,0.0,0.0,0.0,0.0,0.0,0.0,0.0,0.0,0.0,0.0,0.0,0.0,0.0,0.0,0.0,0.0,0.0,0.0,0.0,0.0,0.0,0.0,0.0,0.0,0.0,0.0,0.0,0.0,0.0,0.0,0.0,0.0,0.0,0.0,0.0,0.0,0.0,0.0,0.0,0.0,0.0,0.0,0.0,0.0,0.0,0.0,0.0,0.0,0.0,0.0,0.0,0.0,0.0,0.0,0.0,0.0,0.0,0.0,0.0,0.0,0.0,0.0,0.0,0.0,0.0,0.0,0.0,0.0,0.0,0.0,0.0,0.0,0.0,0.0,0.0,0.0,0.0,0.0,0.0,0.0,0.0,0.0,0.0,0.0,0.0,0.0,0.0,0.0,0.0,0.0,0.0,0.0,0.0,0.0,0.0,0.0,0.0,0.0,0.0,0.0,0.0,0.0,0.0,0.0,0.0,0.0,0.0,0.0,0.0,0.0,0.0,0.0,0.0,0.0,0.0,0.0,0.0,0.0,0.0,0.0,0.0,0.0,0.0,0.0,0.0,0.0,0.0,0.0,0.0,0.0,0.0,0.0,0.0,0.0,0.0,0.0,0.0,0.0,0.0,0.0,0.0,0.0,0.0,0.0,0.0,0.0,0.0,0.0,0.0,0.0,0.0,0.0,0.0,0.0,0.0,0.0,0.0,0.0,0.0,0.0,0.0,0.0,0.0,0.0,0.0,0.0,0.0,0.0,0.0,0.0,0.0,0.0,0.0,0.0,0.0,0.0,0.0,0.0,0.0,0.0,0.0,0.0,0.0,0.0,0.0,0.0,0.0,0.0,0.0,0.0,0.0,0.0,0.0,0.0,0.0,0.0,0.0,0.0,0.0,0.0,0.0,0.0,0.0,0.0,0.0,0.0,0.0,0.0,0.0,0.0,0.0,0.0,0.0,0.0,0.0,0.0,0.0,0.0,0.0,0.0,0.0,0.0,0.0,0.0,0.0,0.0,0.0,0.0,0.0,0.0,0.0,0.0,0.0,0.0,0.0,0.0,0.0,0.0,0.0,0.0,0.0,0.0,0.0,0.0,0.0,0.0,0.0,0.0,0.0,0.2162,0.0,0.0,0.0,0.0,0.0,0.0,0.0,0.0,0.0,0.0,0.0,0.0,0.0,0.0,0.0,0.0,0.0,0.0,0.0,0.0,0.0,0.0,0.0,0.0,0.0,0.0,0.0,0.0,0.0,0.0,0.0,0.0,0.0,0.0,0.0,0.0,0.0,0.0,0.0,0.0,0.0,0.0,0.0,0.0,0.0,0.0,0.0,0.0,0.0,0.0,0.0,0.0,0.0,0.0,0.0,0.0,0.0,0.0,0.0,0.0,0.0,0.0,0.0,0.0,0.0,0.0,0.0,0.0,0.0,0.0,0.0,0.0,0.0,0.0,0.0,0.0,0.0,0.0,0.0,0.0,0.0,0.0,0.0,0.0,0.0,0.0,0.0,0.0,0.0,0.0,0.0,0.0,0.0,0.0,0.0,0.0,0.0,0.0,0.0,0.0,0.0,0.0,0.0,0.0,0.0,0.0,0.0,0.0,0.0,0.0,0.1687,0.1989,0.2345,0.2455,0.2364,0.0,0.0,0.0,0.0,0.0,0.0,0.0,0.0,0.0,0.0,0.0,0.0,0.0,0.0,0.0,0.0,0.0,0.0,0.0,0.0,0.0,0.0,0.0,0.0,0.0,0.0,0.0,0.0,0.0,0.0,0.0,0.0,0.0,0.0,0.0,0.0,0.0,0.0,0.0,0.0,0.0,0.0,0.0,0.0,0.0,0.0,0.0,0.0,0.0,0.0,0.0,0.0,0.0,0.0,0.0,0.0,0.0,0.0,0.0,0.0,0.0,0.0,0.0,0.0,0.0,0.0,0.0,0.0,0.0,0.0,0.0,0.0,0.0,0.0,0.0,0.0,0.0,0.0,0.0,0.0,0.0,0.0,0.0,0.0,0.0,0.0,0.0,0.0,0.0,0.0,0.0,0.0,0.0,0.0,0.0,0.0,0.0,0.0,0.0,0.0,0.0,0.0,0.0,0.0,0.0,0.0,0.0,0.0,0.0,0.0,0.0,0.0,0.2452,0.2601,0.2494,0.0,0.0,0.0,0.0,0.0,0.0,0.0,0.0,0.0,0.0,0.0,0.0,0.0,0.0,0.0,0.0,0.0,0.0,0.0,0.0,0.0,0.0,0.0,0.0,0.0,0.0,0.0,0.0,0.0,0.0,0.0,0.0,0.0,0.0,0.0,0.0,0.0,0.0,0.0,0.0,0.0,0.0,0.0,0.0,0.0,0.0,0.0,0.0,0.0,0.0,0.0,0.0,0.0,0.0,0.0,0.0,0.0,0.0,0.0,0.0,0.0,0.0,0.0,0.0,0.0,0.0,0.0,0.0,0.0,0.0,0.0,0.0,0.0,0.0,0.0,0.0,0.0,0.0,0.0,0.0,0.0,0.0,0.0,0.0,0.0,0.0,0.0,0.0,0.0,0.0,0.0,0.0,0.0,0.0,0.0,0.0,0.0,0.0,0.0,0.0,0.0,0.0,0.0,0.0,0.0,0.0,0.0,0.0,0.0,0.0,0.1799,0.2188,0.2578,0.0,0.2494,0.0,0.0,0.0,0.0,0.0,0.0,0.0,0.0,0.0,0.0,0.0,0.0,0.0,0.0,0.0,0.0,0.0,0.0,0.0,0.0,0.0,0.0,0.0,0.0,0.0,0.0,0.0,0.0,0.0,0.0,0.0,0.0,0.0,0.0,0.0,0.0,0.0,0.0,0.0,0.0,0.0,0.0,0.0,0.0,0.0,0.0,0.0,0.0,0.0,0.0,0.0,0.0,0.0,0.0,0.0,0.0,0.0,0.0,0.0,0.0,0.0,0.0,0.0,0.0,0.0,0.0,0.0,0.0,0.0,0.0,0.0,0.0,0.0,0.0,0.0,0.0,0.0,0.0,0.0,0.0,0.0,0.0,0.0,0.0,0.0,0.0,0.0,0.0,0.0,0.0,0.0,0.0,0.0,0.0,0.0,0.0,0.0,0.0,0.0,0.0,0.0,0.0,0.0,0.0,0.0,0.0,0.0,0.0,0.0,0.0,0.1695,0.2138,0.266,0.2866,0.0,0.0,0.0,0.0,0.0,0.0,0.0,0.0,0.0,0.0,0.0,0.0,0.0,0.0,0.0,0.0,0.0,0.0,0.0,0.0,0.0,0.0,0.0,0.0,0.0,0.0,0.0,0.0,0.0,0.0,0.0,0.0,0.0,0.0,0.0,0.0,0.0,0.0,0.0,0.0,0.0,0.0,0.0,0.0,0.0,0.0,0.0,0.0,0.0,0.0,0.0,0.0,0.0,0.0,0.0,0.0,0.0,0.0,0.0,0.0,0.0,0.0,0.0,0.0,0.0,0.0,0.0,0.0,0.0,0.0,0.0,0.0,0.0,0.0,0.0,0.0,0.0,0.0,0.0,0.0,0.0,0.0,0.0,0.0,0.0,0.0,0.0,0.0,0.0,0.0,0.0,0.0,0.0,0.0,0.0,0.0,0.0,0.0,0.0,0.0,0.0,0.0,0.0,0.0,0.0,0.0,0.0,0.0,0.0,0.0,0.0945,0.1617,0.2292,0.2773,0.2993,0.2976,0.0,0.0,0.0,0.0,0.0,0.0,0.0,0.0,0.0,0.0,0.0,0.0,0.0,0.0,0.0,0.0,0.0,0.0,0.0,0.0,0.0,0.0,0.0,0.0,0.0,0.0,0.0,0.0,0.0,0.0,0.0,0.0,0.0,0.0,0.0,0.0,0.0,0.0,0.0,0.0,0.0,0.0,0.0,0.0,0.0,0.0,0.0,0.0,0.0,0.0,0.0,0.0,0.0,0.0,0.0,0.0,0.0,0.0,0.0,0.0,0.0,0.0,0.0,0.0,0.0,0.0,0.0,0.0,0.0,0.0,0.0,0.0,0.0,0.0,0.0,0.0,0.0,0.0,0.0,0.0,0.0,0.0,0.0,0.0,0.0,0.0,0.0,0.0,0.0,0.0,0.0,0.0,0.0,0.0,0.0,0.0,0.0,0.0,0.0,0.0,0.0,0.0,0.0,0.0,0.0,0.0,0.0,0.0,-0.0179,0.0673,0.1682,0.2804,0.297,0.3056,0.0,0.0,0.0,0.0,0.0,0.0,0.0,0.0,0.0,0.0,0.0,0.0,0.0,0.0,0.0,0.0,0.0,0.0,0.0,0.0,0.0,0.0,0.0,0.0,0.0,0.0,0.0,0.0,0.0,0.0,0.0,0.0,0.0,0.0,0.0,0.0,0.0,0.0,0.0,0.0,0.0,0.0,0.0,0.0,0.0,0.0,0.0,0.0,0.0,0.0,0.0,0.0,0.0,0.0,0.0,0.0,0.0,0.0,0.0,0.0,0.0,0.0,0.0,0.0,0.0,0.0,0.0,0.0,0.0,0.0,0.0,0.0,0.0,0.0,0.0,0.0,0.0,0.0,0.0,0.0,0.0,0.0,0.0,0.0,0.0,0.0,0.0,0.0,0.0,0.0,0.0,0.0,0.0,0.0,0.0,0.0,0.0,0.0,0.0,0.0,0.0,0.0,0.0,0.0,0.0,0.0,0.0,0.0,0.0,-0.0492,0.0851,0.1994,0.2922,0.3148,0.3284,0.0,0.0,0.0,0.0,0.0,0.0,0.0,0.0,0.0,0.0,0.0,0.0,0.0,0.0,0.0,0.0,0.0,0.0,0.0,0.0,0.0,0.0,0.0,0.0,0.0,0.0,0.0,0.0,0.0,0.0,0.0,0.0,0.0,0.0,0.0,0.0,0.0,0.0,0.0,0.0,0.0,0.0,0.0,0.0,0.0,0.0,0.0,0.0,0.0,0.0,0.0,0.0,0.0,0.0,0.0,0.0,0.0,0.0,0.0,0.0,0.0,0.0,0.0,0.0,0.0,0.0,0.0,0.0,0.0,0.0,0.0,0.0,0.0,0.0,0.0,0.0,0.0,0.0,0.0,0.0,0.0,0.0,0.0,0.0,0.0,0.0,0.0,0.0,0.0,0.0,0.0,0.0,0.0,0.0,0.0,0.0,0.0,0.0,0.0,0.0,0.0,0.0,0.0,0.0,0.0,0.0,0.0,0.0,0.0,-0.0388,0.0,0.2127,0.289,0.3287,0.3488,0.0,0.0,0.0,0.0,0.0,0.0,0.0,0.0,0.0,0.0,0.0,0.0,0.0,0.0,0.0,0.0,0.0,0.0,0.0,0.0,0.0,0.0,0.0,0.0,0.0,0.0,0.0,0.0,0.0,0.0,0.0,0.0,0.0,0.0,0.0,0.0,0.0,0.0,0.0,0.0,0.0,0.0,0.0,0.0,0.0,0.0,0.0,0.0,0.0,0.0,0.0,0.0,0.0,0.0,0.0,0.0,0.0,0.0,0.0,0.0,0.0,0.0,0.0,0.0,0.0,0.0,0.0,0.0,0.0,0.0,0.0,0.0,0.0,0.0,0.0,0.0,0.0,0.0,0.0,0.0,0.0,0.0,0.0,0.0,0.0,0.0,0.0,0.0,0.0,0.0,0.0,0.0,0.0,0.0,0.0,0.0,0.0,0.0,0.0,0.0,0.0,0.0,0.0,0.0,0.0,0.0,0.0,0.0,-0.1729,0.0214,0.114,0.1973,0.2763,0.3304,0.3632,0.0,0.0,0.0,0.0,0.0,0.0,0.0,0.0,0.0,0.0,0.0,0.0,0.0,0.0,0.0,0.0,0.0,0.0,0.0,0.0,0.0,0.0,0.0,0.0,0.0,0.0,0.0,0.0,0.0,0.0,0.0,0.0,0.0,0.0,0.0,0.0,0.0,0.0,0.0,0.0,0.0,0.0,0.0,0.0,0.0,0.0,0.0,0.0,0.0,0.0,0.0,0.0,0.0,0.0,0.0,0.0,0.0,0.0,0.0,0.0,0.0,0.0,0.0,0.0,0.0,0.0,0.0,0.0,0.0,0.0,0.0,0.0,0.0,0.0,0.0,0.0,0.0,0.0,0.0,0.0,0.0,0.0,0.0,0.0,0.0,0.0,0.0,0.0,0.0,0.0,0.0,0.0,0.0,0.0,0.0,0.0,0.0,0.0,0.0,0.0,0.0,0.0,0.0,0.0,0.0,0.0,0.0,0.0,0.0,-0.0099,0.0715,0.163,0.2672,0.3256,0.3566,0.0,0.0,0.0,0.0,0.0,0.0,0.0,0.0,0.0,0.0,0.0,0.0,0.0,0.0,0.0,0.0,0.0,0.0,0.0,0.0,0.0,0.0,0.0,0.0,0.0,0.0,0.0,0.0,0.0,0.0,0.0,0.0,0.0,0.0,0.0,0.0,0.0,0.0,0.0,0.0,0.0,0.0,0.0,0.0,0.0,0.0,0.0,0.0,0.0,0.0,0.0,0.0,0.0,0.0,0.0,0.0,0.0,0.0,0.0,0.0,0.0,0.0,0.0,0.0,0.0,0.0,0.0,0.0,0.0,0.0,0.0,0.0,0.0,0.0,0.0,0.0,0.0,0.0,0.0,0.0,0.0,0.0,0.0,0.0,0.0,0.0,0.0,0.0,0.0,0.0,0.0,0.0,0.0,0.0,0.0,0.0,0.0,0.0,0.0,0.0,0.0,0.0,0.0,0.0,0.0,0.0,0.0,0.0,0.0,-0.0843,0.0307,0.1488,0.2671,0.3268,0.3644,0.3734,0.0,0.0,0.0,0.0,0.0,0.0,0.0,0.0,0.0,0.0,0.0,0.0,0.0,0.0,0.0,0.0,0.0,0.0,0.0,0.0,0.0,0.0,0.0,0.0,0.0,0.0,0.0,0.0,0.0,0.0,0.0,0.0,0.0,0.0,0.0,0.0,0.0,0.0,0.0,0.0,0.0,0.0,0.0,0.0,0.0,0.0,0.0,0.0,0.0,0.0,0.0,0.0,0.0,0.0,0.0,0.0,0.0,0.0,0.0,0.0,0.0,0.0,0.0,0.0,0.0,0.0,0.0,0.0,0.0,0.0,0.0,0.0,0.0,0.0,0.0,0.0,0.0,0.0,0.0,0.0,0.0,0.0,0.0,0.0,0.0,0.0,0.0,0.0,0.0,0.0,0.0,0.0,0.0,0.0,0.0,0.0,0.0,0.0,0.0,0.0,0.0,0.0,0.0,0.0,0.0,0.0,0.0,0.0,-0.1856,-0.008,0.1407,0.2623,0.3306,0.3783,0.0,0.0,0.0,0.0,0.0,0.0,0.0,0.0,0.0,0.0,0.0,0.0,0.0,0.0,0.0,0.0,0.0,0.0,0.0,0.0,0.0,0.0,0.0,0.0,0.0,0.0,0.0,0.0,0.0,0.0,0.0,0.0,0.0,0.0,0.0,0.0,0.0,0.0,0.0,0.0,0.0,0.0,0.0,0.0,0.0,0.0,0.0,0.0,0.0,0.0,0.0,0.0,0.0,0.0,0.0,0.0,0.0,0.0,0.0,0.0,0.0,0.0,0.0,0.0,0.0,0.0,0.0,0.0,0.0,0.0,0.0,0.0,0.0,0.0,0.0,0.0,0.0,0.0,0.0,0.0,0.0,0.0,0.0,0.0,0.0,0.0,0.0,0.0,0.0,0.0,0.0,0.0,0.0,0.0,0.0,0.0,0.0,0.0,0.0,0.0,0.0,0.0,0.0,0.0,0.0,0.0,0.0,0.0,0.0,-0.2335,-0.0743,0.0762,0.2126,0.2971,0.3506,0.0,0.0,0.0,0.0,0.0,0.0,0.0,0.0,0.0,0.0,0.0,0.0,0.0,0.0,0.0,0.0,0.0,0.0,0.0,0.0,0.0,0.0,0.0,0.0,0.0,0.0,0.0,0.0,0.0,0.0,0.0,0.0,0.0,0.0,0.0,0.0,0.0,0.0,0.0,0.0,0.0,0.0,0.0,0.0,0.0,0.0,0.0,0.0,0.0,0.0,0.0,0.0,0.0,0.0,0.0,0.0,0.0,0.0,0.0,0.0,0.0,0.0,0.0,0.0,0.0,0.0,0.0,0.0,0.0,0.0,0.0,0.0,0.0,0.0,0.0,0.0,0.0,0.0,0.0,0.0,0.0,0.0,0.0,0.0,0.0,0.0,0.0,0.0,0.0,0.0,0.0,0.0,0.0,0.0,0.0,0.0,0.0,0.0,0.0,0.0,0.0,0.0,0.0,0.0,0.0,0.0,0.0,0.0,-0.4234,-0.2869,-0.1423,0.0055,0.1519,0.262,0.3336,0.0,0.0,0.0,0.0,0.0,0.0,0.0,0.0,0.0,0.0,0.0,0.0,0.0,0.0,0.0,0.0,0.0,0.0,0.0,0.0,0.0,0.0,0.0,0.0,0.0,0.0,0.0,0.0,0.0,0.0,0.0,0.0,0.0,0.0,0.0,0.0,0.0,0.0,0.0,0.0,0.0,0.0,0.0,0.0,0.0,0.0,0.0,0.0,0.0,0.0,0.0,0.0,0.0,0.0,0.0,0.0,0.0,0.0,0.0,0.0,0.0,0.0,0.0,0.0,0.0,0.0,0.0,0.0,0.0,0.0,0.0,0.0,0.0,0.0,0.0,0.0,0.0,0.0,0.0,0.0,0.0,0.0,0.0,0.0,0.0,0.0,0.0,0.0,0.0,0.0,0.0,0.0,0.0,0.0,0.0,0.0,0.0,0.0,0.0,0.0,0.0,0.0,0.0,0.0,0.0,0.0,0.0,0.0,-0.4661,-0.3395,-0.2093,-0.0698,0.0753,0.2223,0.3151,0.0,0.0,0.0,0.0,0.0,0.0,0.0,0.0,0.0,0.0,0.0,0.0,0.0,0.0,0.0,0.0,0.0,0.0,0.0,0.0,0.0,0.0,0.0,0.0,0.0,0.0,0.0,0.0,0.0,0.0,0.0,0.0,0.0,0.0,0.0,0.0,0.0,0.0,0.0,0.0,0.0,0.0,0.0,0.0,0.0,0.0,0.0,0.0,0.0,0.0,0.0,0.0,0.0,0.0,0.0,0.0,0.0,0.0,0.0,0.0,0.0,0.0,0.0,0.0,0.0,0.0,0.0,0.0,0.0,0.0,0.0,0.0,0.0,0.0,0.0,0.0,0.0,0.0,0.0,0.0,0.0,0.0,0.0,0.0,0.0,0.0,0.0,0.0,0.0,0.0,0.0,0.0,0.0,0.0,0.0,0.0,0.0,0.0,0.0,0.0,0.0,0.0,0.0,0.0,0.0,0.0,0.0,0.0,-0.5341,-0.4036,-0.2702,-0.1367,0.0,0.1581,0.2534,0.0,0.0,0.0,0.0,0.0,0.0,0.0,0.0,0.0,0.0,0.0,0.0,0.0,0.0,0.0,0.0,0.0,0.0,0.0,0.0,0.0,0.0,0.0,0.0,0.0,0.0,0.0,0.0,0.0,0.0,0.0,0.0,0.0,0.0,0.0,0.0,0.0,0.0,0.0,0.0,0.0,0.0,0.0,0.0,0.0,0.0,0.0,0.0,-1.3649,0.0,0.0,0.0,0.0,0.0,0.0,0.0,0.0,0.0,0.0,0.0,0.0,0.0,0.0,0.0,0.0,0.0,0.0,0.0,0.0,0.0,0.0,0.0,0.0,0.0,0.0,0.0,0.0,0.0,0.0,0.0,0.0,0.0,0.0,0.0,0.0,0.0,0.0,0.0,0.0,0.0,0.0,0.0,0.0,0.0,0.0,0.0,0.0,0.0,0.0,0.0,0.0,0.0,0.0,0.0,0.0,0.0,0.0,0.0,-0.6396,-0.5117,-0.3981,-0.2717,-0.1227,0.0114,0.1342,0.0,0.0,0.0,0.0,0.0,0.0,0.0,0.0,0.0,0.0,0.0,0.0,0.0,0.0,0.0,0.0,0.0,0.0,0.0,0.0,0.0,0.0,0.0,0.0,0.0,0.0,0.0,0.0,0.0,0.0,0.0,0.0,0.0,0.0,0.0,0.0,0.0,0.0,0.0,0.0,0.0,0.0,0.0,0.0,0.0,0.0,0.0,0.0,0.0,0.0,0.0,0.0,0.0,0.0,0.0,0.0,0.0,0.0,0.0,0.0,0.0,0.0,0.0,0.0,0.0,0.0,0.0,0.0,0.0,0.0,0.0,0.0,0.0,0.0,0.0,0.0,0.0,0.0,0.0,0.0,0.0,0.0,0.0,0.0,0.0,0.0,0.0,0.0,0.0,0.0,0.0,0.0,0.0,0.0,0.0,0.0,0.0,0.0,0.0,0.0,0.0,0.0,0.0,0.0,0.0,0.0,0.0,-0.7934,-0.7486,-0.6444,-0.5563,-0.4336,-0.2734,-0.1583,-0.0171,0.1584,0.0,0.0,0.0,0.0,0.0,0.0,0.0,0.0,0.0,0.0,0.0,0.0,0.0,0.0,0.0,0.0,0.0,0.0,0.0,0.0,0.0,0.0,0.0,0.0,0.0,0.0,0.0,0.0,0.0,0.0,0.0,0.0,0.0,0.0,0.0,0.0,0.0,0.0,-1.8764,-1.9301,0.0,0.0,0.0,0.0,0.0,0.0,0.0,0.0,-1.6027,0.0,0.0,0.0,0.0,0.0,0.0,0.0,0.0,0.0,0.0,0.0,0.0,0.0,0.0,0.0,0.0,0.0,0.0,0.0,0.0,0.0,0.0,0.0,0.0,0.0,0.0,0.0,0.0,0.0,0.0,0.0,0.0,0.0,0.0,0.0,0.0,0.0,0.0,0.0,0.0,0.0,0.0,0.0,0.0,0.0,0.0,0.0,0.0,0.0,0.0,0.0,0.0,0.0,0.0,0.0,0.0,-0.8443,-0.8467,-0.8278,-0.7856,-0.6933,-0.5823,-0.4497,-0.3044,-0.1667,-0.0305,0.0,0.0,0.0,0.0,0.0,0.0,0.0,0.0,0.0,0.0,0.0,0.0,0.0,0.0,0.0,0.0,0.0,0.0,0.0,0.0,0.0,0.0,0.0,0.0,0.0,0.0,0.0,0.0,0.0,0.0,0.0,0.0,0.0,0.0,0.0,0.0,0.0,0.0,0.0,-1.8717,-1.8753,0.0,0.0,0.0,0.0,0.0,0.0,0.0,0.0,-1.6892,0.0,0.0,0.0,0.0,0.0,0.0,0.0,0.0,0.0,0.0,0.0,0.0,0.0,0.0,0.0,0.0,0.0,0.0,0.0,0.0,0.0,0.0,0.0,0.0,0.0,0.0,0.0,0.0,0.0,0.0,0.0,0.0,0.0,0.0,0.0,0.0,0.0,0.0,0.0,0.0,0.0,0.0,0.0,0.0,0.0,0.0,0.0,0.0,0.0,0.0,0.0,0.0,0.0,0.0,0.0,-0.9314,-0.9681,-0.9744,-0.9528,-0.8902,-0.7823,-0.6328,-0.4803,-0.321,0.0,0.0,0.0,0.0,0.0,0.0,0.0,0.0,0.0,0.0,0.0,0.0,0.0,0.0,0.0,0.0,0.0,0.0,0.0,0.0,0.0,0.0,0.0,0.0,0.0,0.0,0.0,0.0,0.0,0.0,0.0,0.0,0.0,0.0,0.0,0.0,0.0,0.0,0.0,0.0,-1.8507,-1.8468,-1.8078,0.0,0.0,0.0,0.0,0.0,0.0,-1.7018,-1.706,0.0,0.0,0.0,0.0,0.0,0.0,0.0,0.0,0.0,0.0,0.0,0.0,0.0,0.0,0.0,0.0,0.0,0.0,0.0,0.0,0.0,0.0,0.0,0.0,0.0,0.0,0.0,0.0,0.0,0.0,0.0,0.0,0.0,0.0,0.0,0.0,0.0,0.0,0.0,0.0,0.0,0.0,0.0,0.0,0.0,0.0,0.0,0.0,0.0,0.0,0.0,0.0,0.0,0.0,0.0,-1.0185,-1.0938,-1.1347,-1.1367,-1.0954,-0.9977,-0.834,-0.6649,-0.4797,0.0,0.0,0.0,0.0,0.0,0.0,0.0,0.0,0.0,0.0,0.0,0.0,0.0,0.0,0.0,0.0,0.0,0.0,0.0,0.0,0.0,0.0,0.0,0.0,0.0,0.0,0.0,0.0,0.0,0.0,0.0,0.0,0.0,0.0,0.0,0.0,0.0,0.0,0.0,0.0,0.0,-1.8147,-1.7666,-1.7152,0.0,0.0,0.0,0.0,-1.7136,-1.7136,0.0,0.0,0.0,0.0,0.0,0.0,0.0,0.0,0.0,0.0,0.0,0.0,0.0,0.0,0.0,0.0,0.0,0.0,0.0,0.0,0.0,0.0,0.0,0.0,0.0,0.0,0.0,0.0,0.0,0.0,0.0,0.0,0.0,0.0,0.0,0.0,0.0,0.0,0.0,0.0,0.0,0.0,0.0,0.0,0.0,0.0,0.0,0.0,0.0,0.0,0.0,0.0,0.0,0.0,0.0,0.0,-1.0915,-1.1909,-1.2745,-1.3286,-1.2846,-1.1993,-1.0698,-0.8457,-0.635,0.0,0.0,0.0,0.0,0.0,0.0,0.0,0.0,0.0,0.0,0.0,0.0,0.0,0.0,0.0,0.0,0.0,0.0,0.0,0.0,0.0,0.0,0.0,0.0,0.0,0.0,0.0,0.0,0.0,0.0,0.0,0.0,0.0,0.0,0.0,0.0,0.0,0.0,0.0,0.0,0.0,-1.7646,-1.7323,-1.7031,-1.6876,0.0,0.0,-1.7002,-1.7178,-1.6955,0.0,0.0,0.0,0.0,0.0,0.0,0.0,0.0,0.0,0.0,0.0,0.0,0.0,0.0,0.0,0.0,0.0,0.0,0.0,0.0,0.0,0.0,0.0,0.0,0.0,0.0,0.0,0.0,0.0,0.0,0.0,0.0,0.0,0.0,0.0,0.0,0.0,0.0,0.0,0.0,0.0,0.0,0.0,0.0,0.0,0.0,0.0,0.0,0.0,0.0,0.0,0.0,0.0,0.0,0.0,-0.9679,-1.1359,-1.2855,-1.392,-1.452,-1.4551,-1.3823,-1.2341,-1.0353,-0.8245,0.0,0.0,0.0,0.0,0.0,0.0,0.0,0.0,0.0,0.0,0.0,0.0,0.0,0.0,0.0,0.0,0.0,0.0,0.0,0.0,0.0,0.0,0.0,0.0,0.0,0.0,0.0,0.0,0.0,0.0,0.0,0.0,0.0,0.0,0.0,0.0,0.0,0.0,0.0,0.0,0.0,0.0,-1.7656,-1.7514,0.0,0.0,0.0,-1.7833,-1.7785,0.0,0.0,0.0,0.0,0.0,0.0,0.0,0.0,0.0,0.0,0.0,0.0,0.0,0.0,0.0,0.0,0.0,0.0,0.0,0.0,0.0,0.0,0.0,0.0,0.0,0.0,0.0,0.0,0.0,0.0,0.0,0.0,0.0,0.0,0.0,0.0,0.0,0.0,0.0,0.0,0.0,0.0,0.0,0.0,0.0,0.0,0.0,0.0,0.0,0.0,0.0,0.0,0.0,0.0,0.0,0.0,0.0,-1.172,-1.367,-1.4979,-1.5564,-1.5998,-1.5437,-1.3899,-1.2188,0.0,0.0,0.0,0.0,0.0,0.0,0.0,0.0,0.0,0.0,0.0,0.0,0.0,0.0,0.0,0.0,0.0,0.0,0.0,0.0,0.0,0.0,0.0,0.0,0.0,0.0,0.0,-1.6489,0.0,0.0,0.0,0.0,0.0,0.0,0.0,0.0,0.0,0.0,0.0,0.0,0.0,0.0,-1.7394,-1.812,-1.7984,-1.7989,0.0,0.0,-1.813,-1.7891,-1.6824,-1.5549,0.0,0.0,0.0,0.0,0.0,0.0,0.0,0.0,0.0,0.0,0.0,0.0,0.0,0.0,0.0,0.0,0.0,0.0,0.0,0.0,0.0,0.0,0.0,0.0,0.0,0.0,0.0,0.0,0.0,0.0,0.0,0.0,0.0,0.0,0.0,0.0,0.0,0.0,0.0,0.0,0.0,0.0,0.0,0.0,0.0,0.0,0.0,0.0,0.0,0.0,0.0,0.0,0.0,0.0,-1.0267,-1.2072,-1.4284,-1.5842,-1.666,-1.708,-1.6779,-1.5652,-1.3877,-1.1883,0.0,0.0,0.0,0.0,0.0,0.0,0.0,0.0,0.0,0.0,0.0,0.0,0.0,0.0,0.0,0.0,0.0,0.0,0.0,0.0,0.0,0.0,0.0,0.0,0.0,0.0,0.0,0.0,0.0,0.0,0.0,0.0,0.0,0.0,0.0,0.0,0.0,0.0,0.0,0.0,0.0,-1.7737,-1.8452,-1.827,-1.8092,0.0,-1.7761,-1.7339,-1.695,-1.5846,-1.4437,-1.2789,0.0,0.0,0.0,0.0,0.0,0.0,0.0,0.0,0.0,0.0,0.0,0.0,0.0,0.0,0.0,0.0,0.0,0.0,0.0,0.0,0.0,0.0,0.0,0.0,0.0,0.0,0.0,0.0,0.0,0.0,0.0,0.0,0.0,0.0,0.0,0.0,0.0,0.0,0.0,0.0,0.0,0.0,0.0,0.0,0.0,0.0,0.0,0.0,0.0,0.0,0.0,0.0,0.0,-1.0575,-1.2108,-1.4668,-1.6304,-1.6971,-1.7938,-1.7851,-1.6585,-1.53,-1.356,0.0,0.0,0.0,0.0,0.0,0.0,0.0,0.0,0.0,0.0,0.0,0.0,0.0,0.0,0.0,0.0,0.0,0.0,0.0,0.0,0.0,0.0,0.0,0.0,0.0,0.0,0.0,0.0,-1.8412,-1.8301,-1.7888,0.0,0.0,0.0,0.0,0.0,0.0,0.0,0.0,0.0,0.0,-1.8253,-1.8788,-1.8596,0.0,0.0,-1.8118,-1.7447,-1.6724,-1.5273,-1.3599,-1.1821,-0.9782,0.0,0.0,0.0,0.0,0.0,0.0,0.0,0.0,0.0,0.0,0.0,0.0,0.0,0.0,0.0,0.0,0.0,0.0,0.0,0.0,0.0,0.0,0.0,0.0,0.0,0.0,0.0,0.0,0.0,0.0,0.0,0.0,0.0,0.0,0.0,0.0,0.0,0.0,0.0,0.0,0.0,0.0,0.0,0.0,0.0,0.0,0.0,0.0,0.0,0.0,0.0,0.0,-1.0953,-1.2203,-1.4906,-1.6585,-1.7211,-1.8501,-1.8627,-1.7539,-1.6631,-1.5179,0.0,0.0,0.0,0.0,0.0,0.0,0.0,0.0,0.0,0.0,0.0,0.0,0.0,0.0,0.0,0.0,0.0,0.0,0.0,0.0,0.0,0.0,0.0,0.0,0.0,0.0,0.0,0.0,-1.9102,-1.8705,-1.8066,0.0,0.0,0.0,0.0,0.0,0.0,0.0,0.0,0.0,0.0,-1.8703,-1.9058,-1.8779,-1.8514,-1.8528,-1.7781,-1.689,-1.5944,-1.4323,-1.2559,-1.0739,0.0,0.0,0.0,0.0,0.0,0.0,0.0,0.0,0.0,0.0,0.0,0.0,0.0,0.0,0.0,0.0,0.0,0.0,0.0,0.0,0.0,0.0,0.0,0.0,0.0,0.0,0.0,-0.8358,0.0,0.0,-0.6617,0.0,0.0,0.0,0.0,0.0,0.0,0.0,0.0,0.0,0.0,0.0,0.0,0.0,0.0,0.0,0.0,0.0,0.0,0.0,0.0,0.0,0.0,-1.1339,-1.25,-1.5009,-1.6711,-1.7482,-1.8696,-1.9077,-1.8648,-1.7874,-1.686,-1.5544,0.0,0.0,0.0,0.0,0.0,0.0,0.0,0.0,0.0,0.0,0.0,0.0,0.0,0.0,0.0,0.0,0.0,0.0,0.0,0.0,0.0,0.0,0.0,0.0,0.0,0.0,-2.1379,-2.0177,-1.9167,0.0,0.0,0.0,0.0,0.0,0.0,0.0,0.0,0.0,-1.9669,-1.9302,-1.9083,-1.9334,-1.8789,-1.8127,-1.7523,-1.6425,-1.5323,-1.4433,-1.286,-1.1141,0.0,0.0,0.0,0.0,0.0,0.0,0.0,0.0,0.0,0.0,0.0,0.0,0.0,0.0,0.0,0.0,0.0,0.0,0.0,0.0,0.0,0.0,0.0,0.0,0.0,0.0,0.0,-1.079,-1.0086,0.0,0.0,0.0,0.0,0.0,0.0,0.0,0.0,0.0,0.0,0.0,-0.9832,-1.0086,0.0,0.0,0.0,0.0,0.0,0.0,0.0,0.0,0.0,0.0,0.0,0.0,-1.1662,-1.2692,-1.5139,-1.6774,-1.7502,-1.8815,-1.9338,-1.903,-1.8764,-1.8112,-1.7039,0.0,0.0,0.0,0.0,0.0,0.0,0.0,0.0,0.0,0.0,0.0,0.0,0.0,0.0,0.0,0.0,0.0,0.0,0.0,0.0,0.0,0.0,0.0,0.0,0.0,-2.1287,0.0,0.0,0.0,0.0,0.0,0.0,0.0,0.0,0.0,0.0,-1.9583,-1.9813,-1.9677,-1.9889,-1.9832,-1.9219,-1.8743,-1.8064,0.0,0.0,0.0,0.0,0.0,0.0,0.0,0.0,0.0,0.0,0.0,0.0,0.0,0.0,-0.1243,-0.0311,0.0035,0.0104,0.0,0.0,0.0,0.0,0.0,0.0,0.0,0.0,0.0,0.0,0.0,0.0,0.0,0.0,0.0,-1.1822,-1.1246,-1.0673,0.0,0.0,0.0,0.0,0.0,0.0,0.0,0.0,-0.9859,-1.0204,-1.0398,-1.0658,-1.0892,-1.1057,-1.0976,-1.0716,0.0,0.0,0.0,0.0,0.0,0.0,0.0,0.0,-1.2237,-1.3284,-1.5487,-1.7004,-1.7699,-1.8987,-1.9695,-1.9606,-1.959,-1.9081,-1.808,-1.748,-1.7336,0.0,0.0,0.0,0.0,0.0,0.0,0.0,0.0,0.0,0.0,0.0,0.0,0.0,0.0,0.0,0.0,0.0,0.0,0.0,0.0,0.0,0.0,0.0,-2.221,0.0,0.0,0.0,0.0,0.0,0.0,0.0,0.0,0.0,-2.0071,-2.0546,-2.0742,-2.0289,-2.0469,-2.0228,-1.9097,0.0,0.0,0.0,0.0,0.0,0.0,0.0,-0.9701,-0.8373,-0.7433,-0.6571,-0.5729,-0.5006,-0.4467,-0.4136,0.0,0.0,-0.1279,-0.0729,-0.051,-0.0583,-0.0583,-0.0656,-0.0838,-0.1166,-0.1494,0.0,0.0,0.0,0.0,-1.5199,0.0,0.0,0.0,-1.3384,-1.2785,0.0,-1.1499,0.0,0.0,0.0,0.0,-0.9244,-0.9353,0.0,0.0,-1.0418,-1.0761,-1.0852,-1.1453,-1.1943,-1.2342,-1.236,-1.2458,-1.2596,-1.0631,-0.9446,0.0,0.0,0.0,0.0,0.0,-1.3071,-1.4223,-1.6056,-1.7316,-1.7997,-1.9222,-2.0074,-2.0388,-2.0248,-1.9759,-1.8887,-1.9462,-1.9393,-1.8399,-1.9317,0.0,0.0,0.0,0.0,0.0,0.0,0.0,0.0,0.0,0.0,0.0,0.0,0.0,0.0,0.0,0.0,0.0,0.0,0.0,0.0,-2.4069,0.0,0.0,0.0,0.0,0.0,0.0,0.0,0.0,0.0,-2.1475,-2.1033,-2.1613,-2.1951,-2.1459,0.0,0.0,0.0,0.0,-1.6291,-1.4911,-1.3477,-1.2233,-1.1142,-0.9904,-0.8735,-0.7704,0.0,0.0,-0.5969,-0.5844,-0.5698,-0.5173,-0.4766,-0.3977,-0.2472,-0.1723,-0.1245,-0.0989,-0.0918,-0.0915,-0.0952,-0.133,-0.1772,-1.7989,0.0,0.0,0.0,0.0,-1.6741,-1.636,-1.5864,-1.5168,-1.4604,-1.4157,-1.3284,0.0,0.0,0.0,0.0,0.0,0.0,-1.1298,-1.1439,-1.1779,-1.214,-1.2563,-1.2751,-1.3029,-1.3363,-1.339,-1.3356,-1.3304,-1.2731,-1.2061,-1.136,0.0,0.0,0.0,0.0,-1.382,-1.4562,-1.6387,-1.7554,-1.8007,-1.9265,-2.014,-2.0604,-2.0427,-2.0465,-2.0752,-2.0293,-2.0319,-2.0882,-2.0215,0.0,0.0,0.0,0.0,0.0,0.0,0.0,0.0,0.0,0.0,0.0,0.0,0.0,0.0,0.0,0.0,0.0,0.0,0.0,-2.3857,-2.3515,-2.298,0.0,0.0,0.0,0.0,0.0,0.0,0.0,0.0,0.0,-2.248,-2.2533,-2.2326,0.0,0.0,-2.0023,-1.8564,-1.7226,-1.5839,-1.4407,-1.2913,0.0,-1.0583,-0.9516,-0.8556,-0.7809,-0.7363,-0.7086,-0.7201,-0.6984,-0.6736,-0.6584,-0.609,-0.534,-0.4215,-0.2869,-0.1884,-0.1463,-0.1131,-0.1026,-0.1343,-0.1559,-0.1899,-1.9806,-1.9527,-1.8744,-1.8284,-1.8049,-1.7798,-1.7484,-1.7096,-1.6535,-1.6141,-1.5838,-1.5077,-1.4558,-1.4237,-1.3716,0.0,0.0,0.0,-1.2417,-1.2434,-1.2647,-1.2958,-1.3296,-1.3432,-1.3818,-1.4361,-1.4408,-1.4543,-1.4869,-1.4869,-1.4638,-1.4165,0.0,-1.3076,-1.3386,-1.4035,-1.4647,-1.5249,-1.6899,-1.7904,-1.8202,-1.9521,-2.0432,-2.0882,-2.0965,-2.1168,-2.1518,-2.1304,-2.1425,-2.1968,-2.1277,-2.0897,0.0,0.0,0.0,0.0,0.0,0.0,0.0,0.0,0.0,0.0,0.0,-2.1232,-2.2291,0.0,0.0,0.0,-2.4165,-2.4409,-2.4372,-2.4058,0.0,0.0,0.0,0.0,0.0,0.0,0.0,-2.2257,-2.2791,-2.311,-2.2961,-2.2828,-2.246,-2.1738,-2.0883,-1.9689,-1.8079,0.0,-1.5016,-1.3426,-1.202,-1.0775,-0.976,-0.897,-0.8322,-0.7863,-0.7599,-0.7638,-0.805,-0.794,-0.7855,-0.7841,-0.7308,-0.6518,-0.5644,-0.4176,-0.282,-0.2059,-0.147,-0.1154,-0.1444,-0.1584,-0.1975,-2.1471,-2.1352,-1.9744,-1.8869,-1.853,-1.8496,-1.8198,-1.7739,-1.7703,-1.7423,-1.7068,-1.6761,-1.64,-1.5953,-1.4908,0.0,-1.3606,-1.3378,-1.3149,-1.2918,-1.3286,-1.3488,-1.3516,-1.3882,-1.4532,-1.5469,-1.5439,-1.5937,-1.6786,-1.6825,-1.6961,-1.7099,-1.5012,-1.4163,-1.4628,-1.5069,-1.5578,-1.6222,-1.7615,-1.8428,-1.8687,-2.0009,-2.0871,-2.1132,-2.1635,-2.1741,-2.1487,-2.231,-2.2617,-2.2243,-2.2485,-2.2479,-2.2082,0.0,0.0,0.0,0.0,0.0,0.0,0.0,0.0,0.0,0.0,0.0,0.0,0.0,0.0,0.0,-2.4677,0.0,-2.5032,-2.5115,0.0,0.0,0.0,-2.3254,-2.2871,-2.2817,-2.2709,-2.2475,0.0,0.0,-2.2802,-2.2591,-2.2238,-2.1589,-2.058,-1.9215,-1.744,-1.5607,-1.3852,-1.2184,-1.087,-0.976,-0.8851,-0.8327,-0.8025,-0.7915,-0.7863,-0.8127,-0.8699,-0.8813,-0.8899,-0.9115,-0.8423,-0.7532,-0.6709,-0.5371,-0.4084,-0.2745,-0.1814,-0.1265,-0.1351,-0.1524,-0.1951,-2.2006,-2.1969,-2.156,-2.1046,-2.0499,-2.0193,-1.9983,-1.9821,-1.9214,-1.8806,-1.8548,-1.7982,-1.7469,-1.6996,-1.6185,-1.5676,-1.5419,-1.4945,-1.462,-1.4493,-1.4762,-1.5072,-1.5448,-1.5887,-1.6333,-1.6798,-1.6838,-1.6938,-1.717,-1.7284,-1.744,-1.7595,-1.7164,-1.6795,-1.6471,-1.6684,-1.6969,-1.7379,-1.8692,-1.9618,-2.0184,-2.0769,-2.0974,-2.0757,-2.1373,-2.1857,-2.2023,-2.2555,-2.324,-2.4007,-2.3901,-2.3547,-2.3003,-2.2682,0.0,0.0,0.0,0.0,0.0,0.0,0.0,0.0,0.0,-2.2966,-2.351,0.0,-2.409,0.0,-2.4735,-2.4794,-2.4571,-2.4265,0.0,0.0,-2.3003,-2.2829,-2.3059,-2.2929,-2.3096,-2.3829,-2.3471,-2.3207,-2.3219,-2.2188,-2.1043,-2.0006,-1.9162,-1.8016,-1.6314,-1.4339,-1.2588,-1.1267,-0.9938,-0.8818,-0.8169,-0.7825,-0.7795,-0.8174,-0.8508,-0.8965,-0.9728,-0.9728,-0.9687,-0.9873,-0.9263,-0.8287,-0.7246,-0.6122,-0.4925,-0.3571,-0.2136,-0.112,-0.1337,-0.144,-0.181,-2.3273,-2.296,-2.2946,-2.2564,-2.1921,-2.1372,-2.1068,-2.0906,-2.0404,-2.0066,-1.9833,-1.9483,-1.9227,-1.8988,-1.8235,-1.768,-1.7265,-1.6666,-1.6137,-1.5813,-1.6004,-1.6224,-1.6419,-1.6821,-1.7281,-1.7788,-1.7788,-1.7986,-1.8309,-1.8383,-1.8543,-1.8733,-1.8657,-1.8516,-1.8339,-1.8064,-1.8035,-1.8334,-1.9302,-2.0111,-2.0764,-2.1074,-2.1209,-2.1178,-2.1856,-2.2259,-2.2295,-2.3036,-2.3769,-2.4314,-2.43,-2.4253,-2.4218,-2.3715,-2.3209,0.0,0.0,0.0,0.0,0.0,0.0,0.0,0.0,0.0,0.0,0.0,-2.4451,-2.4762,-2.4955,-2.5039,-2.4964,-2.4847,-2.4647,-2.4209,-2.389,-2.3787,-2.3978,-2.3717,-2.3701,-2.4255,-2.3633,-2.3123,-2.2903,-2.1785,-2.0451,-1.9121,-1.8011,-1.6741,-1.5125,-1.3273,-1.1601,-1.0297,-0.9107,-0.8127,-0.7599,-0.7446,-0.7638,-0.8399,-0.8932,-0.9533,-1.0331,-1.0572,-1.0726,-1.0897,-1.0252,-0.9313,-0.8267,-0.693,-0.5625,-0.4332,-0.2885,-0.194,-0.1763,-0.1735,-0.2108,-2.4745,-2.4116,-2.4092,-2.3757,-2.3159,-2.2503,-2.2011,-2.1653,-2.1483,-2.1303,-2.1123,-2.112,-2.1165,-2.116,-2.0377,-1.962,-1.8887,-1.8201,-1.7523,-1.6939,-1.7052,-1.705,-1.7018,-1.7362,-1.7933,-1.8644,-1.8655,-1.9025,-1.9775,-1.9786,-1.9918,-2.0073,-1.977,-1.9763,-2.0035,-1.9371,-1.9086,-1.9279,-1.9803,-2.0367,-2.0924,-2.1169,-2.1463,-2.183,-2.2506,-2.274,-2.2523,-2.365,-2.4249,-2.4231,-2.4512,-2.4933,-2.5414,-2.4607,-2.4171,0.0,-2.3867,0.0,0.0,0.0,0.0,0.0,0.0,0.0,0.0,-2.5052,-2.4664,-2.5019,-2.5232,-2.5382,-2.5541,-2.5849,-2.5892,-2.544,-2.5231,-2.5052,-2.4892,-2.4589,-2.4296,-2.4185,-2.3616,-2.2966,-2.2331,-2.1339,-2.0109,-1.8541,-1.7081,-1.5597,-1.4029,-1.2405,-1.0886,-0.9459,-0.839,-0.7672,-0.743,-0.7359,-0.7722,-0.8636,-0.9332,-0.996,-1.0743,-1.1291,-1.1717,-1.1786,-1.1174,-1.0321,-0.9413,-0.7731,-0.6151,-0.505,-0.3844,-0.2952,-0.2463,-0.233,-0.2826,-2.5334,-2.5192,-2.5097,-2.4976,-2.4835,-2.4567,-2.3966,-2.3073,-2.2721,-2.2665,-2.2785,-2.2432,-2.2121,-2.1759,-2.0978,-2.0233,-1.9495,-1.8706,-1.8098,-1.7616,-1.7701,-1.7863,-1.8118,-1.8543,-1.9187,-1.9929,-1.995,-2.0217,-2.0732,-2.0928,-2.0997,-2.1021,-2.0839,-2.0908,-2.1073,0.0,0.0,0.0,-2.0911,-2.1034,-2.1126,-2.1466,-2.1549,-2.1458,-2.2167,0.0,-2.299,-2.4016,-2.4967,-2.5717,-2.6435,0.0,0.0,0.0,0.0,0.0,0.0,0.0,0.0,0.0,0.0,0.0,-2.5211,-2.4835,-2.4887,-2.5068,-2.5229,-2.5322,-2.5435,-2.5418,-2.5285,-2.523,-2.5116,-2.4879,-2.473,-2.4569,-2.4361,-2.421,-2.4038,-2.395,-2.3257,-2.2559,-2.2051,-2.0839,-1.9413,-1.7877,-1.6405,-1.4819,-1.3052,-1.1793,-1.05,-0.9195,-0.8092,-0.7549,-0.7597,-0.7908,-0.8404,-0.9291,-0.9915,-1.0541,-1.1197,-1.1752,-1.2092,-1.2169,-1.1437,-1.0589,-0.9668,-0.8137,-0.6691,-0.5716,-0.4741,-0.3851,-0.3138,-0.3004,-0.3449,-2.6615,-2.6147,-2.6075,-2.5834,0.0,-2.5221,-2.5029,-2.4781,-2.4024,-2.3775,-2.3848,-2.3501,-2.3212,-2.2985,-2.2272,-2.151,-2.0743,-1.9916,-1.924,-1.869,-1.8717,-1.8723,-1.8766,-1.95,-2.0039,-2.0454,-2.0803,-2.1064,-2.128,-2.1396,-2.1441,-2.1452,-2.1468,-2.1507,-2.1586,-2.1498,-2.1391,-2.1201,-2.1094,-2.1106,-2.119,-2.1443,-2.1577,-2.1624,-2.2486,0.0,0.0,0.0,0.0,0.0,0.0,0.0,0.0,0.0,0.0,-2.5394,-2.5366,-2.5461,-2.5675,-2.5571,-2.5592,-2.5773,-2.545,-2.5136,-2.5002,-2.5226,-2.5336,-2.5315,-2.546,-2.5458,-2.5275,-2.5448,-2.5523,-2.531,-2.5074,-2.4847,-2.4723,-2.4359,-2.4038,-2.386,-2.3167,-2.2429,-2.1803,-2.0727,-1.9374,-1.7782,-1.6356,-1.478,-1.2902,-1.1439,-1.0045,-0.8427,-0.769,-0.736,-0.7683,-0.82,-0.8886,-0.9742,-1.0538,-1.1251,-1.1902,-1.2492,-1.2822,-1.26,-1.2076,-1.132,-1.0245,-0.8846,-0.7533,-0.6735,-0.6027,-0.5494,-0.5139,-0.4607,-0.4474,-2.7865,-2.7049,-2.6977,-2.654,-2.5911,-2.5632,-2.5786,-2.6115,-2.5203,0.0,0.0,-2.4382,-2.4195,-2.406,-2.3399,-2.2665,-2.1877,-2.104,-2.0313,-1.9704,-1.9671,-1.9506,-1.9318,-2.0177,-2.0682,-2.09,-2.143,-2.1774,-2.1914,-2.1914,-2.1879,-2.1868,-2.1921,-2.1891,-2.1849,-2.2011,-2.1857,-2.1383,-2.1208,-2.124,-2.1454,-2.149,-2.1666,-2.2024,-2.2806,-2.3267,-2.3369,-2.4463,-2.5154,-2.5288,-2.5929,-2.6379,-2.6543,-2.6528,-2.6398,-2.6184,-2.6184,-2.6146,-2.6022,-2.5982,-2.5798,-2.5438,-2.5188,-2.5179,-2.5462,-2.5378,-2.5296,-2.5173,-2.5415,-2.5471,-2.529,-2.5672,-2.5908,-2.5723,-2.5407,-2.5194,-2.5064,-2.4575,-2.4082,-2.374,-2.3069,-2.2306,-2.1479,-2.0624,-1.9529,-1.7957,-1.6512,-1.4859,-1.279,-1.0946,-0.9381,-0.7945,-0.7452,-0.7423,-0.7822,-0.8458,-0.9224,-1.0228,-1.1088,-1.184,-1.2489,-1.3164,-1.3369,-1.3035,-1.2662,-1.1938,-1.089,-0.9632,-0.8544,-0.7925,-0.7485,-0.7217,-0.7309,-0.6643,-0.6242,-2.8288,-2.796,-2.764,-2.7345,-2.7119,-2.6854,-2.6509,-2.6144,-2.6058,-2.5778,-2.5342,-2.5009,-2.4599,-2.406,-2.3382,-2.2671,-2.1846,-2.1178,-2.0571,-2.0042,-1.99,-1.9889,-1.9977,-2.027,-2.0941,-2.1842,-2.1988,-2.2386,-2.2985,-2.3051,-2.2989,-2.2776,-2.2581,-2.2351,-2.209,-2.208,-2.2047,-2.1981,-2.1946,-2.2128,-2.2489,-2.2075,-2.2073,-2.2547,-2.2539,-2.2889,-2.355,-2.4246,-2.5033,-2.598,-2.6495,-2.674,-2.6766,-2.6572,-2.6154,-2.5348,-2.5334,-2.5477,-2.5716,-2.5799,-2.5792,-2.5705,-2.5239,-2.5169,-2.5752,-2.5614,-2.5365,-2.5065,-2.5225,-2.5274,-2.5086,-2.5146,-2.5135,-2.5004,-2.4897,-2.4742,-2.4442,-2.4261,-2.3897,-2.3224,-2.274,-2.2063,-2.1126,-2.0265,-1.9244,-1.7893,-1.6404,-1.4608,-1.1938,-0.9846,-0.8692,-0.8003,-0.7785,-0.8,-0.834,-0.902,-0.9784,-1.0637,-1.1386,-1.2067,-1.2555,-1.3217,-1.3462,-1.3073,-1.2716,-1.2126,-1.1322,-1.0246,-0.9462,-0.9061,-0.8798,-0.8755,-0.8925,-0.896,-0.9004,-2.8518,-2.8186,-2.7865,-2.7539,-2.7273,-2.6803,-2.6353,-2.5866,-2.5743,-2.5481,-2.5103,-2.485,-2.4363,-2.3704,-2.3198,-2.2592,-2.187,-2.1316,-2.0796,-2.0399,-2.0421,-2.041,-2.0432,-2.1045,-2.1664,-2.2275,-2.2649,-2.3041,-2.3427,-2.3372,-2.3261,-2.3139,-2.2941,-2.2746,-2.2584,-2.2598,-2.2659,-2.2731,-2.2208,-2.208,-2.2355,-2.2139,-2.215,-2.2473,-2.2669,-2.2979,-2.3433,-2.4016,-2.4643,-2.5245,-2.5597,-2.5782,-2.5755,-2.5604,-2.5304,-2.4814,-2.4814,-2.4853,-2.4947,-2.4999,-2.5145,-2.5317,-2.4946,-2.4837,-2.5185,-2.5062,-2.4969,-2.4972,-2.5015,-2.4992,-2.4909,-2.4897,-2.4885,-2.4837,-2.461,-2.4418,-2.42,-2.3787,-2.3372,-2.2889,-2.2402,-2.1759,-2.1021,-2.0157,-1.9164,-1.7917,-1.6018,-1.3643,-1.1494,-0.9941,-0.8732,-0.8072,-0.79,-0.8113,-0.8544,-0.9313,-1.0109,-1.0953,-1.18,-1.2438,-1.294,-1.3483,-1.3647,-1.3416,-1.3056,-1.2565,-1.2015,-1.1289,-1.0722,-1.0458,-1.0539,-1.0626,-1.0755,-1.1009,-1.0885,-2.8732,-2.8244,-2.794,-2.7488,-2.6907,-2.6377,-2.592,-2.5495,-2.516,-2.4835,-2.4549,-2.4394,-2.3943,-2.333,-2.2969,-2.2512,-2.1956,-2.1537,-2.1178,-2.0892,-2.1051,-2.1051,-2.0978,-2.1777,-2.2286,-2.2582,-2.3087,-2.3403,-2.3573,-2.3446,-2.3298,-2.3224,-2.3075,-2.3001,-2.3001,-2.3001,-2.3075,-2.318,-2.2474,-2.2205,-2.2415,-2.2291,-2.2293,-2.2467,-2.2753,-2.2999,-2.3211,-2.3685,-2.4096,-2.4427,-2.4618,-2.4786,-2.4911,-2.476,-2.4587,-2.4447,-2.4438,-2.4392,-2.4271,-2.4329,-2.449,-2.4788,-2.4526,-2.4413,-2.4482,-2.4366,-2.4436,-2.4672,-2.4611,-2.4538,-2.449,-2.449,-2.4538,-2.4538,-2.4273,-2.4043,-2.3934,-2.3409,-2.2889,-2.2628,-2.2138,-2.1568,-2.0944,-2.0196,-1.9125,-1.7626,-1.535,-1.3226,-1.1746,-1.0376,-0.9213,-0.8424,-0.8072,-0.816,-0.8592,-0.9375,-1.0284,-1.1154,-1.204,-1.2741,-1.3269,-1.3766,-1.3955,-1.3717,-1.3379,-1.3052,-1.2662,-1.2277,-1.1972,-1.188,-1.2132,-1.2437,-1.2437,-1.2443,-1.2235,-2.9082,-2.8455,-2.802,-2.7192,-2.6275,-2.5921,-2.5508,-2.506,-2.4593,-2.4118,-2.3763,-2.3826,-2.359,-2.3125,-2.2848,-2.2494,-2.2154,-2.1932,-2.1765,-2.162,-2.1733,-2.1796,-2.1796,-2.191,-2.2359,-2.3008,-2.3037,-2.3235,-2.3644,-2.3604,-2.3372,-2.3075,-2.3001,-2.3001,-2.3001,-2.3001,-2.3001,-2.3038,-2.2951,-2.3091,-2.3399,-2.2864,-2.2702,-2.2999,-2.2592,-2.2525,-2.2855,-2.3089,-2.3526,-2.4157,-2.4193,-2.443,-2.486,-2.4696,-2.4424,-2.4232,-2.4196,-2.422,-2.4208,-2.422,-2.4255,-2.4253,-2.4097,-2.3963,-2.3959,-2.3804,-2.3781,-2.3922,-2.3824,-2.3776,-2.3714,-2.374,-2.3776,-2.3813,-2.3751,-2.3593,-2.3446,-2.3161,-2.2852,-2.2478,-2.2063,-2.1578,-2.0982,-2.0284,-1.9045,-1.722,-1.5613,-1.3944,-1.2437,-1.1063,-0.9864,-0.8995,-0.8468,-0.8332,-0.8679,-0.9379,-1.0294,-1.1149,-1.21,-1.279,-1.3307,-1.3743,-1.4039,-1.3822,-1.3561,-1.3355,-1.3307,-1.3094,-1.3039,-1.333,-1.3626,-1.3886,-1.3844,-1.3555,-1.2912,-3.0362,-2.9695,-2.905,-2.8086,-2.6932,-2.6385,-2.5758,-2.5082,-2.4583,-2.3923,-2.3253,-2.3245,-2.3065,-2.2696,-2.2574,-2.2451,-2.2328,-2.2334,-2.2341,-2.2433,-2.2634,-2.2683,-2.2604,-2.261,-2.2955,-2.3532,-2.3313,-2.3525,-2.3956,-2.3787,-2.3409,-2.3038,-2.3001,-2.3001,-2.3001,-2.3001,-2.3001,-2.3001,-2.3001,-2.3065,-2.3202,-2.2974,-2.2912,-2.3025,-2.2836,-2.275,-2.2894,-2.3001,-2.3174,-2.3474,-2.3449,-2.3575,-2.3804,-2.3692,-2.3593,-2.3519,-2.3593,-2.3714,-2.3824,-2.3824,-2.3861,-2.3824,-2.3787,-2.3677,-2.3567,-2.3482,-2.3409,-2.3372,-2.353,-2.3593,-2.3593,-2.3593,-2.3593,-2.3593,-2.3494,-2.3372,-2.3298,-2.3012,-2.2703,-2.244,-2.2025,-2.1655,-2.1185,-2.0245,-1.8856,-1.7147,-1.5752,-1.4461,-1.3112,-1.1746,-1.0593,-0.9685,-0.9209,-0.8947,-0.8903,-0.9428,-1.0294,-1.1198,-1.21,-1.2833,-1.3307,-1.3786,-1.4039,-1.3948,-1.3864,-1.3864,-1.3984,-1.4062,-1.4139,-1.4559,-1.4852,-1.5026,-1.4894,-1.4188,-1.33,-3.129,-3.0556,-2.9681,-2.8581,-2.7454,-2.6843,-2.6176,-2.5453,-2.4908,-2.4126,-2.3298,-2.3224,-2.3002,-2.2684,-2.2592,-2.2561,-2.2671,-2.2877,-2.3135,-2.3403,-2.3669,-2.3728,-2.3581,-2.3429,-2.3629,-2.3961,-2.3646,-2.3732,-2.4169,-2.3787,-2.3335,-2.3038,-2.3001,-2.3001,-2.3001,-2.3001,-2.3001,-2.3001,-2.3001,-2.3001,-2.3001,-2.3001,-2.3001,-2.3001,-2.3001,-2.3001,-2.3001,-2.3001,-2.3001,-2.3001,-2.3001,-2.3001,-2.3001,-2.3001,-2.3001,-2.3001,-2.315,-2.3261,-2.3409,-2.3446,-2.3409,-2.3372,-2.3372,-2.3372,-2.3187,-2.3187,-2.315,-2.3075,-2.3261,-2.342,-2.3446,-2.3409,-2.3457,-2.342,-2.3298,-2.3224,-2.3261,-2.2964,-2.2665,-2.2553,-2.2252,-2.1807,-2.1349,-2.0294,-1.8944,-1.7513,-1.6255,-1.5012,-1.3831,-1.2565,-1.137,-1.0463,-1.0077,-0.9646,-0.9257,-0.9646,-1.0424,-1.1246,-1.2143,-1.2833,-1.3349,-1.3786,-1.4166,-1.4117,-1.4201,-1.4454,-1.4734,-1.4943,-1.5193,-1.5609,-1.5775,-1.5699,-1.5242,-1.4356,-1.3294,-3.1526,-3.0654,-2.9332,-2.8369,-2.7484,-2.7004,-2.66,-2.6206,-2.5527,-2.4841,-2.4189,-2.4066,-2.3701,-2.3335,-2.3163,-2.3065,-2.3314,-2.3774,-2.4197,-2.4656,-2.4852,-2.4881,-2.4797,-2.4266,-2.4171,-2.4553,-2.3989,-2.372,-2.3706,-2.3457,-2.3235,-2.3001,-2.3038,-2.3001,-2.3001,-2.3001,-2.3001,-2.3001,-2.3001,-2.3001,-2.3001,-2.3001,-2.3001,-2.3001,-2.3001,-2.3001,-2.3001,-2.3001,-2.3001,-2.3001,-2.3001,-2.3001,-2.3001,-2.3001,-2.3001,-2.3001,-2.3038,-2.3001,-2.3038,-2.3038,-2.2964,-2.2815,-2.2927,-2.2927,-2.2788,-2.2889,-2.2964,-2.3001,-2.3038,-2.3038,-2.3075,-2.3113,-2.3075,-2.3075,-2.3038,-2.3113,-2.3261,-2.3001,-2.2852,-2.2852,-2.259,-2.2073,-2.132,-2.045,-1.9371,-1.8167,-1.7041,-1.585,-1.4594,-1.3379,-1.2314,-1.1456,-1.0852,-1.0337,-0.982,-1.0033,-1.0679,-1.1542,-1.232,-1.2881,-1.3307,-1.3737,-1.4075,-1.4363,-1.4531,-1.4866,-1.5443,-1.5858,-1.6196,-1.6402,-1.6312,-1.6105,-1.5325,-1.4174,-1.3027,-3.2358,-3.1167,-3.0162,-2.9293,-2.8625,-2.8003,-2.7422,-2.6854,-2.6392,-2.5799,-2.5226,-2.5405,-2.5219,-2.4672,-2.5132,-2.5005,-2.4568,-2.5037,-2.5549,-2.6023,-2.6172,-2.6133,-2.5929,-2.5259,-2.5066,-2.5272,-2.4564,-2.4096,-2.3988,-2.3787,-2.3519,-2.3224,-2.3187,-2.315,-2.3038,-2.3001,-2.3001,-2.3001,-2.3001,-2.3001,-2.3038,-2.3001,-2.3001,-2.3001,-2.3001,-2.3001,-2.3001,-2.3001,-2.3001,-2.3001,-2.3001,-2.3001,-2.3001,-2.3001,-2.3001,-2.3001,-2.3001,-2.2927,-2.2815,-2.2815,-2.274,-2.2553,-2.259,-2.259,-2.2553,-2.259,-2.2665,-2.2777,-2.2815,-2.2852,-2.2964,-2.3001,-2.3001,-2.3038,-2.3113,-2.3224,-2.3298,-2.3261,-2.3261,-2.315,-2.2826,-2.2289,-2.1578,-2.0876,-2.005,-1.8816,-1.7723,-1.6583,-1.5436,-1.4265,-1.3252,-1.24,-1.18,-1.137,-1.1025,-1.0766,-1.1068,-1.1892,-1.2625,-1.3094,-1.3525,-1.3828,-1.4117,-1.4447,-1.4699,-1.5284,-1.5858,-1.6632,-1.6976,-1.7057,-1.6968,-1.6057,-1.5276,-1.3915,-1.2644,-3.2614,-3.148,-3.0762,-3.0038,-2.9355,-2.8835,-2.8283,-2.7709,-2.7357,-2.6884,-2.6534,-2.687,-2.6824,-2.6729,-2.7425,-2.7488,-2.6799,-2.6718,-2.6902,-2.742,-2.749,-2.7379,-2.7093,-2.6506,-2.6227,-2.6034,-2.5232,-2.4604,-2.4205,-2.4043,-2.3776,-2.3409,-2.3409,-2.3335,-2.3224,-2.3187,-2.3187,-2.3187,-2.3224,-2.3187,-2.3187,-2.3176,-2.315,-2.3113,-2.3113,-2.3075,-2.3001,-2.3001,-2.3001,-2.3001,-2.3001,-2.3001,-2.3001,-2.3001,-2.3001,-2.3001,-2.3001,-2.2889,-2.274,-2.2703,-2.259,-2.2327,-2.2365,-2.2413,-2.2327,-2.2365,-2.2478,-2.2553,-2.259,-2.2703,-2.2852,-2.2889,-2.2964,-2.3075,-2.3224,-2.3372,-2.3482,-2.3604,-2.3604,-2.3494,-2.3224,-2.2703,-2.2035,-2.1492,-2.0634,-1.946,-1.8399,-1.7359,-1.6098,-1.5061,-1.4097,-1.3167,-1.2528,-1.2186,-1.1929,-1.1671,-1.1628,-1.232,-1.2753,-1.3228,-1.361,-1.3913,-1.4201,-1.4489,-1.4985,-1.5616,-1.6402,-1.7253,-1.7538,-1.7659,-1.696,-1.6057,-1.4887,-1.3542,-1.2174,-3.2173,-3.1451,-3.0999,-3.0341,-2.9651,-2.9387,-2.9075,-2.8721,-2.8414,-2.8171,-2.8037,-2.8332,-2.8639,-2.8982,-2.9693,-3.0158,-2.9943,-2.8879,-2.8465,-2.8802,-2.8802,-2.8623,-2.8304,-2.8017,-2.744,-2.6759,-2.5984,-2.511,-2.4334,-2.4273,-2.4007,-2.3666,-2.3641,-2.3604,-2.3604,-2.3519,-2.3556,-2.3556,-2.3519,-2.3556,-2.3593,-2.3556,-2.3457,-2.3335,-2.3298,-2.3187,-2.3038,-2.3001,-2.3001,-2.3001,-2.3001,-2.3001,-2.3001,-2.3001,-2.3001,-2.3001,-2.3001,-2.2927,-2.2703,-2.2665,-2.2478,-2.2214,-2.2262,-2.2262,-2.2149,-2.2252,-2.2365,-2.2402,-2.2402,-2.2467,-2.2665,-2.274,-2.2879,-2.3224,-2.3298,-2.3482,-2.3776,-2.3897,-2.3897,-2.3872,-2.3714,-2.3335,-2.2777,-2.2214,-2.1367,-2.0177,-1.9155,-1.8086,-1.6714,-1.5684,-1.4776,-1.3899,-1.3222,-1.279,-1.2662,-1.254,-1.2577,-1.2711,-1.2924,-1.327,-1.361,-1.3955,-1.4328,-1.4699,-1.5567,-1.6237,-1.709,-1.7821,-1.774,-1.7659,-1.6837,-1.5884,-1.4461,-1.3069,-1.1617,-3.1992,-3.1451,-3.0984,-3.0612,-3.0235,-2.9808,-2.9591,-2.9484,-2.9373,-2.9434,-2.9663,-3.0205,-3.0572,-3.0936,-3.1768,-3.2315,-3.2428,-3.2236,-3.1554,-3.0342,-3.01,-2.9854,-2.945,-2.9131,-2.8332,-2.7226,-2.6463,-2.5769,-2.5028,-2.473,-2.4381,-2.408,-2.4007,-2.3861,-2.3641,-2.3593,-2.3593,-2.3593,-2.3593,-2.3593,-2.3593,-2.3593,-2.3556,-2.3519,-2.3482,-2.3409,-2.3224,-2.3075,-2.3001,-2.3001,-2.3001,-2.3001,-2.3001,-2.3001,-2.3001,-2.3001,-2.3001,-2.2852,-2.2553,-2.2478,-2.2327,-2.1997,-2.1949,-2.1959,-2.1921,-2.1959,-2.2073,-2.2176,-2.2214,-2.2327,-2.2628,-2.2703,-2.2889,-2.3261,-2.3398,-2.3677,-2.408,-2.4345,-2.4418,-2.4345,-2.4273,-2.397,-2.3409,-2.2889,-2.2128,-2.0962,-1.9943,-1.8758,-1.7521,-1.6386,-1.5443,-1.4524,-1.3893,-1.3222,-1.2966,-1.2711,-1.2625,-1.2711,-1.2966,-1.327,-1.361,-1.399,-1.4412,-1.5117,-1.5982,-1.6845,-1.7749,-1.8112,-1.8023,-1.7489,-1.6698,-1.5455,-1.3999,-1.2601,-1.1192,-3.1923,-3.148,-3.1131,-3.0881,-3.0672,-3.0282,-3.019,-3.0176,-3.0237,-3.0554,-3.1115,-3.1801,-3.2429,-3.3013,-3.3951,-3.4372,-3.4465,-3.5009,-3.4286,-3.2634,-3.2091,-3.1692,-3.1062,-3.0272,-2.9349,-2.8184,-2.7282,-2.6389,-2.5558,-2.5159,-2.4814,-2.449,-2.4418,-2.4309,-2.4055,-2.4043,-2.4007,-2.3934,-2.3934,-2.3897,-2.3824,-2.3824,-2.3787,-2.3714,-2.3714,-2.3604,-2.3409,-2.3224,-2.3075,-2.3038,-2.3001,-2.3001,-2.3001,-2.3001,-2.3001,-2.3001,-2.3001,-2.2815,-2.2467,-2.2402,-2.2214,-2.1883,-2.1807,-2.1807,-2.1807,-2.1807,-2.1883,-2.1959,-2.1997,-2.2149,-2.2515,-2.259,-2.2815,-2.3383,-2.3593,-2.3959,-2.4478,-2.4849,-2.4992,-2.4909,-2.4838,-2.4539,-2.4093,-2.3593,-2.2868,-2.1794,-2.0721,-1.9471,-1.8198,-1.6992,-1.6015,-1.5026,-1.411,-1.3561,-1.3137,-1.2881,-1.2625,-1.2753,-1.2924,-1.327,-1.361,-1.3997,-1.4377,-1.5499,-1.6409,-1.7212,-1.8072,-1.8233,-1.8193,-1.7399,-1.6568,-1.524,-1.3866,-1.2303,-1.0868,-3.191,-3.148,-3.1365,-3.1117,-3.0851,-3.0836,-3.0807,-3.0837,-3.1014,-3.1521,-3.2345,-3.3014,-3.3948,-3.5092,-3.5813,-3.6192,-3.6346,-3.669,-3.6515,-3.5586,-3.4853,-3.4075,-3.3009,-3.1559,-3.0432,-2.9574,-2.8333,-2.7131,-2.6022,-2.5594,-2.5182,-2.4861,-2.4814,-2.4801,-2.4682,-2.4754,-2.461,-2.4454,-2.4502,-2.4381,-2.4189,-2.42,-2.4116,-2.3934,-2.3897,-2.3824,-2.3641,-2.3409,-2.3187,-2.3038,-2.3001,-2.3001,-2.3001,-2.3001,-2.3001,-2.3001,-2.3001,-2.2777,-2.2478,-2.2365,-2.2225,-2.1845,-2.1807,-2.1807,-2.1807,-2.1807,-2.1807,-2.1807,-2.1807,-2.1997,-2.2327,-2.244,-2.2815,-2.3482,-2.3875,-2.4383,-2.5135,-2.5276,-2.5394,-2.55,-2.543,-2.517,-2.4719,-2.4227,-2.3486,-2.2558,-2.1451,-2.0119,-1.8749,-1.7553,-1.6378,-1.5352,-1.4363,-1.3646,-1.3179,-1.2631,-1.2418,-1.246,-1.2717,-1.3179,-1.3779,-1.4201,-1.4915,-1.5997,-1.682,-1.7627,-1.8112,-1.8313,-1.8103,-1.7367,-1.6322,-1.5074,-1.362,-1.2032,-1.0742,-3.1726,-3.1496,-3.1365,-3.1248,-3.1176,-3.1161,-3.1219,-3.1364,-3.1724,-3.2351,-3.3166,-3.3872,-3.4855,-3.5985,-3.6851,-3.7399,-3.7739,-3.8079,-3.8208,-3.7846,-3.7415,-3.5925,-3.4104,-3.2555,-3.137,-3.044,-2.9126,-2.7828,-2.6756,-2.6173,-2.5699,-2.5182,-2.5182,-2.5064,-2.4861,-2.4837,-2.4801,-2.4718,-2.4718,-2.4634,-2.4454,-2.4418,-2.4298,-2.4152,-2.4127,-2.4018,-2.3824,-2.3482,-2.3187,-2.3038,-2.3001,-2.3001,-2.3001,-2.3001,-2.3001,-2.3001,-2.2852,-2.2676,-2.244,-2.2252,-2.2073,-2.1845,-2.1807,-2.1807,-2.1807,-2.1807,-2.1807,-2.1807,-2.1807,-2.1949,-2.2289,-2.244,-2.2927,-2.3849,-2.4383,-2.485,-2.5241,-2.5571,-2.5758,-2.5805,-2.5758,-2.5535,-2.5206,-2.4719,-2.4107,-2.3154,-2.2021,-2.0798,-1.9374,-1.7989,-1.6821,-1.5643,-1.4615,-1.3815,-1.31,-1.2503,-1.2166,-1.216,-1.2503,-1.3009,-1.3857,-1.4699,-1.5741,-1.6902,-1.7383,-1.8072,-1.8322,-1.8482,-1.7902,-1.7245,-1.6083,-1.4845,-1.3229,-1.1657,-1.0637,-3.1582,-3.1424,-3.138,-3.138,-3.1395,-3.1482,-3.1611,-3.1866,-3.2327,-3.3066,-3.3937,-3.47,-3.5705,-3.6831,-3.7578,-3.8133,-3.8588,-3.8803,-3.8803,-3.8637,-3.8062,-3.6762,-3.5061,-3.3685,-3.2479,-3.124,-2.9911,-2.8625,-2.7504,-2.6756,-2.6151,-2.5769,-2.5606,-2.5442,-2.5312,-2.5171,-2.5099,-2.5016,-2.4957,-2.4814,-2.4634,-2.461,-2.449,-2.4381,-2.4321,-2.42,-2.3897,-2.3604,-2.3298,-2.3075,-2.3001,-2.3001,-2.3001,-2.3001,-2.3001,-2.3001,-2.2815,-2.2628,-2.2402,-2.2214,-2.2035,-2.1845,-2.1807,-2.1807,-2.1807,-2.1807,-2.1807,-2.1807,-2.1807,-2.1949,-2.2252,-2.2553,-2.3224,-2.4032,-2.4743,-2.5241,-2.5488,-2.584,-2.6037,-2.6119,-2.6084,-2.5957,-2.5688,-2.5241,-2.4576,-2.3706,-2.2633,-2.1288,-1.9894,-1.8541,-1.7188,-1.5966,-1.4734,-1.3857,-1.3009,-1.2332,-1.1952,-1.1952,-1.254,-1.3045,-1.4062,-1.5117,-1.6113,-1.7098,-1.7789,-1.8273,-1.8362,-1.8241,-1.77,-1.6878,-1.5801,-1.458,-1.3034,-1.1833,-1.0756,-3.1409,-3.1263,-3.1424,-3.1467,-3.1511,-3.1683,-3.194,-3.2315,-3.283,-3.3649,-3.4631,-3.5475,-3.6394,-3.7559,-3.8016,-3.8541,-3.8881,-3.8925,-3.8822,-3.8478,-3.7861,-3.6816,-3.5865,-3.4725,-3.3422,-3.2007,-3.0705,-2.9369,-2.8201,-2.725,-2.6645,-2.6289,-2.6072,-2.5933,-2.5793,-2.5688,-2.5523,-2.5324,-2.5218,-2.5052,-2.4885,-2.4825,-2.4706,-2.4502,-2.4429,-2.4236,-2.3934,-2.3677,-2.3409,-2.3027,-2.3038,-2.3001,-2.3001,-2.3001,-2.2964,-2.2927,-2.274,-2.2553,-2.2365,-2.2138,-2.1987,-2.1845,-2.1807,-2.1807,-2.1807,-2.1807,-2.1807,-2.1807,-2.1807,-2.1911,-2.2214,-2.2815,-2.3482,-2.4141,-2.485,-2.543,-2.5828,-2.6097,-2.6305,-2.6465,-2.6327,-2.6248,-2.6062,-2.5688,-2.5052,-2.4215,-2.3106,-2.1832,-2.0401,-1.8979,-1.7585,-1.6173,-1.4977,-1.3808,-1.3009,-1.2203,-1.1909,-1.178,-1.2625,-1.3343,-1.4356,-1.536,-1.627,-1.7098,-1.7789,-1.808,-1.808,-1.7838,-1.7343,-1.655,-1.5477,-1.4286,-1.3077,-1.2142,-1.1111,-3.1365,-3.091,-3.1102,-3.1249,-3.1365,-3.1625,-3.2007,-3.2547,-3.3261,-3.4086,-3.5071,-3.5904,-3.6768,-3.7703,-3.8152,-3.8559,-3.8773,-3.8788,-3.8652,-3.8168,-3.7523,-3.6823,-3.6066,-3.5101,-3.393,-3.2505,-3.1188,-2.9952,-2.8844,-2.7934,-2.731,-2.6837,-2.6496,-2.6233,-2.6129,-2.5968,-2.5723,-2.5583,-2.55,-2.5324,-2.5087,-2.5016,-2.4873,-2.4562,-2.4381,-2.4164,-2.3934,-2.3714,-2.3494,-2.3261,-2.3113,-2.3038,-2.3001,-2.3001,-2.2927,-2.2777,-2.259,-2.2402,-2.2176,-2.1987,-2.1835,-2.1807,-2.1769,-2.1807,-2.1807,-2.1769,-2.1769,-2.1807,-2.1807,-2.1921,-2.2289,-2.2889,-2.3519,-2.4141,-2.4862,-2.5465,-2.5875,-2.626,-2.648,-2.6502,-2.6527,-2.6386,-2.6238,-2.5951,-2.5337,-2.4611,-2.357,-2.2381,-2.0962,-1.945,-1.794,-1.646,-1.5054,-1.3886,-1.313,-1.2429,-1.2034,-1.2025,-1.2752,-1.3587,-1.4605,-1.5518,-1.6365,-1.7081,-1.7789,-1.7878,-1.7676,-1.7392,-1.6943,-1.6023,-1.5202,-1.4215,-1.32,-1.2338,-1.1807,-3.1213,-3.0988,-3.0953,-3.1087,-3.1307,-3.1581,-3.2048,-3.2668,-3.3445,-3.435,-3.5278,-3.6138,-3.6981,-3.7756,-3.8203,-3.8494,-3.8556,-3.8412,-3.81,-3.7614,-3.7036,-3.6437,-3.5781,-3.4931,-3.3887,-3.2752,-3.1533,-3.0376,-2.9331,-2.8454,-2.7729,-2.7242,-2.6939,-2.6679,-2.644,-2.6233,-2.606,-2.5875,-2.5688,-2.55,-2.5371,-2.5218,-2.5004,-2.467,-2.4454,-2.4236,-2.4055,-2.3861,-2.3629,-2.3446,-2.3224,-2.3075,-2.3001,-2.3001,-2.2889,-2.2703,-2.2515,-2.2327,-2.2101,-2.1921,-2.1807,-2.1807,-2.1731,-2.1655,-2.1617,-2.1589,-2.1512,-2.1512,-2.155,-2.1731,-2.2214,-2.2777,-2.3409,-2.4141,-2.4862,-2.5526,-2.6182,-2.6644,-2.6889,-2.6939,-2.713,-2.7208,-2.703,-2.6548,-2.619,-2.5678,-2.4317,-2.3042,-2.1464,-1.9944,-1.8296,-1.6772,-1.5213,-1.4055,-1.33,-1.2704,-1.2259,-1.2409,-1.2915,-1.3773,-1.4663,-1.5526,-1.6384,-1.6925,-1.736,-1.7229,-1.7017,-1.6779,-1.6485,-1.5789,-1.5006,-1.4195,-1.3484,-1.2933,-1.2542,-3.1101,-3.1063,-3.0884,-3.0998,-3.1263,-3.1538,-3.202,-3.2683,-3.3507,-3.4407,-3.5369,-3.6264,-3.702,-3.7703,-3.8136,-3.8332,-3.82,-3.786,-3.7433,-3.6999,-3.6419,-3.5847,-3.5197,-3.4439,-3.3665,-3.2879,-3.1719,-3.063,-2.9718,-2.8867,-2.8189,-2.7723,-2.739,-2.7121,-2.685,-2.6611,-2.6371,-2.6176,-2.5933,-2.5711,-2.5571,-2.543,-2.5182,-2.4814,-2.4574,-2.4381,-2.4164,-2.397,-2.3824,-2.3604,-2.342,-2.3235,-2.3075,-2.3001,-2.2889,-2.2665,-2.2467,-2.2289,-2.2025,-2.1845,-2.1731,-2.1769,-2.1578,-2.1474,-2.1436,-2.1359,-2.1292,-2.1282,-2.132,-2.154,-2.2073,-2.2665,-2.3335,-2.4139,-2.4909,-2.5756,-2.6563,-2.7131,-2.7534,-2.7457,-2.7607,-2.7722,-2.7713,-2.7421,-2.7089,-2.6564,-2.5142,-2.3689,-2.2113,-2.0451,-1.8811,-1.718,-1.5702,-1.4068,-1.3173,-1.2793,-1.2374,-1.2554,-1.3033,-1.3628,-1.4397,-1.4838,-1.5481,-1.6372,-1.669,-1.6612,-1.6536,-1.6385,-1.6024,-1.5526,-1.5053,-1.4407,-1.3941,-1.3546,-1.3199,-3.1138,-3.0405,-3.0799,-3.0953,-3.0954,-3.135,-3.1964,-3.2668,-3.3523,-3.4399,-3.5272,-3.6176,-3.6939,-3.7468,-3.7897,-3.7913,-3.7667,-3.7247,-3.6823,-3.6319,-3.5737,-3.5144,-3.4649,-3.396,-3.3256,-3.2571,-3.1664,-3.0807,-3.007,-2.9233,-2.861,-2.8314,-2.7835,-2.7469,-2.7302,-2.7079,-2.6726,-2.644,-2.6255,-2.6013,-2.5711,-2.5535,-2.53,-2.4861,-2.461,-2.4429,-2.42,-2.4007,-2.3776,-2.3604,-2.3409,-2.3224,-2.3075,-2.3038,-2.2815,-2.2553,-2.244,-2.2252,-2.1911,-2.1693,-2.154,-2.1512,-2.1359,-2.1233,-2.1244,-2.1205,-2.1138,-2.1215,-2.132,-2.1627,-2.2073,-2.2628,-2.3335,-2.4185,-2.5216,-2.6118,-2.6808,-2.7679,-2.8324,-2.8172,-2.8185,-2.8211,-2.825,-2.8102,-2.7663,-2.6969,-2.5739,-2.4379,-2.2936,-2.1136,-1.9313,-1.7738,-1.619,-1.4551,-1.3045,-1.2729,-1.2453,-1.2556,-1.2884,-1.3109,-1.3686,-1.387,-1.4467,-1.5364,-1.6046,-1.6268,-1.6153,-1.5987,-1.5806,-1.5434,-1.5072,-1.4752,-1.4439,-1.4094,-1.3838,-3.1021,-3.0552,-3.0785,-3.0809,-3.088,-3.1292,-3.1936,-3.2683,-3.3507,-3.4374,-3.5266,-3.6105,-3.6779,-3.7226,-3.7631,-3.7559,-3.7131,-3.6681,-3.6207,-3.5666,-3.5075,-3.4545,-3.4102,-3.3413,-3.2884,-3.2272,-3.1537,-3.0837,-3.0296,-2.9574,-2.9008,-2.8573,-2.8197,-2.7967,-2.7656,-2.7403,-2.7066,-2.6769,-2.6483,-2.6255,-2.5898,-2.5723,-2.53,-2.4921,-2.4682,-2.4502,-2.4236,-2.4127,-2.397,-2.3751,-2.3556,-2.3383,-2.3187,-2.3001,-2.2815,-2.2478,-2.2402,-2.2176,-2.1769,-2.154,-2.1464,-2.132,-2.1187,-2.1061,-2.1012,-2.0935,-2.0975,-2.0984,-2.1205,-2.1512,-2.1921,-2.259,-2.3335,-2.4196,-2.5334,-2.6348,-2.7152,-2.8213,-2.8662,-2.8863,-2.9001,-2.9026,-2.9,-2.8747,-2.8228,-2.7338,-2.6265,-2.5014,-2.3668,-2.1619,-1.9583,-1.7779,-1.6166,-1.4793,-1.3411,-1.3063,-1.2665,-1.2672,-1.2654,-1.2876,-1.2972,-1.3164,-1.3636,-1.4406,-1.5009,-1.5425,-1.5669,-1.545,-1.5417,-1.5404,-1.5149,-1.495,-1.488,-1.4716,-1.4427,-3.1013,-3.0931,-3.0872,-3.0902,-3.1011,-3.1366,-3.1964,-3.2668,-3.3523,-3.435,-3.5151,-3.5933,-3.6536,-3.6954,-3.7166,-3.711,-3.6597,-3.6139,-3.5571,-3.4975,-3.4423,-3.3917,-3.3429,-3.2942,-3.2453,-3.2051,-3.1423,-3.0792,-3.0417,-2.9806,-2.9289,-2.8926,-2.8748,-2.8457,-2.802,-2.7769,-2.7456,-2.7074,-2.6701,-2.6452,-2.6119,-2.5805,-2.5371,-2.4897,-2.4837,-2.4646,-2.4345,-2.4189,-2.408,-2.3897,-2.3714,-2.3556,-2.3298,-2.315,-2.2852,-2.2515,-2.2365,-2.2025,-2.1655,-2.1359,-2.1233,-2.1051,-2.1044,-2.0957,-2.0948,-2.0987,-2.0938,-2.0811,-2.1113,-2.145,-2.1877,-2.2553,-2.3401,-2.4427,-2.5523,-2.6663,-2.7582,-2.8499,-2.9213,-2.949,-2.9741,-2.9653,-2.9451,-2.9105,-2.8594,-2.7893,-2.6805,-2.5469,-2.3992,-2.1705,-1.9617,-1.7642,-1.6019,-1.482,-1.3919,-1.3603,-1.3129,-1.2783,-1.259,-1.2579,-1.2491,-1.2469,-1.2914,-1.3242,-1.3691,-1.4115,-1.4507,-1.5084,-1.5236,-1.5297,-1.5219,-1.5198,-1.5147,-1.5123,-1.4924,-3.1492,-3.1398,-3.1336,-3.1354,-3.1444,-3.1647,-3.2035,-3.2683,-3.3523,-3.4243,-3.4927,-3.5604,-3.6182,-3.655,-3.6673,-3.6454,-3.5994,-3.5549,-3.4991,-3.4333,-3.3755,-3.3261,-3.2765,-3.2302,-3.2094,-3.1826,-3.1351,-3.0984,-3.0612,-3.0005,-2.9602,-2.9369,-2.9022,-2.8716,-2.863,-2.8204,-2.7848,-2.7469,-2.7113,-2.6589,-2.6037,-2.5735,-2.5442,-2.5087,-2.4897,-2.4682,-2.4454,-2.4298,-2.4116,-2.3934,-2.3897,-2.3666,-2.3372,-2.3298,-2.2964,-2.2553,-2.2214,-2.1959,-2.1512,-2.1167,-2.0985,-2.0869,-2.0908,-2.1004,-2.1091,-2.1356,-2.1405,-2.1172,-2.1511,-2.1815,-2.2045,-2.2601,-2.3579,-2.4794,-2.6056,-2.7146,-2.8085,-2.8823,-2.9527,-2.9615,-2.9728,-2.974,-2.9614,-2.9289,-2.8897,-2.8171,-2.729,-2.5856,-2.4104,-2.1648,-1.9368,-1.7293,-1.6089,-1.4923,-1.4109,-1.3826,-1.331,-1.2872,-1.24,-1.205,-1.1692,-1.1477,-1.1629,-1.1953,-1.2443,-1.3193,-1.3883,-1.453,-1.5012,-1.5291,-1.5357,-1.5443,-1.5501,-1.5452,-1.5356,-3.2288,-3.1896,-3.2143,-3.2073,-3.1833,-3.2212,-3.2497,-3.2823,-3.3471,-3.4159,-3.4771,-3.5345,-3.5898,-3.628,-3.6305,-3.6028,-3.5571,-3.5165,-3.4554,-3.3905,-3.3335,-3.285,-3.248,-3.2094,-3.1856,-3.1698,-3.1424,-3.1161,-3.0806,-3.0371,-2.9929,-2.9668,-2.9474,-2.9434,-2.9343,-2.875,-2.8484,-2.8072,-2.7408,-2.6533,-2.605,-2.5793,-2.5535,-2.5111,-2.4933,-2.4718,-2.4502,-2.4309,-2.4189,-2.4043,-2.397,-2.3824,-2.3629,-2.3409,-2.3075,-2.2617,-2.2149,-2.1769,-2.1349,-2.0964,-2.0781,-2.075,-2.0862,-2.0926,-2.1216,-2.1511,-2.1741,-2.1631,-2.1958,-2.2281,-2.2644,-2.3317,-2.4266,-2.539,-2.6503,-2.7358,-2.8304,-2.9159,-2.9754,-2.9728,-2.9663,-2.9611,-2.9495,-2.9079,-2.8593,-2.7931,-2.6883,-2.5461,-2.3506,-2.1083,-1.8857,-1.6737,-1.5842,-1.5162,-1.4379,-1.3801,-1.3098,-1.2523,-1.1656,-1.1263,-1.0592,-1.0413,-1.0654,-1.1047,-1.1628,-1.24,-1.3278,-1.4147,-1.4842,-1.524,-1.5549,-1.5596,-1.5588,-1.5683,-1.5594,-3.3388,-3.2962,-3.3087,-3.2958,-3.2688,-3.3031,-3.319,-3.3262,-3.3613,-3.4126,-3.4683,-3.5188,-3.5694,-3.6023,-3.5954,-3.5768,-3.5589,-3.5059,-3.4632,-3.4032,-3.3352,-3.2869,-3.2492,-3.2108,-3.1727,-3.1727,-3.1453,-3.1249,-3.1073,-3.0732,-3.0326,-2.996,-3.0015,-3.0052,-3.0048,-2.9654,-2.9206,-2.8467,-2.7425,-2.6593,-2.6084,-2.5945,-2.5653,-2.5265,-2.4957,-2.4718,-2.4574,-2.4309,-2.4189,-2.4152,-2.408,-2.397,-2.3824,-2.3629,-2.3224,-2.2729,-2.2214,-2.1617,-2.1207,-2.083,-2.071,-2.064,-2.0888,-2.1112,-2.179,-2.1861,-2.1849,-2.2029,-2.2322,-2.2726,-2.3154,-2.3743,-2.4572,-2.5542,-2.671,-2.7541,-2.8309,-2.9104,-2.9573,-2.9495,-2.9404,-2.9287,-2.9118,-2.8752,-2.8263,-2.7678,-2.6502,-2.502,-2.2842,-2.0439,-1.8713,-1.6714,-1.5944,-1.5331,-1.4725,-1.3963,-1.3204,-1.2311,-1.1433,-1.0654,-1.0117,-0.992,-1.0019,-1.0462,-1.0904,-1.1614,-1.248,-1.3584,-1.464,-1.4895,-1.5168,-1.5568,-1.5689,-1.573,-1.5778,-3.4945,-3.5118,-3.4233,-3.4129,-3.4391,-3.4023,-3.3975,-3.411,-3.4095,-3.4249,-3.457,-3.5065,-3.5481,-3.5723,-3.5735,-3.5746,-3.598,-3.5497,-3.5233,-3.4781,-3.4091,-3.3354,-3.2781,-3.2145,-3.1584,-3.1524,-3.1409,-3.1322,-3.1279,-3.122,-3.076,-3.0384,-3.0645,-3.0648,-3.0676,-3.0555,-2.9558,-2.8657,-2.746,-2.6746,-2.6248,-2.598,-2.5758,-2.5477,-2.5064,-2.4801,-2.4754,-2.4381,-2.4152,-2.4152,-2.4189,-2.4116,-2.4007,-2.3861,-2.3482,-2.2916,-2.2327,-2.1675,-2.1034,-2.073,-2.0529,-2.0383,-2.0684,-2.1444,-2.2308,-2.2587,-2.2602,-2.2477,-2.2725,-2.2892,-2.3125,-2.3508,-2.4624,-2.5665,-2.6753,-2.7486,-2.8228,-2.8883,-2.9275,-2.9197,-2.9118,-2.9013,-2.8685,-2.8315,-2.7782,-2.7203,-2.5388,-2.3902,-2.1964,-1.9792,-1.8526,-1.7085,-1.6183,-1.5551,-1.507,-1.4304,-1.3426,-1.2506,-1.1585,-1.0703,-0.9924,-0.9776,-0.9624,-0.9871,-1.0364,-1.0998,-1.1634,-1.27,-1.3667,-1.4298,-1.4825,-1.5213,-1.5499,-1.5547,-1.5642,-3.6039,-3.6306,-3.6199,-3.5845,-3.5323,-3.5404,-3.5122,-3.4664,-3.4645,-3.4565,-3.4538,-3.4883,-3.5205,-3.5484,-3.5834,-3.5895,-3.5992,-3.595,-3.5712,-3.5205,-3.4499,-3.3684,-3.3029,-3.2449,-3.1914,-3.1615,-3.1468,-3.138,-3.1307,-3.159,-3.1573,-3.1401,-3.1401,-3.1664,-3.1702,-3.1252,-3.0056,-2.872,-2.7765,-2.7097,-2.6144,-2.5945,-2.5723,-2.5265,-2.4885,-2.4562,-2.4418,-2.4164,-2.4043,-2.408,-2.4273,-2.4273,-2.4236,-2.4127,-2.3787,-2.3176,-2.2553,-2.1719,-2.0977,-2.068,-2.0438,-2.0671,-2.1007,-2.1655,-2.2485,-2.2574,-2.2736,-2.2809,-2.3044,-2.3165,-2.3695,-2.419,-2.4962,-2.5875,-2.6678,-2.7405,-2.8048,-2.8609,-2.8961,-2.8882,-2.8816,-2.8697,-2.8327,-2.7926,-2.7307,-2.6599,-2.4639,-2.2746,-2.0979,-1.949,-1.8336,-1.7423,-1.6547,-1.5825,-1.5324,-1.4484,-1.3619,-1.2748,-1.1829,-1.0949,-1.0117,-0.948,-0.9381,-0.9579,-0.9821,-1.0408,-1.1096,-1.1873,-1.2748,-1.3619,-1.4394,-1.4981,-1.5172,-1.5261,-1.5309,-3.6875,-3.7237,-3.7666,-3.7295,-3.6485,-3.66,-3.6218,-3.5567,-3.5353,-3.5062,-3.4717,-3.5128,-3.5396,-3.568,-3.6163,-3.6555,-3.6578,-3.6531,-3.6316,-3.5824,-3.5169,-3.4328,-3.3651,-3.3035,-3.2467,-3.1929,-3.1795,-3.1781,-3.1767,-3.2184,-3.2389,-3.2394,-3.2261,-3.2583,-3.2369,-3.1806,-3.0484,-2.9206,-2.8048,-2.7402,-2.6344,-2.5867,-2.5618,-2.5111,-2.4694,-2.4381,-2.42,-2.4007,-2.3849,-2.4007,-2.42,-2.4418,-2.4429,-2.4321,-2.4055,-2.3482,-2.2746,-2.1889,-2.1213,-2.0591,-2.0389,-2.0754,-2.1033,-2.1596,-2.2087,-2.2397,-2.2624,-2.3028,-2.3246,-2.3537,-2.398,-2.4308,-2.4724,-2.5492,-2.6281,-2.6994,-2.7533,-2.8075,-2.8407,-2.8578,-2.8419,-2.8195,-2.7499,-2.6958,-2.6038,-2.5284,-2.376,-2.2057,-2.0657,-1.9356,-1.841,-1.7578,-1.6886,-1.6203,-1.5527,-1.4908,-1.4286,-1.3474,-1.2506,-1.1438,-1.0605,-0.992,-0.9331,-0.9381,-0.9628,-0.9969,-1.0359,-1.0895,-1.1965,-1.3136,-1.3811,-1.4496,-1.4736,-1.4831,-1.4831,-3.7565,-3.7915,-3.8234,-3.823,-3.7898,-3.7487,-3.7164,-3.6731,-3.6141,-3.561,-3.5234,-3.587,-3.6146,-3.6208,-3.6771,-3.7182,-3.742,-3.7297,-3.711,-3.6731,-3.5856,-3.5263,-3.4607,-3.3878,-3.314,-3.2602,-3.2467,-3.2467,-3.2467,-3.2691,-3.3119,-3.3412,-3.3281,-3.3124,-3.2824,-3.1854,-3.09,-2.9912,-2.8392,-2.7563,-2.6678,-2.585,-2.5468,-2.4969,-2.4431,-2.408,-2.3982,-2.3714,-2.3629,-2.3861,-2.4152,-2.4381,-2.455,-2.4562,-2.4261,-2.3714,-2.2933,-2.2105,-2.1261,-2.0531,-2.05,-2.0864,-2.106,-2.1401,-2.1954,-2.2309,-2.2564,-2.2969,-2.3091,-2.3232,-2.3547,-2.3894,-2.4358,-2.4946,-2.5684,-2.631,-2.6846,-2.7429,-2.7713,-2.7938,-2.7834,-2.7557,-2.6741,-2.5872,-2.4819,-2.3747,-2.257,-2.1347,-2.0192,-1.9188,-1.8311,-1.7893,-1.7246,-1.6763,-1.6143,-1.5527,-1.4908,-1.4142,-1.3281,-1.2262,-1.1292,-1.056,-1.0019,-0.9529,-0.9331,-0.9521,-0.9575,-0.9723,-1.0841,-1.196,-1.3178,-1.3859,-1.4106,-1.425,-1.4154,-3.7988,-3.8387,-3.8567,-3.8667,-3.8645,-3.8311,-3.782,-3.7132,-3.6323,-3.5814,-3.5814,-3.6237,-3.6509,-3.6774,-3.7296,-3.7745,-3.7746,-3.7806,-3.7616,-3.6963,-3.623,-3.5507,-3.4908,-3.4404,-3.3815,-3.332,-3.3155,-3.317,-3.3185,-3.3333,-3.3578,-3.3883,-3.3571,-3.3188,-3.2695,-3.1874,-3.097,-2.9818,-2.8792,-2.7889,-2.6554,-2.5889,-2.53,-2.4656,-2.4039,-2.373,-2.3705,-2.3457,-2.3475,-2.377,-2.4089,-2.449,-2.4801,-2.4885,-2.4705,-2.4194,-2.353,-2.2633,-2.1655,-2.086,-2.065,-2.0881,-2.1042,-2.1401,-2.2132,-2.2353,-2.2618,-2.2794,-2.2882,-2.2969,-2.311,-2.3154,-2.3537,-2.41,-2.4765,-2.5306,-2.5893,-2.6517,-2.6981,-2.7167,-2.7156,-2.6857,-2.6196,-2.5421,-2.436,-2.3149,-2.2006,-2.1078,-2.0019,-1.9058,-1.8179,-1.8087,-1.7714,-1.7286,-1.681,-1.6426,-1.59,-1.5235,-1.428,-1.3178,-1.2257,-1.1385,-1.0507,-0.9916,-0.9422,-0.9027,-0.8928,-0.8977,-0.971,-1.0734,-1.1809,-1.2791,-1.319,-1.3286,-1.3244,-3.8017,-3.8544,-3.8611,-3.8738,-3.8832,-3.8683,-3.814,-3.7379,-3.6605,-3.6302,-3.6435,-3.6837,-3.7133,-3.7443,-3.7943,-3.8214,-3.803,-3.7887,-3.7533,-3.6906,-3.6399,-3.5764,-3.5238,-3.4836,-3.4459,-3.4008,-3.3829,-3.3829,-3.3735,-3.4029,-3.405,-3.38,-3.3356,-3.2806,-3.2268,-3.1509,-3.0764,-2.9679,-2.88,-2.7863,-2.6777,-2.5969,-2.535,-2.4668,-2.41,-2.3699,-2.3558,-2.341,-2.3327,-2.3754,-2.418,-2.4715,-2.5087,-2.5277,-2.5264,-2.4974,-2.4106,-2.3093,-2.1831,-2.1315,-2.1177,-2.1141,-2.1042,-2.1445,-2.2087,-2.2264,-2.2485,-2.2671,-2.2627,-2.2539,-2.2539,-2.2539,-2.274,-2.3343,-2.3777,-2.4317,-2.4967,-2.5642,-2.6144,-2.6332,-2.6561,-2.6146,-2.5759,-2.4893,-2.4026,-2.2799,-2.157,-2.0736,-1.9891,-1.8966,-1.8272,-1.8272,-1.8226,-1.7939,-1.7699,-1.7466,-1.6936,-1.6325,-1.5371,-1.437,-1.3318,-1.2441,-1.1375,-1.0207,-0.9468,-0.8775,-0.818,-0.8226,-0.8768,-0.9361,-1.0149,-1.1082,-1.2024,-1.2224,-1.2224,-3.7786,-3.8335,-3.8391,-3.846,-3.8539,-3.8472,-3.8128,-3.7623,-3.7296,-3.7033,-3.6894,-3.7782,-3.7915,-3.7893,-3.8553,-3.8663,-3.8342,-3.7998,-3.7415,-3.6891,-3.6352,-3.5883,-3.5627,-3.5389,-3.4966,-3.4681,-3.447,-3.4343,-3.4233,-3.4095,-3.3977,-3.3625,-3.2975,-3.2295,-3.164,-3.0934,-3.0317,-2.9478,-2.8639,-2.7743,-2.6806,-2.6159,-2.5508,-2.4875,-2.4404,-2.4152,-2.3959,-2.3757,-2.3826,-2.4042,-2.4331,-2.5003,-2.5524,-2.5849,-2.6058,-2.5712,-2.4653,-2.3276,-2.2265,-2.1913,-2.1526,-2.1383,-2.1186,-2.1499,-2.1865,-2.2097,-2.222,-2.2264,-2.2176,-2.2043,-2.1963,-2.1989,-2.2024,-2.2413,-2.2799,-2.3367,-2.4026,-2.4669,-2.5168,-2.5569,-2.5884,-2.5717,-2.5422,-2.468,-2.4026,-2.2931,-2.1748,-2.0736,-1.9882,-1.9028,-1.852,-1.8596,-1.8596,-1.8589,-1.8442,-1.8388,-1.811,-1.7537,-1.6781,-1.5832,-1.4686,-1.3403,-1.2096,-1.0832,-0.946,-0.8474,-0.7484,-0.7235,-0.7531,-0.8173,-0.8867,-0.9809,-1.0846,-1.1096,-1.1149,-3.7431,-3.8046,-3.8046,-3.8059,-3.803,-3.7655,-3.7419,-3.7329,-3.7208,-3.6965,-3.6597,-3.7712,-3.7753,-3.7541,-3.8202,-3.829,-3.8014,-3.7578,-3.7012,-3.6538,-3.6179,-3.5878,-3.5651,-3.5474,-3.5228,-3.5088,-3.4919,-3.4712,-3.446,-3.418,-3.3627,-3.3157,-3.2461,-3.17,-3.0884,-3.0075,-2.9651,-2.9147,-2.8415,-2.7621,-2.6934,-2.6296,-2.5599,-2.5036,-2.4574,-2.4396,-2.435,-2.4259,-2.4403,-2.4907,-2.5287,-2.5939,-2.6685,-2.6669,-2.6584,-2.6011,-2.4873,-2.3668,-2.3054,-2.2366,-2.1874,-2.1651,-2.1374,-2.1607,-2.1874,-2.1909,-2.182,-2.1767,-2.1499,-2.1275,-2.0961,-2.0907,-2.1033,-2.1347,-2.1784,-2.2359,-2.3071,-2.382,-2.436,-2.5105,-2.5422,-2.5644,-2.5338,-2.4893,-2.4188,-2.3105,-2.2006,-2.0952,-1.9973,-1.9158,-1.8751,-1.8835,-1.9058,-1.905,-1.9363,-1.9401,-1.9171,-1.875,-1.8041,-1.7156,-1.588,-1.4495,-1.2909,-1.1063,-0.916,-0.768,-0.6489,-0.6487,-0.6686,-0.7086,-0.7779,-0.8726,-0.9521,-0.9817,-1.0068,-3.6792,-3.7474,-3.7594,-3.7565,-3.731,-3.6717,-3.6427,-3.6457,-3.6547,-3.635,-3.6134,-3.6745,-3.701,-3.6885,-3.7164,-3.7303,-3.7336,-3.6812,-3.6398,-3.6352,-3.599,-3.5701,-3.5489,-3.5359,-3.518,-3.5096,-3.4916,-3.4662,-3.4298,-3.3701,-3.3129,-3.2725,-3.1969,-3.127,-3.0482,-2.9741,-2.9091,-2.8645,-2.8148,-2.7417,-2.6864,-2.6415,-2.5797,-2.5205,-2.4816,-2.4816,-2.4864,-2.4869,-2.5136,-2.5571,-2.5942,-2.645,-2.7138,-2.7277,-2.6886,-2.626,-2.5283,-2.4272,-2.3567,-2.2887,-2.2353,-2.1909,-2.1607,-2.1562,-2.1508,-2.1454,-2.132,-2.1132,-2.0682,-2.0275,-1.9965,-1.9737,-2.0002,-2.0229,-2.0763,-2.1347,-2.2148,-2.2994,-2.3777,-2.4615,-2.5094,-2.5475,-2.538,-2.4978,-2.4413,-2.3454,-2.2448,-2.1427,-2.0456,-1.9509,-1.915,-1.9058,-1.9379,-1.9608,-1.9965,-2.0275,-2.0184,-1.9911,-1.9446,-1.8457,-1.7109,-1.5257,-1.338,-1.0951,-0.8414,-0.7179,-0.6137,-0.5889,-0.5989,-0.6439,-0.6789,-0.7434,-0.8184,-0.868,-0.8878,-3.5858,-3.6657,-3.6901,-3.6672,-3.643,-3.569,-3.5262,-3.5064,-3.529,-3.5395,-3.5294,-3.5502,-3.5787,-3.586,-3.5998,-3.6166,-3.6248,-3.6001,-3.5922,-3.6072,-3.5831,-3.5524,-3.5311,-3.5148,-3.4931,-3.4765,-3.4515,-3.423,-3.3632,-3.3023,-3.2489,-3.2273,-3.1579,-3.0848,-3.0165,-2.947,-2.8855,-2.8367,-2.7926,-2.7395,-2.6876,-2.6569,-2.6354,-2.583,-2.563,-2.5619,-2.5574,-2.5585,-2.5625,-2.6007,-2.6417,-2.6892,-2.7367,-2.77,-2.7256,-2.6521,-2.5576,-2.4734,-2.3973,-2.3266,-2.2662,-2.222,-2.182,-2.1275,-2.0997,-2.0772,-2.0583,-2.0076,-1.9583,-1.8988,-1.8619,-1.8627,-1.8804,-1.9271,-1.9866,-2.0628,-2.1526,-2.2545,-2.3701,-2.4487,-2.5168,-2.5517,-2.5728,-2.5369,-2.4935,-2.394,-2.2931,-2.1952,-2.1024,-2.0048,-1.96,-1.9417,-1.9745,-2.0155,-2.06,-2.0916,-2.115,-2.097,-2.0555,-1.9675,-1.8272,-1.6088,-1.3711,-1.1093,-0.8467,-0.7077,-0.6134,-0.5837,-0.5689,-0.5889,-0.6189,-0.6292,-0.6792,-0.7437,-0.7885,-3.447,-3.4847,-3.4922,-3.4847,-3.4757,-3.4469,-3.4059,-3.3528,-3.3601,-3.3831,-3.4226,-3.4836,-3.4987,-3.462,-3.4999,-3.5206,-3.5112,-3.5192,-3.5294,-3.5365,-3.5321,-3.5335,-3.5148,-3.4883,-3.4597,-3.4312,-3.4025,-3.3563,-3.2952,-3.2273,-3.174,-3.1519,-3.0973,-3.0368,-2.9819,-2.9157,-2.8724,-2.8259,-2.7938,-2.7505,-2.7015,-2.685,-2.6655,-2.6437,-2.6343,-2.6343,-2.6359,-2.6603,-2.6798,-2.7146,-2.7524,-2.7814,-2.8068,-2.7884,-2.7354,-2.6558,-2.5748,-2.4903,-2.4186,-2.345,-2.2794,-2.2132,-2.1508,-2.0727,-2.0175,-1.9994,-1.9575,-1.8934,-1.8334,-1.7738,-1.7372,-1.7466,-1.7699,-1.8303,-1.9004,-1.9957,-2.0943,-2.228,-2.357,-2.4391,-2.5158,-2.5591,-2.5853,-2.5759,-2.5327,-2.4541,-2.3541,-2.257,-2.1704,-2.0817,-2.0192,-2.0056,-2.0283,-2.0654,-2.1105,-2.1463,-2.1642,-2.1642,-2.123,-2.0348,-1.9247,-1.6364,-1.3428,-1.1005,-0.8711,-0.7375,-0.6284,-0.5837,-0.5739,-0.5737,-0.5639,-0.5789,-0.5839,-0.6337,-0.6786,-3.3442,-3.3894,-3.406,-3.4075,-3.3954,-3.3622,-3.3229,-3.2896,-3.2593,-3.2644,-3.2972,-3.3519,-3.3643,-3.3345,-3.3765,-3.4115,-3.4012,-3.4131,-3.4501,-3.4708,-3.4799,-3.4884,-3.4769,-3.4582,-3.4045,-3.3667,-3.3023,-3.2489,-3.2128,-3.1593,-3.1099,-3.0949,-3.0495,-3.0037,-2.9521,-2.917,-2.8736,-2.8351,-2.8151,-2.7788,-2.7342,-2.7219,-2.7085,-2.6921,-2.6869,-2.691,-2.7033,-2.7278,-2.7482,-2.7713,-2.7988,-2.7867,-2.7799,-2.7406,-2.6887,-2.6196,-2.5496,-2.4796,-2.4186,-2.3493,-2.2794,-2.2087,-2.1275,-2.0447,-1.9201,-1.888,-1.7987,-1.739,-1.7063,-1.656,-1.6197,-1.6197,-1.6622,-1.7178,-1.821,-1.9317,-2.0673,-2.2157,-2.3299,-2.4251,-2.5031,-2.5664,-2.5968,-2.626,-2.5748,-2.5009,-2.4016,-2.3105,-2.228,-2.1499,-2.0916,-2.06,-2.0781,-2.115,-2.1607,-2.1909,-2.2087,-2.1998,-2.1767,-2.015,-1.8442,-1.5704,-1.3,-1.0912,-0.9057,-0.7574,-0.6681,-0.6087,-0.5687,-0.5636,-0.5436,-0.5286,-0.5336,-0.5486,-0.6087,-3.2511,-3.3215,-3.3487,-3.3607,-3.3427,-3.287,-3.2584,-3.2449,-3.2012,-3.1856,-3.2029,-3.2142,-3.2176,-3.2274,-3.2277,-3.2634,-3.2917,-3.3166,-3.3623,-3.4147,-3.4301,-3.4546,-3.4537,-3.4196,-3.3528,-3.2725,-3.1982,-3.1653,-3.1408,-3.0861,-3.0533,-3.0508,-3.0279,-2.9972,-2.9702,-2.9365,-2.8961,-2.8657,-2.8459,-2.8271,-2.7978,-2.7736,-2.7522,-2.736,-2.7348,-2.7429,-2.7551,-2.7725,-2.7886,-2.7966,-2.8099,-2.7817,-2.74,-2.694,-2.6362,-2.5748,-2.5158,-2.4615,-2.4067,-2.3493,-2.275,-2.1989,-2.1042,-1.994,-1.8642,-1.7522,-1.664,-1.5981,-1.5656,-1.5378,-1.5057,-1.5112,-1.5581,-1.6473,-1.7645,-1.895,-2.0538,-2.2024,-2.3028,-2.4069,-2.4893,-2.5622,-2.6093,-2.6426,-2.6124,-2.539,-2.4584,-2.3681,-2.2818,-2.2113,-2.1499,-2.1186,-2.115,-2.1553,-2.1919,-2.2097,-2.222,-2.2087,-2.1579,-1.9679,-1.7725,-1.5475,-1.329,-1.1165,-0.9452,-0.7971,-0.693,-0.6234,-0.5884,-0.5634,-0.5386,-0.5188,-0.5135,-0.5336,-0.5737,-3.1324,-3.1723,-3.1811,-3.1884,-3.1943,-3.1808,-3.1748,-3.1733,-3.1643,-3.1568,-3.1611,-3.164,-3.1783,-3.2066,-3.2053,-3.2194,-3.2231,-3.2403,-3.2976,-3.3589,-3.3813,-3.4254,-3.424,-3.3583,-3.281,-3.1946,-3.1147,-3.0735,-3.0621,-3.0216,-2.9972,-2.9972,-2.9985,-2.974,-2.9521,-2.9314,-2.9197,-2.8961,-2.8895,-2.8788,-2.863,-2.8351,-2.799,-2.7938,-2.8007,-2.8127,-2.8259,-2.8299,-2.8391,-2.8311,-2.8059,-2.7615,-2.7074,-2.6539,-2.5999,-2.5454,-2.4871,-2.4444,-2.3927,-2.3406,-2.2662,-2.1668,-2.0628,-1.9347,-1.7948,-1.6445,-1.5501,-1.4364,-1.4082,-1.3896,-1.3715,-1.4148,-1.4711,-1.6271,-1.7591,-1.9072,-2.0628,-2.1704,-2.2721,-2.3854,-2.4893,-2.5611,-2.6343,-2.655,-2.6592,-2.5863,-2.5137,-2.4241,-2.3266,-2.2652,-2.1989,-2.1687,-2.1463,-2.1553,-2.1785,-2.1963,-2.2097,-2.1954,-2.1356,-1.955,-1.7647,-1.5677,-1.353,-1.1507,-0.9899,-0.8425,-0.7481,-0.6537,-0.6084,-0.5784,-0.5438,-0.519,-0.5087,-0.5286,-0.5837]}]]